Wetterdaten: aktuell Mittwoch, 11.12.2019 21:03
Datum Zeit Temp. A. Feuchte A. Luftdruck Regen Wind Richtung Richtung Sonnenschein ET UV Solar Taupunkt Windchill Windben Empfang
11.12.2019 21:03 -1,9 C 89 % 1013,2 hPa 0,0 l/m 9,7 km/h (2 Bft) NW 315 0 min 0,000 mm 0,0 UV-I 0 W/m -3,5 C -5,5 C 11,3 km/h (2 Bft) 95,65 %
11.12.2019 21:02 -1,9 C 89 % 1013,2 hPa 0,0 l/m 11,3 km/h (2 Bft) NW 315 0 min 0,000 mm 0,0 UV-I 0 W/m -3,5 C -5,9 C 12,9 km/h (3 Bft) 91,30 %
11.12.2019 21:01 -1,9 C 89 % 1013,2 hPa 0,0 l/m 9,7 km/h (2 Bft) NW 315 0 min 0,000 mm 0,0 UV-I 0 W/m -3,5 C -5,5 C 12,9 km/h (3 Bft) 91,30 %
11.12.2019 21:00 -1,9 C 89 % 1013,2 hPa 0,0 l/m 11,3 km/h (2 Bft) NW 315 0 min 0,000 mm 0,0 UV-I 0 W/m -3,5 C -5,9 C 12,9 km/h (3 Bft) 95,65 %
11.12.2019 20:59 -1,8 C 89 % 1013,2 hPa 0,0 l/m 11,3 km/h (2 Bft) W-NW 292 0 min 0,000 mm 0,0 UV-I 0 W/m -3,4 C -5,8 C 14,5 km/h (3 Bft) 86,96 %
11.12.2019 20:58 -1,8 C 89 % 1013,2 hPa 0,0 l/m 12,9 km/h (3 Bft) NW 315 0 min 0,000 mm 0,0 UV-I 0 W/m -3,4 C -6,2 C 14,5 km/h (3 Bft) 78,26 %
11.12.2019 20:57 -1,8 C 89 % 1013,2 hPa 0,0 l/m 12,9 km/h (3 Bft) NW 315 0 min 0,000 mm 0,0 UV-I 0 W/m -3,4 C -6,2 C 14,5 km/h (3 Bft) 95,65 %
11.12.2019 20:56 -1,8 C 89 % 1013,1 hPa 0,0 l/m 11,3 km/h (2 Bft) NW 315 0 min 0,000 mm 0,0 UV-I 0 W/m -3,4 C -5,8 C 14,5 km/h (3 Bft) 95,65 %
11.12.2019 20:55 -1,8 C 89 % 1013,1 hPa 0,0 l/m 9,7 km/h (2 Bft) W-NW 292 0 min 0,000 mm 0,0 UV-I 0 W/m -3,4 C -5,4 C 11,3 km/h (2 Bft) 91,30 %
11.12.2019 20:54 -1,8 C 89 % 1013,1 hPa 0,0 l/m 9,7 km/h (2 Bft) W-NW 292 0 min 0,000 mm 0,0 UV-I 0 W/m -3,4 C -5,4 C 11,3 km/h (2 Bft) 91,30 %
11.12.2019 20:53 -1,8 C 89 % 1013,1 hPa 0,0 l/m 8,0 km/h (2 Bft) W-NW 292 0 min 0,000 mm 0,0 UV-I 0 W/m -3,4 C -4,9 C 11,3 km/h (2 Bft) 100,00 %
11.12.2019 20:52 -1,8 C 89 % 1013,1 hPa 0,0 l/m 8,0 km/h (2 Bft) W-NW 292 0 min 0,000 mm 0,0 UV-I 0 W/m -3,4 C -4,9 C 11,3 km/h (2 Bft) 100,00 %
11.12.2019 20:51 -1,8 C 89 % 1013,1 hPa 0,0 l/m 9,7 km/h (2 Bft) W-NW 292 0 min 0,000 mm 0,0 UV-I 0 W/m -3,4 C -5,4 C 11,3 km/h (2 Bft) 100,00 %
11.12.2019 20:50 -1,8 C 89 % 1013,1 hPa 0,0 l/m 11,3 km/h (2 Bft) W-NW 292 0 min 0,000 mm 0,0 UV-I 0 W/m -3,4 C -5,8 C 12,9 km/h (3 Bft) 91,30 %
11.12.2019 20:49 -1,9 C 89 % 1013,1 hPa 0,0 l/m 11,3 km/h (2 Bft) W-NW 292 0 min 0,000 mm 0,0 UV-I 0 W/m -3,5 C -5,9 C 12,9 km/h (3 Bft) 91,30 %
11.12.2019 20:48 -1,9 C 89 % 1013,1 hPa 0,0 l/m 11,3 km/h (2 Bft) W-NW 292 0 min 0,000 mm 0,0 UV-I 0 W/m -3,5 C -5,9 C 12,9 km/h (3 Bft) 86,96 %
11.12.2019 20:47 -1,9 C 89 % 1013,1 hPa 0,0 l/m 11,3 km/h (2 Bft) W-NW 292 0 min 0,000 mm 0,0 UV-I 0 W/m -3,5 C -5,9 C 12,9 km/h (3 Bft) 86,96 %
11.12.2019 20:46 -1,9 C 90 % 1013,1 hPa 0,0 l/m 11,3 km/h (2 Bft) W-NW 292 0 min 0,000 mm 0,0 UV-I 0 W/m -3,3 C -5,9 C 14,5 km/h (3 Bft) 95,65 %
11.12.2019 20:45 -2,0 C 90 % 1013,1 hPa 0,0 l/m 12,9 km/h (3 Bft) W-NW 292 0 min 0,000 mm 0,0 UV-I 0 W/m -3,4 C -6,4 C 14,5 km/h (3 Bft) 95,65 %
11.12.2019 20:44 -2,0 C 90 % 1013,1 hPa 0,0 l/m 11,3 km/h (2 Bft) W-NW 292 0 min 0,000 mm 0,0 UV-I 0 W/m -3,4 C -6,1 C 12,9 km/h (3 Bft) 86,96 %
11.12.2019 20:43 -2,1 C 90 % 1013,1 hPa 0,0 l/m 12,9 km/h (3 Bft) W-NW 292 0 min 0,000 mm 0,0 UV-I 0 W/m -3,5 C -6,6 C 14,5 km/h (3 Bft) 95,65 %
11.12.2019 20:42 -2,1 C 90 % 1013,1 hPa 0,0 l/m 11,3 km/h (2 Bft) W-NW 292 0 min 0,000 mm 0,0 UV-I 0 W/m -3,5 C -6,2 C 14,5 km/h (3 Bft) 82,61 %
11.12.2019 20:41 -2,1 C 90 % 1013,2 hPa 0,0 l/m 11,3 km/h (2 Bft) W-NW 292 0 min 0,000 mm 0,0 UV-I 0 W/m -3,5 C -6,2 C 14,5 km/h (3 Bft) 91,30 %
11.12.2019 20:40 -2,1 C 90 % 1013,1 hPa 0,0 l/m 12,9 km/h (3 Bft) W-NW 292 0 min 0,000 mm 0,0 UV-I 0 W/m -3,5 C -6,6 C 14,5 km/h (3 Bft) 95,65 %
11.12.2019 20:39 -2,2 C 90 % 1013,1 hPa 0,0 l/m 11,3 km/h (2 Bft) W-NW 292 0 min 0,000 mm 0,0 UV-I 0 W/m -3,6 C -6,3 C 14,5 km/h (3 Bft) 86,96 %
11.12.2019 20:38 -2,2 C 90 % 1013,1 hPa 0,0 l/m 11,3 km/h (2 Bft) W-NW 292 0 min 0,000 mm 0,0 UV-I 0 W/m -3,6 C -6,3 C 12,9 km/h (3 Bft) 82,61 %
11.12.2019 20:37 -2,2 C 90 % 1013,1 hPa 0,0 l/m 9,7 km/h (2 Bft) W-NW 292 0 min 0,000 mm 0,0 UV-I 0 W/m -3,6 C -5,9 C 12,9 km/h (3 Bft) 91,30 %
11.12.2019 20:36 -2,2 C 90 % 1013,1 hPa 0,0 l/m 9,7 km/h (2 Bft) W-NW 292 0 min 0,000 mm 0,0 UV-I 0 W/m -3,6 C -5,9 C 12,9 km/h (3 Bft) 82,61 %
11.12.2019 20:35 -2,2 C 90 % 1013,1 hPa 0,0 l/m 8,0 km/h (2 Bft) W-NW 292 0 min 0,000 mm 0,0 UV-I 0 W/m -3,6 C -5,3 C 11,3 km/h (2 Bft) 95,65 %
11.12.2019 20:34 -2,2 C 90 % 1013,2 hPa 0,0 l/m 8,0 km/h (2 Bft) W-NW 292 0 min 0,000 mm 0,0 UV-I 0 W/m -3,6 C -5,3 C 11,3 km/h (2 Bft) 86,96 %
11.12.2019 20:33 -2,3 C 90 % 1013,2 hPa 0,0 l/m 9,7 km/h (2 Bft) NW 315 0 min 0,000 mm 0,0 UV-I 0 W/m -3,7 C -6,0 C 11,3 km/h (2 Bft) 91,30 %
11.12.2019 20:32 -2,3 C 90 % 1013,1 hPa 0,0 l/m 9,7 km/h (2 Bft) W-NW 292 0 min 0,000 mm 0,0 UV-I 0 W/m -3,7 C -6,0 C 11,3 km/h (2 Bft) 95,65 %
11.12.2019 20:31 -2,3 C 90 % 1013,1 hPa 0,0 l/m 9,7 km/h (2 Bft) W-NW 292 0 min 0,000 mm 0,0 UV-I 0 W/m -3,7 C -6,0 C 12,9 km/h (3 Bft) 100,00 %
11.12.2019 20:30 -2,3 C 90 % 1013,1 hPa 0,0 l/m 8,0 km/h (2 Bft) NW 315 0 min 0,000 mm 0,0 UV-I 0 W/m -3,7 C -5,4 C 11,3 km/h (2 Bft) 95,65 %
11.12.2019 20:29 -2,3 C 90 % 1013,1 hPa 0,0 l/m 8,0 km/h (2 Bft) NW 315 0 min 0,000 mm 0,0 UV-I 0 W/m -3,7 C -5,4 C 11,3 km/h (2 Bft) 91,30 %
11.12.2019 20:28 -2,3 C 90 % 1013,1 hPa 0,0 l/m 6,4 km/h (2 Bft) NW 315 0 min 0,000 mm 0,0 UV-I 0 W/m -3,7 C -4,8 C 8,0 km/h (2 Bft) 91,30 %
11.12.2019 20:27 -2,3 C 90 % 1013,1 hPa 0,0 l/m 8,0 km/h (2 Bft) NW 315 0 min 0,000 mm 0,0 UV-I 0 W/m -3,7 C -5,4 C 9,7 km/h (2 Bft) 100,00 %
11.12.2019 20:26 -2,3 C 90 % 1013,0 hPa 0,0 l/m 8,0 km/h (2 Bft) NW 315 0 min 0,000 mm 0,0 UV-I 0 W/m -3,7 C -5,4 C 11,3 km/h (2 Bft) 100,00 %
11.12.2019 20:25 -2,3 C 90 % 1013,1 hPa 0,0 l/m 8,0 km/h (2 Bft) NW 315 0 min 0,000 mm 0,0 UV-I 0 W/m -3,7 C -5,4 C 12,9 km/h (3 Bft) 95,65 %
11.12.2019 20:24 -2,3 C 90 % 1013,1 hPa 0,0 l/m 6,4 km/h (2 Bft) NW 315 0 min 0,000 mm 0,0 UV-I 0 W/m -3,7 C -4,8 C 11,3 km/h (2 Bft) 100,00 %
11.12.2019 20:23 -2,3 C 90 % 1013,1 hPa 0,0 l/m 9,7 km/h (2 Bft) NW 315 0 min 0,000 mm 0,0 UV-I 0 W/m -3,7 C -6,0 C 12,9 km/h (3 Bft) 91,30 %
11.12.2019 20:22 -2,3 C 90 % 1013,0 hPa 0,0 l/m 11,3 km/h (2 Bft) NW 315 0 min 0,000 mm 0,0 UV-I 0 W/m -3,7 C -6,4 C 12,9 km/h (3 Bft) 100,00 %
11.12.2019 20:21 -2,4 C 90 % 1013,0 hPa 0,0 l/m 9,7 km/h (2 Bft) NW 315 0 min 0,000 mm 0,0 UV-I 0 W/m -3,8 C -6,1 C 12,9 km/h (3 Bft) 95,65 %
11.12.2019 20:20 -2,4 C 90 % 1013,0 hPa 0,0 l/m 9,7 km/h (2 Bft) NW 315 0 min 0,000 mm 0,0 UV-I 0 W/m -3,8 C -6,1 C 12,9 km/h (3 Bft) 100,00 %
11.12.2019 20:19 -2,4 C 91 % 1013,0 hPa 0,0 l/m 9,7 km/h (2 Bft) NW 315 0 min 0,000 mm 0,0 UV-I 0 W/m -3,7 C -6,1 C 12,9 km/h (3 Bft) 100,00 %
11.12.2019 20:18 -2,5 C 91 % 1013,1 hPa 0,0 l/m 9,7 km/h (2 Bft) NW 315 0 min 0,000 mm 0,0 UV-I 0 W/m -3,8 C -6,2 C 12,9 km/h (3 Bft) 86,96 %
11.12.2019 20:17 -2,6 C 91 % 1013,1 hPa 0,0 l/m 11,3 km/h (2 Bft) NW 315 0 min 0,000 mm 0,0 UV-I 0 W/m -3,9 C -6,8 C 14,5 km/h (3 Bft) 95,65 %
11.12.2019 20:16 -2,6 C 91 % 1013,0 hPa 0,0 l/m 9,7 km/h (2 Bft) NW 315 0 min 0,000 mm 0,0 UV-I 0 W/m -3,9 C -6,3 C 12,9 km/h (3 Bft) 100,00 %
11.12.2019 20:15 -2,7 C 92 % 1013,0 hPa 0,0 l/m 8,0 km/h (2 Bft) NW 315 0 min 0,000 mm 0,0 UV-I 0 W/m -3,8 C -5,9 C 11,3 km/h (2 Bft) 95,65 %
11.12.2019 20:14 -2,8 C 92 % 1013,0 hPa 0,0 l/m 9,7 km/h (2 Bft) NW 315 0 min 0,000 mm 0,0 UV-I 0 W/m -3,9 C -6,6 C 12,9 km/h (3 Bft) 91,30 %
11.12.2019 20:13 -2,8 C 92 % 1013,0 hPa 0,0 l/m 9,7 km/h (2 Bft) NW 315 0 min 0,000 mm 0,0 UV-I 0 W/m -3,9 C -6,6 C 12,9 km/h (3 Bft) 100,00 %
11.12.2019 20:12 -2,9 C 92 % 1013,0 hPa 0,0 l/m 8,0 km/h (2 Bft) NW 315 0 min 0,000 mm 0,0 UV-I 0 W/m -4,0 C -6,1 C 8,0 km/h (2 Bft) 91,30 %
11.12.2019 20:11 -3,0 C 92 % 1013,0 hPa 0,0 l/m 8,0 km/h (2 Bft) NW 315 0 min 0,000 mm 0,0 UV-I 0 W/m -4,1 C -6,3 C 9,7 km/h (2 Bft) 95,65 %
11.12.2019 20:10 -3,1 C 92 % 1013,0 hPa 0,0 l/m 8,0 km/h (2 Bft) NW 315 0 min 0,000 mm 0,0 UV-I 0 W/m -4,2 C -6,4 C 11,3 km/h (2 Bft) 95,65 %
11.12.2019 20:09 -3,2 C 91 % 1013,0 hPa 0,0 l/m 8,0 km/h (2 Bft) NW 315 0 min 0,000 mm 0,0 UV-I 0 W/m -4,5 C -6,5 C 9,7 km/h (2 Bft) 91,30 %
11.12.2019 20:08 -3,2 C 91 % 1013,0 hPa 0,0 l/m 8,0 km/h (2 Bft) N-NW 337 0 min 0,000 mm 0,0 UV-I 0 W/m -4,5 C -6,5 C 9,7 km/h (2 Bft) 86,96 %
11.12.2019 20:07 -3,3 C 91 % 1013,0 hPa 0,0 l/m 8,0 km/h (2 Bft) N-NW 337 0 min 0,000 mm 0,0 UV-I 0 W/m -4,6 C -6,6 C 9,7 km/h (2 Bft) 95,65 %
11.12.2019 20:06 -3,2 C 91 % 1013,0 hPa 0,0 l/m 8,0 km/h (2 Bft) N-NW 337 0 min 0,000 mm 0,0 UV-I 0 W/m -4,5 C -6,5 C 8,0 km/h (2 Bft) 95,65 %
11.12.2019 20:05 -3,2 C 91 % 1013,0 hPa 0,0 l/m 6,4 km/h (2 Bft) NW 315 0 min 0,000 mm 0,0 UV-I 0 W/m -4,5 C -5,9 C 8,0 km/h (2 Bft) 95,65 %
11.12.2019 20:04 -3,2 C 91 % 1013,0 hPa 0,0 l/m 6,4 km/h (2 Bft) NW 315 0 min 0,000 mm 0,0 UV-I 0 W/m -4,5 C -5,9 C 8,0 km/h (2 Bft) 100,00 %
11.12.2019 20:03 -3,2 C 91 % 1013,0 hPa 0,0 l/m 6,4 km/h (2 Bft) N-NW 337 0 min 0,000 mm 0,0 UV-I 0 W/m -4,5 C -5,9 C 8,0 km/h (2 Bft) 95,65 %
11.12.2019 20:02 -3,2 C 91 % 1013,0 hPa 0,0 l/m 6,4 km/h (2 Bft) NW 315 0 min 0,000 mm 0,0 UV-I 0 W/m -4,5 C -5,9 C 8,0 km/h (2 Bft) 100,00 %
11.12.2019 20:01 -3,2 C 91 % 1013,0 hPa 0,0 l/m 6,4 km/h (2 Bft) NW 315 0 min 0,000 mm 0,0 UV-I 0 W/m -4,5 C -5,9 C 6,4 km/h (2 Bft) 100,00 %
11.12.2019 20:00 -3,2 C 91 % 1013,0 hPa 0,0 l/m 4,8 km/h (1 Bft) W-NW 292 0 min 0,000 mm 0,0 UV-I 0 W/m -4,5 C -5,1 C 6,4 km/h (2 Bft) 100,00 %
11.12.2019 19:59 -3,2 C 91 % 1013,0 hPa 0,0 l/m 4,8 km/h (1 Bft) W-NW 292 0 min 0,000 mm 0,0 UV-I 0 W/m -4,5 C -5,1 C 6,4 km/h (2 Bft) 100,00 %
11.12.2019 19:58 -3,2 C 90 % 1012,9 hPa 0,0 l/m 4,8 km/h (1 Bft) W-NW 292 0 min 0,000 mm 0,0 UV-I 0 W/m -4,6 C -5,1 C 6,4 km/h (2 Bft) 100,00 %
11.12.2019 19:57 -3,1 C 90 % 1012,9 hPa 0,0 l/m 4,8 km/h (1 Bft) W-NW 292 0 min 0,000 mm 0,0 UV-I 0 W/m -4,5 C -5,0 C 6,4 km/h (2 Bft) 95,65 %
11.12.2019 19:56 -3,1 C 90 % 1012,9 hPa 0,0 l/m 4,8 km/h (1 Bft) W-NW 292 0 min 0,000 mm 0,0 UV-I 0 W/m -4,5 C -5,0 C 6,4 km/h (2 Bft) 100,00 %
11.12.2019 19:55 -3,1 C 90 % 1012,9 hPa 0,0 l/m 4,8 km/h (1 Bft) W-NW 292 0 min 0,000 mm 0,0 UV-I 0 W/m -4,5 C -5,0 C 6,4 km/h (2 Bft) 100,00 %
11.12.2019 19:54 -3,0 C 90 % 1012,9 hPa 0,0 l/m 6,4 km/h (2 Bft) W-NW 292 0 min 0,000 mm 0,0 UV-I 0 W/m -4,4 C -5,6 C 6,4 km/h (2 Bft) 91,30 %
11.12.2019 19:53 -2,9 C 90 % 1012,9 hPa 0,0 l/m 6,4 km/h (2 Bft) W-NW 292 0 min 0,000 mm 0,0 UV-I 0 W/m -4,3 C -5,5 C 6,4 km/h (2 Bft) 100,00 %
11.12.2019 19:52 -2,9 C 90 % 1012,9 hPa 0,0 l/m 6,4 km/h (2 Bft) W-NW 292 0 min 0,000 mm 0,0 UV-I 0 W/m -4,3 C -5,5 C 8,0 km/h (2 Bft) 86,96 %
11.12.2019 19:51 -2,8 C 90 % 1012,9 hPa 0,0 l/m 8,0 km/h (2 Bft) W-NW 292 0 min 0,000 mm 0,0 UV-I 0 W/m -4,2 C -6,0 C 11,3 km/h (2 Bft) 100,00 %
11.12.2019 19:50 -2,8 C 91 % 1012,9 hPa 0,0 l/m 9,7 km/h (2 Bft) W-NW 292 0 min 0,000 mm 0,0 UV-I 0 W/m -4,1 C -6,6 C 11,3 km/h (2 Bft) 100,00 %
11.12.2019 19:49 -2,7 C 91 % 1012,9 hPa 0,0 l/m 6,4 km/h (2 Bft) O-SO 112 0 min 0,000 mm 0,0 UV-I 0 W/m -4,0 C -5,3 C 11,3 km/h (2 Bft) 100,00 %
11.12.2019 19:48 -2,7 C 91 % 1013,0 hPa 0,0 l/m 4,8 km/h (1 Bft) O-SO 112 0 min 0,000 mm 0,0 UV-I 0 W/m -4,0 C -4,5 C 6,4 km/h (2 Bft) 100,00 %
11.12.2019 19:47 -2,7 C 91 % 1012,9 hPa 0,0 l/m 1,6 km/h (1 Bft) O-SO 112 0 min 0,000 mm 0,0 UV-I 0 W/m -4,0 C -2,7 C 3,2 km/h (1 Bft) 100,00 %
11.12.2019 19:46 -2,7 C 91 % 1012,9 hPa 0,0 l/m 0,0 km/h (0 Bft) N 0 0 min 0,000 mm 0,0 UV-I 0 W/m -4,0 C -2,7 C 0,0 km/h (0 Bft) 100,00 %
11.12.2019 19:45 -2,7 C 91 % 1012,9 hPa 0,0 l/m 0,0 km/h (0 Bft) O-SO 112 0 min 0,000 mm 0,0 UV-I 0 W/m -4,0 C -2,7 C 1,6 km/h (1 Bft) 100,00 %
11.12.2019 19:44 -2,7 C 91 % 1012,9 hPa 0,0 l/m 1,6 km/h (1 Bft) O-SO 112 0 min 0,000 mm 0,0 UV-I 0 W/m -4,0 C -2,7 C 3,2 km/h (1 Bft) 95,65 %
11.12.2019 19:43 -2,7 C 91 % 1012,9 hPa 0,0 l/m 1,6 km/h (1 Bft) O-SO 112 0 min 0,000 mm 0,0 UV-I 0 W/m -4,0 C -2,7 C 3,2 km/h (1 Bft) 100,00 %
11.12.2019 19:42 -2,7 C 91 % 1012,9 hPa 0,0 l/m 1,6 km/h (1 Bft) O-SO 112 0 min 0,000 mm 0,0 UV-I 0 W/m -4,0 C -2,7 C 3,2 km/h (1 Bft) 95,65 %
11.12.2019 19:41 -2,8 C 91 % 1012,9 hPa 0,0 l/m 1,6 km/h (1 Bft) O-SO 112 0 min 0,000 mm 0,0 UV-I 0 W/m -4,1 C -2,8 C 3,2 km/h (1 Bft) 100,00 %
11.12.2019 19:40 -2,7 C 91 % 1012,8 hPa 0,0 l/m 1,6 km/h (1 Bft) O-SO 112 0 min 0,000 mm 0,0 UV-I 0 W/m -4,0 C -2,7 C 3,2 km/h (1 Bft) 100,00 %
11.12.2019 19:39 -2,7 C 91 % 1012,8 hPa 0,0 l/m 1,6 km/h (1 Bft) O-SO 112 0 min 0,000 mm 0,0 UV-I 0 W/m -4,0 C -2,7 C 3,2 km/h (1 Bft) 86,96 %
11.12.2019 19:38 -2,7 C 91 % 1012,9 hPa 0,0 l/m 1,6 km/h (1 Bft) O-SO 112 0 min 0,000 mm 0,0 UV-I 0 W/m -4,0 C -2,7 C 3,2 km/h (1 Bft) 100,00 %
11.12.2019 19:37 -2,7 C 91 % 1012,9 hPa 0,0 l/m 1,6 km/h (1 Bft) O-SO 112 0 min 0,000 mm 0,0 UV-I 0 W/m -4,0 C -2,7 C 3,2 km/h (1 Bft) 100,00 %
11.12.2019 19:36 -2,7 C 91 % 1012,8 hPa 0,0 l/m 3,2 km/h (1 Bft) O-SO 112 0 min 0,000 mm 0,0 UV-I 0 W/m -4,0 C -2,7 C 3,2 km/h (1 Bft) 100,00 %
11.12.2019 19:35 -2,7 C 91 % 1012,8 hPa 0,0 l/m 3,2 km/h (1 Bft) O-SO 112 0 min 0,000 mm 0,0 UV-I 0 W/m -4,0 C -2,7 C 3,2 km/h (1 Bft) 95,65 %
11.12.2019 19:34 -2,7 C 91 % 1012,9 hPa 0,0 l/m 3,2 km/h (1 Bft) O-SO 112 0 min 0,000 mm 0,0 UV-I 0 W/m -4,0 C -2,7 C 3,2 km/h (1 Bft) 100,00 %
11.12.2019 19:33 -2,7 C 91 % 1012,9 hPa 0,0 l/m 3,2 km/h (1 Bft) O-SO 112 0 min 0,000 mm 0,0 UV-I 0 W/m -4,0 C -2,7 C 4,8 km/h (1 Bft) 100,00 %
11.12.2019 19:32 -2,7 C 91 % 1012,9 hPa 0,0 l/m 3,2 km/h (1 Bft) O-SO 112 0 min 0,000 mm 0,0 UV-I 0 W/m -4,0 C -2,7 C 4,8 km/h (1 Bft) 95,65 %
11.12.2019 19:31 -2,7 C 91 % 1012,9 hPa 0,0 l/m 3,2 km/h (1 Bft) O-SO 112 0 min 0,000 mm 0,0 UV-I 0 W/m -4,0 C -2,7 C 4,8 km/h (1 Bft) 100,00 %
11.12.2019 19:30 -2,7 C 91 % 1013,0 hPa 0,0 l/m 3,2 km/h (1 Bft) O-SO 112 0 min 0,000 mm 0,0 UV-I 0 W/m -4,0 C -2,7 C 4,8 km/h (1 Bft) 100,00 %
11.12.2019 19:29 -2,7 C 91 % 1012,9 hPa 0,0 l/m 3,2 km/h (1 Bft) O-SO 112 0 min 0,000 mm 0,0 UV-I 0 W/m -4,0 C -2,7 C 4,8 km/h (1 Bft) 100,00 %
11.12.2019 19:28 -2,7 C 91 % 1013,0 hPa 0,0 l/m 3,2 km/h (1 Bft) O-SO 112 0 min 0,000 mm 0,0 UV-I 0 W/m -4,0 C -2,7 C 3,2 km/h (1 Bft) 95,65 %
11.12.2019 19:27 -2,7 C 91 % 1013,0 hPa 0,0 l/m 3,2 km/h (1 Bft) O-SO 112 0 min 0,000 mm 0,0 UV-I 0 W/m -4,0 C -2,7 C 3,2 km/h (1 Bft) 95,65 %
11.12.2019 19:26 -2,7 C 92 % 1013,0 hPa 0,0 l/m 3,2 km/h (1 Bft) O-SO 112 0 min 0,000 mm 0,0 UV-I 0 W/m -3,8 C -2,7 C 3,2 km/h (1 Bft) 100,00 %
11.12.2019 19:25 -2,7 C 92 % 1013,0 hPa 0,0 l/m 1,6 km/h (1 Bft) O-SO 112 0 min 0,000 mm 0,0 UV-I 0 W/m -3,8 C -2,7 C 3,2 km/h (1 Bft) 100,00 %
11.12.2019 19:24 -2,7 C 92 % 1013,1 hPa 0,0 l/m 1,6 km/h (1 Bft) O-SO 112 0 min 0,000 mm 0,0 UV-I 0 W/m -3,8 C -2,7 C 3,2 km/h (1 Bft) 100,00 %
11.12.2019 19:23 -2,7 C 92 % 1013,0 hPa 0,0 l/m 3,2 km/h (1 Bft) O-SO 112 0 min 0,000 mm 0,0 UV-I 0 W/m -3,8 C -2,7 C 3,2 km/h (1 Bft) 95,65 %
11.12.2019 19:22 -2,7 C 92 % 1013,0 hPa 0,0 l/m 3,2 km/h (1 Bft) O-SO 112 0 min 0,000 mm 0,0 UV-I 0 W/m -3,8 C -2,7 C 3,2 km/h (1 Bft) 91,30 %
11.12.2019 19:21 -2,7 C 92 % 1013,0 hPa 0,0 l/m 3,2 km/h (1 Bft) O-SO 112 0 min 0,000 mm 0,0 UV-I 0 W/m -3,8 C -2,7 C 3,2 km/h (1 Bft) 100,00 %
11.12.2019 19:20 -2,7 C 92 % 1013,0 hPa 0,0 l/m 1,6 km/h (1 Bft) O-SO 112 0 min 0,000 mm 0,0 UV-I 0 W/m -3,8 C -2,7 C 3,2 km/h (1 Bft) 95,65 %
11.12.2019 19:19 -2,7 C 92 % 1013,0 hPa 0,0 l/m 1,6 km/h (1 Bft) O-SO 112 0 min 0,000 mm 0,0 UV-I 0 W/m -3,8 C -2,7 C 3,2 km/h (1 Bft) 100,00 %
11.12.2019 19:18 -2,7 C 92 % 1013,1 hPa 0,0 l/m 1,6 km/h (1 Bft) O-SO 112 0 min 0,000 mm 0,0 UV-I 0 W/m -3,8 C -2,7 C 3,2 km/h (1 Bft) 95,65 %
11.12.2019 19:17 -2,8 C 92 % 1013,1 hPa 0,0 l/m 1,6 km/h (1 Bft) O-SO 112 0 min 0,000 mm 0,0 UV-I 0 W/m -3,9 C -2,8 C 3,2 km/h (1 Bft) 91,30 %
11.12.2019 19:16 -2,8 C 92 % 1013,0 hPa 0,0 l/m 1,6 km/h (1 Bft) O-SO 112 0 min 0,000 mm 0,0 UV-I 0 W/m -3,9 C -2,8 C 1,6 km/h (1 Bft) 95,65 %
11.12.2019 19:15 -2,8 C 92 % 1013,1 hPa 0,0 l/m 1,6 km/h (1 Bft) O-SO 112 0 min 0,000 mm 0,0 UV-I 0 W/m -3,9 C -2,8 C 3,2 km/h (1 Bft) 86,96 %
11.12.2019 19:14 -2,8 C 92 % 1013,1 hPa 0,0 l/m 1,6 km/h (1 Bft) O-SO 112 0 min 0,000 mm 0,0 UV-I 0 W/m -3,9 C -2,8 C 3,2 km/h (1 Bft) 100,00 %
11.12.2019 19:13 -2,9 C 92 % 1013,1 hPa 0,0 l/m 1,6 km/h (1 Bft) O-SO 112 0 min 0,000 mm 0,0 UV-I 0 W/m -4,0 C -2,9 C 3,2 km/h (1 Bft) 100,00 %
11.12.2019 19:12 -2,9 C 92 % 1013,2 hPa 0,0 l/m 1,6 km/h (1 Bft) O-SO 112 0 min 0,000 mm 0,0 UV-I 0 W/m -4,0 C -2,9 C 3,2 km/h (1 Bft) 100,00 %
11.12.2019 19:11 -3,0 C 92 % 1013,1 hPa 0,0 l/m 1,6 km/h (1 Bft) O-SO 112 0 min 0,000 mm 0,0 UV-I 0 W/m -4,1 C -3,0 C 3,2 km/h (1 Bft) 100,00 %
11.12.2019 19:10 -3,1 C 92 % 1013,2 hPa 0,0 l/m 1,6 km/h (1 Bft) O-SO 112 0 min 0,000 mm 0,0 UV-I 0 W/m -4,2 C -3,1 C 3,2 km/h (1 Bft) 100,00 %
11.12.2019 19:09 -3,1 C 92 % 1013,2 hPa 0,0 l/m 1,6 km/h (1 Bft) O-SO 112 0 min 0,000 mm 0,0 UV-I 0 W/m -4,2 C -3,1 C 3,2 km/h (1 Bft) 100,00 %
11.12.2019 19:08 -3,2 C 91 % 1013,2 hPa 0,0 l/m 1,6 km/h (1 Bft) O-SO 112 0 min 0,000 mm 0,0 UV-I 0 W/m -4,5 C -3,2 C 3,2 km/h (1 Bft) 100,00 %
11.12.2019 19:07 -3,2 C 91 % 1013,2 hPa 0,0 l/m 1,6 km/h (1 Bft) O-SO 112 0 min 0,000 mm 0,0 UV-I 0 W/m -4,5 C -3,2 C 3,2 km/h (1 Bft) 100,00 %
11.12.2019 19:06 -3,2 C 91 % 1013,2 hPa 0,0 l/m 1,6 km/h (1 Bft) O-SO 112 0 min 0,000 mm 0,0 UV-I 0 W/m -4,5 C -3,2 C 1,6 km/h (1 Bft) 95,65 %
11.12.2019 19:05 -3,2 C 91 % 1013,2 hPa 0,0 l/m 1,6 km/h (1 Bft) O-SO 112 0 min 0,000 mm 0,0 UV-I 0 W/m -4,5 C -3,2 C 3,2 km/h (1 Bft) 100,00 %
11.12.2019 19:04 -3,2 C 91 % 1013,3 hPa 0,0 l/m 3,2 km/h (1 Bft) O-SO 112 0 min 0,000 mm 0,0 UV-I 0 W/m -4,5 C -3,2 C 3,2 km/h (1 Bft) 95,65 %
11.12.2019 19:03 -3,2 C 91 % 1013,3 hPa 0,0 l/m 3,2 km/h (1 Bft) O-SO 112 0 min 0,000 mm 0,0 UV-I 0 W/m -4,5 C -3,2 C 3,2 km/h (1 Bft) 100,00 %
11.12.2019 19:02 -3,3 C 91 % 1013,3 hPa 0,0 l/m 3,2 km/h (1 Bft) O-SO 112 0 min 0,000 mm 0,0 UV-I 0 W/m -4,6 C -3,3 C 3,2 km/h (1 Bft) 100,00 %
11.12.2019 19:01 -3,3 C 91 % 1013,3 hPa 0,0 l/m 0,0 km/h (0 Bft) O-SO 112 0 min 0,000 mm 0,0 UV-I 0 W/m -4,6 C -3,3 C 3,2 km/h (1 Bft) 100,00 %
11.12.2019 19:00 -3,3 C 91 % 1013,3 hPa 0,0 l/m 0,0 km/h (0 Bft) N 0 0 min 0,000 mm 0,0 UV-I 0 W/m -4,6 C -3,3 C 0,0 km/h (0 Bft) 100,00 %
11.12.2019 18:59 -3,3 C 91 % 1013,3 hPa 0,0 l/m 0,0 km/h (0 Bft) N 0 0 min 0,000 mm 0,0 UV-I 0 W/m -4,6 C -3,3 C 0,0 km/h (0 Bft) 100,00 %
11.12.2019 18:58 -3,3 C 91 % 1013,3 hPa 0,0 l/m 0,0 km/h (0 Bft) N 0 0 min 0,000 mm 0,0 UV-I 0 W/m -4,6 C -3,3 C 0,0 km/h (0 Bft) 100,00 %
11.12.2019 18:57 -3,3 C 91 % 1013,3 hPa 0,0 l/m 0,0 km/h (0 Bft) N 0 0 min 0,000 mm 0,0 UV-I 0 W/m -4,6 C -3,3 C 0,0 km/h (0 Bft) 100,00 %
11.12.2019 18:56 -3,3 C 91 % 1013,3 hPa 0,0 l/m 0,0 km/h (0 Bft) N 0 0 min 0,000 mm 0,0 UV-I 0 W/m -4,6 C -3,3 C 0,0 km/h (0 Bft) 91,30 %
11.12.2019 18:55 -3,3 C 91 % 1013,3 hPa 0,0 l/m 0,0 km/h (0 Bft) N 0 0 min 0,000 mm 0,0 UV-I 0 W/m -4,6 C -3,3 C 0,0 km/h (0 Bft) 100,00 %
11.12.2019 18:54 -3,3 C 91 % 1013,3 hPa 0,0 l/m 0,0 km/h (0 Bft) N 0 0 min 0,000 mm 0,0 UV-I 0 W/m -4,6 C -3,3 C 0,0 km/h (0 Bft) 91,30 %
11.12.2019 18:53 -3,3 C 91 % 1013,3 hPa 0,0 l/m 0,0 km/h (0 Bft) N 0 0 min 0,000 mm 0,0 UV-I 0 W/m -4,6 C -3,3 C 0,0 km/h (0 Bft) 95,65 %
11.12.2019 18:52 -3,3 C 91 % 1013,3 hPa 0,0 l/m 0,0 km/h (0 Bft) N 0 0 min 0,000 mm 0,0 UV-I 0 W/m -4,6 C -3,3 C 0,0 km/h (0 Bft) 100,00 %
11.12.2019 18:51 -3,3 C 91 % 1013,3 hPa 0,0 l/m 0,0 km/h (0 Bft) N 0 0 min 0,000 mm 0,0 UV-I 0 W/m -4,6 C -3,3 C 0,0 km/h (0 Bft) 95,65 %
11.12.2019 18:50 -3,3 C 91 % 1013,4 hPa 0,0 l/m 0,0 km/h (0 Bft) N 0 0 min 0,000 mm 0,0 UV-I 0 W/m -4,6 C -3,3 C 0,0 km/h (0 Bft) 100,00 %
11.12.2019 18:49 -3,3 C 91 % 1013,4 hPa 0,0 l/m 0,0 km/h (0 Bft) N 0 0 min 0,000 mm 0,0 UV-I 0 W/m -4,6 C -3,3 C 0,0 km/h (0 Bft) 95,65 %
11.12.2019 18:48 -3,3 C 91 % 1013,4 hPa 0,0 l/m 0,0 km/h (0 Bft) N 0 0 min 0,000 mm 0,0 UV-I 0 W/m -4,6 C -3,3 C 0,0 km/h (0 Bft) 100,00 %
11.12.2019 18:47 -3,3 C 91 % 1013,4 hPa 0,0 l/m 0,0 km/h (0 Bft) N 0 0 min 0,000 mm 0,0 UV-I 0 W/m -4,6 C -3,3 C 0,0 km/h (0 Bft) 100,00 %
11.12.2019 18:46 -3,3 C 91 % 1013,4 hPa 0,0 l/m 0,0 km/h (0 Bft) N 0 0 min 0,000 mm 0,0 UV-I 0 W/m -4,6 C -3,3 C 0,0 km/h (0 Bft) 95,65 %
11.12.2019 18:45 -3,3 C 91 % 1013,4 hPa 0,0 l/m 0,0 km/h (0 Bft) N 0 0 min 0,000 mm 0,0 UV-I 0 W/m -4,6 C -3,3 C 0,0 km/h (0 Bft) 100,00 %
11.12.2019 18:44 -3,3 C 91 % 1013,4 hPa 0,0 l/m 0,0 km/h (0 Bft) N 0 0 min 0,000 mm 0,0 UV-I 0 W/m -4,6 C -3,3 C 0,0 km/h (0 Bft) 95,65 %
11.12.2019 18:43 -3,3 C 91 % 1013,4 hPa 0,0 l/m 0,0 km/h (0 Bft) N 0 0 min 0,000 mm 0,0 UV-I 0 W/m -4,6 C -3,3 C 0,0 km/h (0 Bft) 100,00 %
11.12.2019 18:42 -3,3 C 91 % 1013,4 hPa 0,0 l/m 0,0 km/h (0 Bft) N 0 0 min 0,000 mm 0,0 UV-I 0 W/m -4,6 C -3,3 C 0,0 km/h (0 Bft) 100,00 %
11.12.2019 18:41 -3,3 C 91 % 1013,4 hPa 0,0 l/m 0,0 km/h (0 Bft) N 0 0 min 0,000 mm 0,0 UV-I 0 W/m -4,6 C -3,3 C 0,0 km/h (0 Bft) 91,30 %
11.12.2019 18:40 -3,3 C 91 % 1013,4 hPa 0,0 l/m 0,0 km/h (0 Bft) N 0 0 min 0,000 mm 0,0 UV-I 0 W/m -4,6 C -3,3 C 0,0 km/h (0 Bft) 100,00 %
11.12.2019 18:39 -3,3 C 91 % 1013,5 hPa 0,0 l/m 0,0 km/h (0 Bft) N 0 0 min 0,000 mm 0,0 UV-I 0 W/m -4,6 C -3,3 C 0,0 km/h (0 Bft) 100,00 %
11.12.2019 18:38 -3,3 C 91 % 1013,5 hPa 0,0 l/m 0,0 km/h (0 Bft) N 0 0 min 0,000 mm 0,0 UV-I 0 W/m -4,6 C -3,3 C 0,0 km/h (0 Bft) 100,00 %
11.12.2019 18:37 -3,3 C 91 % 1013,4 hPa 0,0 l/m 0,0 km/h (0 Bft) O-SO 112 0 min 0,000 mm 0,0 UV-I 0 W/m -4,6 C -3,3 C 1,6 km/h (1 Bft) 100,00 %
11.12.2019 18:36 -3,3 C 91 % 1013,6 hPa 0,0 l/m 1,6 km/h (1 Bft) O-SO 112 0 min 0,000 mm 0,0 UV-I 0 W/m -4,6 C -3,3 C 3,2 km/h (1 Bft) 100,00 %
11.12.2019 18:35 -3,3 C 91 % 1013,5 hPa 0,0 l/m 3,2 km/h (1 Bft) O-SO 112 0 min 0,000 mm 0,0 UV-I 0 W/m -4,6 C -3,3 C 4,8 km/h (1 Bft) 91,30 %
11.12.2019 18:34 -3,3 C 91 % 1013,6 hPa 0,0 l/m 4,8 km/h (1 Bft) O-SO 112 0 min 0,000 mm 0,0 UV-I 0 W/m -4,6 C -5,2 C 4,8 km/h (1 Bft) 95,65 %
11.12.2019 18:33 -3,3 C 91 % 1013,5 hPa 0,0 l/m 4,8 km/h (1 Bft) O-SO 112 0 min 0,000 mm 0,0 UV-I 0 W/m -4,6 C -5,2 C 4,8 km/h (1 Bft) 95,65 %
11.12.2019 18:32 -3,3 C 91 % 1013,6 hPa 0,0 l/m 4,8 km/h (1 Bft) O-SO 112 0 min 0,000 mm 0,0 UV-I 0 W/m -4,6 C -5,2 C 6,4 km/h (2 Bft) 100,00 %
11.12.2019 18:31 -3,3 C 91 % 1013,5 hPa 0,0 l/m 4,8 km/h (1 Bft) O-SO 112 0 min 0,000 mm 0,0 UV-I 0 W/m -4,6 C -5,2 C 6,4 km/h (2 Bft) 100,00 %
11.12.2019 18:30 -3,3 C 91 % 1013,5 hPa 0,0 l/m 6,4 km/h (2 Bft) O-SO 112 0 min 0,000 mm 0,0 UV-I 0 W/m -4,6 C -6,0 C 6,4 km/h (2 Bft) 95,65 %
11.12.2019 18:29 -3,3 C 91 % 1013,6 hPa 0,0 l/m 4,8 km/h (1 Bft) O-SO 112 0 min 0,000 mm 0,0 UV-I 0 W/m -4,6 C -5,2 C 6,4 km/h (2 Bft) 91,30 %
11.12.2019 18:28 -3,3 C 91 % 1013,5 hPa 0,0 l/m 4,8 km/h (1 Bft) O-SO 112 0 min 0,000 mm 0,0 UV-I 0 W/m -4,6 C -5,2 C 6,4 km/h (2 Bft) 100,00 %
11.12.2019 18:27 -3,3 C 91 % 1013,5 hPa 0,0 l/m 4,8 km/h (1 Bft) O-SO 112 0 min 0,000 mm 0,0 UV-I 0 W/m -4,6 C -5,2 C 6,4 km/h (2 Bft) 100,00 %
11.12.2019 18:26 -3,3 C 91 % 1013,6 hPa 0,0 l/m 4,8 km/h (1 Bft) O-SO 112 0 min 0,000 mm 0,0 UV-I 0 W/m -4,6 C -5,2 C 6,4 km/h (2 Bft) 100,00 %
11.12.2019 18:25 -3,3 C 91 % 1013,6 hPa 0,0 l/m 4,8 km/h (1 Bft) O-SO 112 0 min 0,000 mm 0,0 UV-I 0 W/m -4,6 C -5,2 C 6,4 km/h (2 Bft) 100,00 %
11.12.2019 18:24 -3,3 C 91 % 1013,6 hPa 0,0 l/m 4,8 km/h (1 Bft) O-SO 112 0 min 0,000 mm 0,0 UV-I 0 W/m -4,6 C -5,2 C 4,8 km/h (1 Bft) 100,00 %
11.12.2019 18:23 -3,3 C 91 % 1013,7 hPa 0,0 l/m 3,2 km/h (1 Bft) O-SO 112 0 min 0,000 mm 0,0 UV-I 0 W/m -4,6 C -3,3 C 4,8 km/h (1 Bft) 100,00 %
11.12.2019 18:22 -3,3 C 91 % 1013,7 hPa 0,0 l/m 3,2 km/h (1 Bft) O-SO 112 0 min 0,000 mm 0,0 UV-I 0 W/m -4,6 C -3,3 C 4,8 km/h (1 Bft) 95,65 %
11.12.2019 18:21 -3,3 C 91 % 1013,7 hPa 0,0 l/m 3,2 km/h (1 Bft) O-SO 112 0 min 0,000 mm 0,0 UV-I 0 W/m -4,6 C -3,3 C 4,8 km/h (1 Bft) 100,00 %
11.12.2019 18:20 -3,3 C 91 % 1013,7 hPa 0,0 l/m 3,2 km/h (1 Bft) O-SO 112 0 min 0,000 mm 0,0 UV-I 0 W/m -4,6 C -3,3 C 4,8 km/h (1 Bft) 100,00 %
11.12.2019 18:19 -3,3 C 91 % 1013,7 hPa 0,0 l/m 3,2 km/h (1 Bft) O-SO 112 0 min 0,000 mm 0,0 UV-I 0 W/m -4,6 C -3,3 C 4,8 km/h (1 Bft) 100,00 %
11.12.2019 18:18 -3,3 C 91 % 1013,7 hPa 0,0 l/m 4,8 km/h (1 Bft) O-SO 112 0 min 0,000 mm 0,0 UV-I 0 W/m -4,6 C -5,2 C 4,8 km/h (1 Bft) 95,65 %
11.12.2019 18:17 -3,3 C 91 % 1013,7 hPa 0,0 l/m 4,8 km/h (1 Bft) O-SO 112 0 min 0,000 mm 0,0 UV-I 0 W/m -4,6 C -5,2 C 4,8 km/h (1 Bft) 100,00 %
11.12.2019 18:16 -3,3 C 91 % 1013,7 hPa 0,0 l/m 3,2 km/h (1 Bft) O-SO 112 0 min 0,000 mm 0,0 UV-I 0 W/m -4,6 C -3,3 C 4,8 km/h (1 Bft) 100,00 %
11.12.2019 18:15 -3,4 C 91 % 1013,7 hPa 0,0 l/m 3,2 km/h (1 Bft) O-SO 112 0 min 0,000 mm 0,0 UV-I 0 W/m -4,7 C -3,4 C 4,8 km/h (1 Bft) 95,65 %
11.12.2019 18:14 -3,3 C 91 % 1013,7 hPa 0,0 l/m 3,2 km/h (1 Bft) O-SO 112 0 min 0,000 mm 0,0 UV-I 0 W/m -4,6 C -3,3 C 3,2 km/h (1 Bft) 100,00 %
11.12.2019 18:13 -3,4 C 91 % 1013,7 hPa 0,0 l/m 3,2 km/h (1 Bft) O-SO 112 0 min 0,000 mm 0,0 UV-I 0 W/m -4,7 C -3,4 C 3,2 km/h (1 Bft) 100,00 %
11.12.2019 18:12 -3,3 C 91 % 1013,7 hPa 0,0 l/m 3,2 km/h (1 Bft) O-SO 112 0 min 0,000 mm 0,0 UV-I 0 W/m -4,6 C -3,3 C 4,8 km/h (1 Bft) 100,00 %
11.12.2019 18:11 -3,3 C 91 % 1013,7 hPa 0,0 l/m 4,8 km/h (1 Bft) O-SO 112 0 min 0,000 mm 0,0 UV-I 0 W/m -4,6 C -5,2 C 4,8 km/h (1 Bft) 100,00 %
11.12.2019 18:10 -3,4 C 91 % 1013,8 hPa 0,0 l/m 4,8 km/h (1 Bft) O-SO 112 0 min 0,000 mm 0,0 UV-I 0 W/m -4,7 C -5,3 C 4,8 km/h (1 Bft) 95,65 %
11.12.2019 18:09 -3,4 C 91 % 1013,7 hPa 0,0 l/m 4,8 km/h (1 Bft) O-SO 112 0 min 0,000 mm 0,0 UV-I 0 W/m -4,7 C -5,3 C 4,8 km/h (1 Bft) 100,00 %
11.12.2019 18:08 -3,3 C 91 % 1013,7 hPa 0,0 l/m 3,2 km/h (1 Bft) O-SO 112 0 min 0,000 mm 0,0 UV-I 0 W/m -4,6 C -3,3 C 4,8 km/h (1 Bft) 100,00 %
11.12.2019 18:07 -3,4 C 91 % 1013,8 hPa 0,0 l/m 4,8 km/h (1 Bft) O-SO 112 0 min 0,000 mm 0,0 UV-I 0 W/m -4,7 C -5,3 C 4,8 km/h (1 Bft) 100,00 %
11.12.2019 18:06 -3,4 C 91 % 1013,8 hPa 0,0 l/m 4,8 km/h (1 Bft) O-SO 112 0 min 0,000 mm 0,0 UV-I 0 W/m -4,7 C -5,3 C 4,8 km/h (1 Bft) 100,00 %
11.12.2019 18:05 -3,4 C 91 % 1013,8 hPa 0,0 l/m 4,8 km/h (1 Bft) O-SO 112 0 min 0,000 mm 0,0 UV-I 0 W/m -4,7 C -5,3 C 4,8 km/h (1 Bft) 95,65 %
11.12.2019 18:04 -3,3 C 91 % 1013,8 hPa 0,0 l/m 4,8 km/h (1 Bft) O-SO 112 0 min 0,000 mm 0,0 UV-I 0 W/m -4,6 C -5,2 C 4,8 km/h (1 Bft) 100,00 %
11.12.2019 18:03 -3,4 C 91 % 1013,8 hPa 0,0 l/m 3,2 km/h (1 Bft) O-SO 112 0 min 0,000 mm 0,0 UV-I 0 W/m -4,7 C -3,4 C 4,8 km/h (1 Bft) 95,65 %
11.12.2019 18:02 -3,3 C 91 % 1013,7 hPa 0,0 l/m 3,2 km/h (1 Bft) O-SO 112 0 min 0,000 mm 0,0 UV-I 0 W/m -4,6 C -3,3 C 4,8 km/h (1 Bft) 100,00 %
11.12.2019 18:01 -3,4 C 91 % 1013,7 hPa 0,0 l/m 3,2 km/h (1 Bft) O-SO 112 0 min 0,000 mm 0,0 UV-I 0 W/m -4,7 C -3,4 C 4,8 km/h (1 Bft) 100,00 %
11.12.2019 18:00 -3,4 C 91 % 1013,8 hPa 0,0 l/m 0,0 km/h (0 Bft) O-SO 112 0 min 0,000 mm 0,0 UV-I 0 W/m -4,7 C -3,4 C 3,2 km/h (1 Bft) 95,65 %
11.12.2019 17:59 -3,4 C 91 % 1013,7 hPa 0,0 l/m 0,0 km/h (0 Bft) N 0 0 min 0,000 mm 0,0 UV-I 0 W/m -4,7 C -3,4 C 0,0 km/h (0 Bft) 100,00 %
11.12.2019 17:58 -3,4 C 91 % 1013,8 hPa 0,0 l/m 0,0 km/h (0 Bft) N 0 0 min 0,000 mm 0,0 UV-I 0 W/m -4,7 C -3,4 C 0,0 km/h (0 Bft) 95,65 %
11.12.2019 17:57 -3,4 C 91 % 1013,9 hPa 0,0 l/m 0,0 km/h (0 Bft) N 0 0 min 0,000 mm 0,0 UV-I 0 W/m -4,7 C -3,4 C 0,0 km/h (0 Bft) 100,00 %
11.12.2019 17:56 -3,4 C 91 % 1013,8 hPa 0,0 l/m 0,0 km/h (0 Bft) N 0 0 min 0,000 mm 0,0 UV-I 0 W/m -4,7 C -3,4 C 0,0 km/h (0 Bft) 100,00 %
11.12.2019 17:55 -3,4 C 91 % 1013,8 hPa 0,0 l/m 0,0 km/h (0 Bft) N 0 0 min 0,000 mm 0,0 UV-I 0 W/m -4,7 C -3,4 C 0,0 km/h (0 Bft) 100,00 %
11.12.2019 17:54 -3,4 C 91 % 1013,9 hPa 0,0 l/m 0,0 km/h (0 Bft) N 0 0 min 0,000 mm 0,0 UV-I 0 W/m -4,7 C -3,4 C 0,0 km/h (0 Bft) 100,00 %
11.12.2019 17:53 -3,4 C 91 % 1013,9 hPa 0,0 l/m 0,0 km/h (0 Bft) O-SO 112 0 min 0,000 mm 0,0 UV-I 0 W/m -4,7 C -3,4 C 1,6 km/h (1 Bft) 100,00 %
11.12.2019 17:52 -3,4 C 91 % 1013,9 hPa 0,0 l/m 1,6 km/h (1 Bft) O-SO 112 0 min 0,000 mm 0,0 UV-I 0 W/m -4,7 C -3,4 C 3,2 km/h (1 Bft) 100,00 %
11.12.2019 17:51 -3,4 C 91 % 1013,9 hPa 0,0 l/m 0,0 km/h (0 Bft) O-SO 112 0 min 0,000 mm 0,0 UV-I 0 W/m -4,7 C -3,4 C 1,6 km/h (1 Bft) 95,65 %
11.12.2019 17:50 -3,5 C 91 % 1013,9 hPa 0,0 l/m 0,0 km/h (0 Bft) O-SO 112 0 min 0,000 mm 0,0 UV-I 0 W/m -4,8 C -3,5 C 1,6 km/h (1 Bft) 100,00 %
11.12.2019 17:49 -3,4 C 91 % 1013,8 hPa 0,0 l/m 1,6 km/h (1 Bft) O-SO 112 0 min 0,000 mm 0,0 UV-I 0 W/m -4,7 C -3,4 C 3,2 km/h (1 Bft) 95,65 %
11.12.2019 17:48 -3,4 C 91 % 1013,9 hPa 0,0 l/m 3,2 km/h (1 Bft) O-SO 112 0 min 0,000 mm 0,0 UV-I 0 W/m -4,7 C -3,4 C 4,8 km/h (1 Bft) 100,00 %
11.12.2019 17:47 -3,4 C 91 % 1013,9 hPa 0,0 l/m 4,8 km/h (1 Bft) O-SO 112 0 min 0,000 mm 0,0 UV-I 0 W/m -4,7 C -5,3 C 6,4 km/h (2 Bft) 100,00 %
11.12.2019 17:46 -3,4 C 91 % 1013,9 hPa 0,0 l/m 4,8 km/h (1 Bft) O-SO 112 0 min 0,000 mm 0,0 UV-I 0 W/m -4,7 C -5,3 C 6,4 km/h (2 Bft) 91,30 %
11.12.2019 17:45 -3,4 C 91 % 1013,9 hPa 0,0 l/m 4,8 km/h (1 Bft) O-SO 112 0 min 0,000 mm 0,0 UV-I 0 W/m -4,7 C -5,3 C 6,4 km/h (2 Bft) 100,00 %
11.12.2019 17:44 -3,5 C 91 % 1013,9 hPa 0,0 l/m 4,8 km/h (1 Bft) O-SO 112 0 min 0,000 mm 0,0 UV-I 0 W/m -4,8 C -5,5 C 6,4 km/h (2 Bft) 95,65 %
11.12.2019 17:43 -3,4 C 91 % 1013,9 hPa 0,0 l/m 6,4 km/h (2 Bft) O-SO 112 0 min 0,000 mm 0,0 UV-I 0 W/m -4,7 C -6,1 C 6,4 km/h (2 Bft) 100,00 %
11.12.2019 17:42 -3,4 C 91 % 1014,0 hPa 0,0 l/m 6,4 km/h (2 Bft) O-SO 112 0 min 0,000 mm 0,0 UV-I 0 W/m -4,7 C -6,1 C 6,4 km/h (2 Bft) 100,00 %
11.12.2019 17:41 -3,4 C 91 % 1014,0 hPa 0,0 l/m 4,8 km/h (1 Bft) O-SO 112 0 min 0,000 mm 0,0 UV-I 0 W/m -4,7 C -5,3 C 8,0 km/h (2 Bft) 100,00 %
11.12.2019 17:40 -3,4 C 91 % 1014,1 hPa 0,0 l/m 4,8 km/h (1 Bft) O-SO 112 0 min 0,000 mm 0,0 UV-I 0 W/m -4,7 C -5,3 C 6,4 km/h (2 Bft) 100,00 %
11.12.2019 17:39 -3,4 C 91 % 1014,0 hPa 0,0 l/m 4,8 km/h (1 Bft) O-SO 112 0 min 0,000 mm 0,0 UV-I 0 W/m -4,7 C -5,3 C 4,8 km/h (1 Bft) 100,00 %
11.12.2019 17:38 -3,4 C 91 % 1014,0 hPa 0,0 l/m 3,2 km/h (1 Bft) O-SO 112 0 min 0,000 mm 0,0 UV-I 0 W/m -4,7 C -3,4 C 4,8 km/h (1 Bft) 91,30 %
11.12.2019 17:37 -3,4 C 91 % 1014,1 hPa 0,0 l/m 3,2 km/h (1 Bft) O-SO 112 0 min 0,000 mm 0,0 UV-I 0 W/m -4,7 C -3,4 C 4,8 km/h (1 Bft) 100,00 %
11.12.2019 17:36 -3,4 C 91 % 1014,0 hPa 0,0 l/m 3,2 km/h (1 Bft) O-SO 112 0 min 0,000 mm 0,0 UV-I 0 W/m -4,7 C -3,4 C 4,8 km/h (1 Bft) 95,65 %
11.12.2019 17:35 -3,4 C 91 % 1014,0 hPa 0,0 l/m 3,2 km/h (1 Bft) O-SO 112 0 min 0,000 mm 0,0 UV-I 0 W/m -4,7 C -3,4 C 4,8 km/h (1 Bft) 100,00 %
11.12.2019 17:34 -3,4 C 91 % 1014,1 hPa 0,0 l/m 3,2 km/h (1 Bft) O-SO 112 0 min 0,000 mm 0,0 UV-I 0 W/m -4,7 C -3,4 C 4,8 km/h (1 Bft) 95,65 %
11.12.2019 17:33 -3,4 C 91 % 1014,1 hPa 0,0 l/m 3,2 km/h (1 Bft) O-SO 112 0 min 0,000 mm 0,0 UV-I 0 W/m -4,7 C -3,4 C 4,8 km/h (1 Bft) 100,00 %
11.12.2019 17:32 -3,4 C 91 % 1014,0 hPa 0,0 l/m 1,6 km/h (1 Bft) O-SO 112 0 min 0,000 mm 0,0 UV-I 0 W/m -4,7 C -3,4 C 3,2 km/h (1 Bft) 95,65 %
11.12.2019 17:31 -3,4 C 91 % 1014,1 hPa 0,0 l/m 1,6 km/h (1 Bft) O-SO 112 0 min 0,000 mm 0,0 UV-I 0 W/m -4,7 C -3,4 C 3,2 km/h (1 Bft) 100,00 %
11.12.2019 17:30 -3,4 C 91 % 1014,1 hPa 0,0 l/m 0,0 km/h (0 Bft) O-SO 112 0 min 0,000 mm 0,0 UV-I 0 W/m -4,7 C -3,4 C 1,6 km/h (1 Bft) 100,00 %
11.12.2019 17:29 -3,4 C 91 % 1014,1 hPa 0,0 l/m 0,0 km/h (0 Bft) O-SO 112 0 min 0,000 mm 0,0 UV-I 0 W/m -4,7 C -3,4 C 1,6 km/h (1 Bft) 100,00 %
11.12.2019 17:28 -3,4 C 91 % 1014,1 hPa 0,0 l/m 1,6 km/h (1 Bft) O-SO 112 0 min 0,000 mm 0,0 UV-I 0 W/m -4,7 C -3,4 C 1,6 km/h (1 Bft) 100,00 %
11.12.2019 17:27 -3,4 C 91 % 1014,2 hPa 0,0 l/m 1,6 km/h (1 Bft) O-SO 112 0 min 0,000 mm 0,0 UV-I 0 W/m -4,7 C -3,4 C 3,2 km/h (1 Bft) 95,65 %
11.12.2019 17:26 -3,4 C 91 % 1014,1 hPa 0,0 l/m 3,2 km/h (1 Bft) O-SO 112 0 min 0,000 mm 0,0 UV-I 0 W/m -4,7 C -3,4 C 4,8 km/h (1 Bft) 100,00 %
11.12.2019 17:25 -3,4 C 91 % 1014,1 hPa 0,0 l/m 3,2 km/h (1 Bft) O-SO 112 0 min 0,000 mm 0,0 UV-I 0 W/m -4,7 C -3,4 C 4,8 km/h (1 Bft) 100,00 %
11.12.2019 17:24 -3,3 C 91 % 1014,2 hPa 0,0 l/m 3,2 km/h (1 Bft) O-SO 112 0 min 0,000 mm 0,0 UV-I 0 W/m -4,6 C -3,3 C 4,8 km/h (1 Bft) 100,00 %
11.12.2019 17:23 -3,3 C 91 % 1014,2 hPa 0,0 l/m 3,2 km/h (1 Bft) O-SO 112 0 min 0,000 mm 0,0 UV-I 0 W/m -4,6 C -3,3 C 4,8 km/h (1 Bft) 100,00 %
11.12.2019 17:22 -3,3 C 91 % 1014,2 hPa 0,0 l/m 3,2 km/h (1 Bft) O-SO 112 0 min 0,000 mm 0,0 UV-I 0 W/m -4,6 C -3,3 C 4,8 km/h (1 Bft) 100,00 %
11.12.2019 17:21 -3,3 C 91 % 1014,1 hPa 0,0 l/m 4,8 km/h (1 Bft) O-SO 112 0 min 0,000 mm 0,0 UV-I 0 W/m -4,6 C -5,2 C 4,8 km/h (1 Bft) 100,00 %
11.12.2019 17:20 -3,3 C 91 % 1014,2 hPa 0,0 l/m 4,8 km/h (1 Bft) O-SO 112 0 min 0,000 mm 0,0 UV-I 0 W/m -4,6 C -5,2 C 4,8 km/h (1 Bft) 100,00 %
11.12.2019 17:19 -3,3 C 91 % 1014,2 hPa 0,0 l/m 4,8 km/h (1 Bft) O-SO 112 0 min 0,000 mm 0,0 UV-I 0 W/m -4,6 C -5,2 C 4,8 km/h (1 Bft) 95,65 %
11.12.2019 17:18 -3,3 C 91 % 1014,2 hPa 0,0 l/m 4,8 km/h (1 Bft) O-SO 112 0 min 0,000 mm 0,0 UV-I 0 W/m -4,6 C -5,2 C 6,4 km/h (2 Bft) 95,65 %
11.12.2019 17:17 -3,3 C 91 % 1014,1 hPa 0,0 l/m 4,8 km/h (1 Bft) O-SO 112 0 min 0,000 mm 0,0 UV-I 0 W/m -4,6 C -5,2 C 6,4 km/h (2 Bft) 100,00 %
11.12.2019 17:16 -3,3 C 91 % 1014,2 hPa 0,0 l/m 4,8 km/h (1 Bft) O-SO 112 0 min 0,000 mm 0,0 UV-I 0 W/m -4,6 C -5,2 C 6,4 km/h (2 Bft) 100,00 %
11.12.2019 17:15 -3,3 C 91 % 1014,2 hPa 0,0 l/m 6,4 km/h (2 Bft) O-SO 112 0 min 0,000 mm 0,0 UV-I 0 W/m -4,6 C -6,0 C 6,4 km/h (2 Bft) 95,65 %
11.12.2019 17:14 -3,3 C 91 % 1014,0 hPa 0,0 l/m 4,8 km/h (1 Bft) O-SO 112 0 min 0,000 mm 0,0 UV-I 0 W/m -4,6 C -5,2 C 6,4 km/h (2 Bft) 100,00 %
11.12.2019 17:13 -3,3 C 91 % 1014,2 hPa 0,0 l/m 4,8 km/h (1 Bft) O-SO 112 0 min 0,000 mm 0,0 UV-I 0 W/m -4,6 C -5,2 C 6,4 km/h (2 Bft) 100,00 %
11.12.2019 17:12 -3,3 C 91 % 1014,2 hPa 0,0 l/m 6,4 km/h (2 Bft) O-SO 112 0 min 0,000 mm 0,0 UV-I 0 W/m -4,6 C -6,0 C 8,0 km/h (2 Bft) 100,00 %
11.12.2019 17:11 -3,3 C 91 % 1014,2 hPa 0,0 l/m 6,4 km/h (2 Bft) O-SO 112 0 min 0,000 mm 0,0 UV-I 0 W/m -4,6 C -6,0 C 6,4 km/h (2 Bft) 100,00 %
11.12.2019 17:10 -3,3 C 91 % 1014,2 hPa 0,0 l/m 6,4 km/h (2 Bft) O-SO 112 0 min 0,000 mm 0,0 UV-I 0 W/m -4,6 C -6,0 C 8,0 km/h (2 Bft) 86,96 %
11.12.2019 17:09 -3,3 C 91 % 1014,3 hPa 0,0 l/m 6,4 km/h (2 Bft) O-SO 112 0 min 0,000 mm 0,0 UV-I 0 W/m -4,6 C -6,0 C 6,4 km/h (2 Bft) 100,00 %
11.12.2019 17:08 -3,2 C 91 % 1014,3 hPa 0,0 l/m 4,8 km/h (1 Bft) O-SO 112 0 min 0,000 mm 0,0 UV-I 0 W/m -4,5 C -5,1 C 6,4 km/h (2 Bft) 91,30 %
11.12.2019 17:07 -3,2 C 91 % 1014,3 hPa 0,0 l/m 4,8 km/h (1 Bft) O-SO 112 0 min 0,000 mm 0,0 UV-I 0 W/m -4,5 C -5,1 C 6,4 km/h (2 Bft) 100,00 %
11.12.2019 17:06 -3,2 C 91 % 1014,3 hPa 0,0 l/m 6,4 km/h (2 Bft) O-SO 112 0 min 0,000 mm 0,0 UV-I 0 W/m -4,5 C -5,9 C 6,4 km/h (2 Bft) 100,00 %
11.12.2019 17:05 -3,2 C 91 % 1014,4 hPa 0,0 l/m 4,8 km/h (1 Bft) O-SO 112 0 min 0,000 mm 0,0 UV-I 0 W/m -4,5 C -5,1 C 6,4 km/h (2 Bft) 100,00 %
11.12.2019 17:04 -3,2 C 91 % 1014,4 hPa 0,0 l/m 4,8 km/h (1 Bft) O-SO 112 0 min 0,000 mm 0,0 UV-I 0 W/m -4,5 C -5,1 C 6,4 km/h (2 Bft) 100,00 %
11.12.2019 17:03 -3,2 C 91 % 1014,3 hPa 0,0 l/m 6,4 km/h (2 Bft) O-SO 112 0 min 0,000 mm 0,0 UV-I 0 W/m -4,5 C -5,9 C 8,0 km/h (2 Bft) 95,65 %
11.12.2019 17:02 -3,2 C 91 % 1014,4 hPa 0,0 l/m 6,4 km/h (2 Bft) O-SO 112 0 min 0,000 mm 0,0 UV-I 0 W/m -4,5 C -5,9 C 8,0 km/h (2 Bft) 100,00 %
11.12.2019 17:01 -3,2 C 91 % 1014,4 hPa 0,0 l/m 6,4 km/h (2 Bft) O-SO 112 0 min 0,000 mm 0,0 UV-I 0 W/m -4,5 C -5,9 C 8,0 km/h (2 Bft) 100,00 %
11.12.2019 17:00 -3,2 C 91 % 1014,4 hPa 0,0 l/m 8,0 km/h (2 Bft) O-SO 112 0 min 0,000 mm 0,0 UV-I 0 W/m -4,5 C -6,5 C 8,0 km/h (2 Bft) 91,30 %
11.12.2019 16:59 -3,2 C 91 % 1014,4 hPa 0,0 l/m 8,0 km/h (2 Bft) O-SO 112 0 min 0,000 mm 0,0 UV-I 0 W/m -4,5 C -6,5 C 11,3 km/h (2 Bft) 95,65 %
11.12.2019 16:58 -3,2 C 91 % 1014,5 hPa 0,0 l/m 8,0 km/h (2 Bft) O-SO 112 0 min 0,000 mm 0,0 UV-I 0 W/m -4,5 C -6,5 C 11,3 km/h (2 Bft) 100,00 %
11.12.2019 16:57 -3,2 C 91 % 1014,5 hPa 0,0 l/m 9,7 km/h (2 Bft) O-SO 112 0 min 0,000 mm 0,0 UV-I 0 W/m -4,5 C -7,0 C 11,3 km/h (2 Bft) 100,00 %
11.12.2019 16:56 -3,2 C 91 % 1014,5 hPa 0,0 l/m 11,3 km/h (2 Bft) O-SO 112 0 min 0,000 mm 0,0 UV-I 0 W/m -4,5 C -7,5 C 11,3 km/h (2 Bft) 100,00 %
11.12.2019 16:55 -3,2 C 91 % 1014,5 hPa 0,0 l/m 9,7 km/h (2 Bft) O-SO 112 0 min 0,000 mm 0,0 UV-I 0 W/m -4,5 C -7,0 C 11,3 km/h (2 Bft) 95,65 %
11.12.2019 16:54 -3,2 C 91 % 1014,5 hPa 0,0 l/m 9,7 km/h (2 Bft) O-SO 112 0 min 0,000 mm 0,0 UV-I 0 W/m -4,5 C -7,0 C 11,3 km/h (2 Bft) 100,00 %
11.12.2019 16:53 -3,2 C 91 % 1014,6 hPa 0,0 l/m 9,7 km/h (2 Bft) O-SO 112 0 min 0,000 mm 0,0 UV-I 0 W/m -4,5 C -7,0 C 11,3 km/h (2 Bft) 100,00 %
11.12.2019 16:52 -3,2 C 91 % 1014,5 hPa 0,0 l/m 8,0 km/h (2 Bft) O-SO 112 0 min 0,000 mm 0,0 UV-I 0 W/m -4,5 C -6,5 C 11,3 km/h (2 Bft) 100,00 %
11.12.2019 16:51 -3,2 C 91 % 1014,6 hPa 0,0 l/m 8,0 km/h (2 Bft) O-SO 112 0 min 0,000 mm 0,0 UV-I 0 W/m -4,5 C -6,5 C 11,3 km/h (2 Bft) 100,00 %
11.12.2019 16:50 -3,1 C 91 % 1014,4 hPa 0,0 l/m 8,0 km/h (2 Bft) O-SO 112 0 min 0,000 mm 0,0 UV-I 0 W/m -4,4 C -6,4 C 8,0 km/h (2 Bft) 100,00 %
11.12.2019 16:49 -3,1 C 91 % 1014,5 hPa 0,0 l/m 8,0 km/h (2 Bft) O-SO 112 0 min 0,000 mm 0,0 UV-I 0 W/m -4,4 C -6,4 C 8,0 km/h (2 Bft) 95,65 %
11.12.2019 16:48 -3,1 C 91 % 1014,5 hPa 0,0 l/m 8,0 km/h (2 Bft) O-SO 112 0 min 0,000 mm 0,0 UV-I 0 W/m -4,4 C -6,4 C 8,0 km/h (2 Bft) 95,65 %
11.12.2019 16:47 -3,1 C 91 % 1014,5 hPa 0,0 l/m 8,0 km/h (2 Bft) O-SO 112 0 min 0,000 mm 0,0 UV-I 0 W/m -4,4 C -6,4 C 8,0 km/h (2 Bft) 100,00 %
11.12.2019 16:46 -3,1 C 91 % 1014,5 hPa 0,0 l/m 8,0 km/h (2 Bft) O-SO 112 0 min 0,000 mm 0,0 UV-I 0 W/m -4,4 C -6,4 C 11,3 km/h (2 Bft) 100,00 %
11.12.2019 16:45 -3,1 C 91 % 1014,4 hPa 0,0 l/m 8,0 km/h (2 Bft) O-SO 112 0 min 0,000 mm 0,0 UV-I 0 W/m -4,4 C -6,4 C 11,3 km/h (2 Bft) 100,00 %
11.12.2019 16:44 -3,1 C 91 % 1014,5 hPa 0,0 l/m 8,0 km/h (2 Bft) O-SO 112 0 min 0,000 mm 0,0 UV-I 0 W/m -4,4 C -6,4 C 8,0 km/h (2 Bft) 100,00 %
11.12.2019 16:43 -3,0 C 91 % 1014,4 hPa 0,0 l/m 8,0 km/h (2 Bft) O-SO 112 0 min 0,000 mm 0,0 UV-I 0 W/m -4,3 C -6,3 C 8,0 km/h (2 Bft) 95,65 %
11.12.2019 16:42 -3,0 C 91 % 1014,4 hPa 0,0 l/m 8,0 km/h (2 Bft) O-SO 112 0 min 0,000 mm 0,0 UV-I 0 W/m -4,3 C -6,3 C 8,0 km/h (2 Bft) 100,00 %
11.12.2019 16:41 -3,0 C 91 % 1014,4 hPa 0,0 l/m 8,0 km/h (2 Bft) O-SO 112 0 min 0,000 mm 0,0 UV-I 0 W/m -4,3 C -6,3 C 8,0 km/h (2 Bft) 100,00 %
11.12.2019 16:40 -3,0 C 91 % 1014,4 hPa 0,0 l/m 8,0 km/h (2 Bft) O-SO 112 0 min 0,000 mm 0,0 UV-I 0 W/m -4,3 C -6,3 C 11,3 km/h (2 Bft) 95,65 %
11.12.2019 16:39 -3,0 C 91 % 1014,3 hPa 0,0 l/m 8,0 km/h (2 Bft) O-SO 112 0 min 0,000 mm 0,0 UV-I 0 W/m -4,3 C -6,3 C 11,3 km/h (2 Bft) 100,00 %
11.12.2019 16:38 -2,9 C 91 % 1014,4 hPa 0,0 l/m 8,0 km/h (2 Bft) O-SO 112 0 min 0,000 mm 0,0 UV-I 0 W/m -4,2 C -6,1 C 8,0 km/h (2 Bft) 100,00 %
11.12.2019 16:37 -2,9 C 91 % 1014,4 hPa 0,0 l/m 8,0 km/h (2 Bft) O-SO 112 0 min 0,000 mm 0,0 UV-I 0 W/m -4,2 C -6,1 C 11,3 km/h (2 Bft) 100,00 %
11.12.2019 16:36 -2,9 C 91 % 1014,3 hPa 0,0 l/m 9,7 km/h (2 Bft) O-SO 112 0 min 0,000 mm 0,0 UV-I 0 W/m -4,2 C -6,7 C 11,3 km/h (2 Bft) 100,00 %
11.12.2019 16:35 -3,0 C 91 % 1014,3 hPa 0,0 l/m 9,7 km/h (2 Bft) O-SO 112 0 min 0,000 mm 0,0 UV-I 0 W/m -4,3 C -6,8 C 11,3 km/h (2 Bft) 95,65 %
11.12.2019 16:34 -2,9 C 90 % 1014,3 hPa 0,0 l/m 11,3 km/h (2 Bft) O-SO 112 0 min 0,000 mm 0,0 UV-I 0 W/m -4,3 C -7,1 C 11,3 km/h (2 Bft) 100,00 %
11.12.2019 16:33 -2,9 C 90 % 1014,3 hPa 0,0 l/m 9,7 km/h (2 Bft) O-SO 112 0 min 0,000 mm 0,0 UV-I 0 W/m -4,3 C -6,7 C 9,7 km/h (2 Bft) 100,00 %
11.12.2019 16:32 -2,9 C 90 % 1014,4 hPa 0,0 l/m 8,0 km/h (2 Bft) O-SO 112 0 min 0,000 mm 0,0 UV-I 0 W/m -4,3 C -6,1 C 9,7 km/h (2 Bft) 100,00 %
11.12.2019 16:31 -2,9 C 90 % 1014,3 hPa 0,0 l/m 6,4 km/h (2 Bft) O-SO 112 0 min 0,000 mm 0,0 UV-I 0 W/m -4,3 C -5,5 C 9,7 km/h (2 Bft) 100,00 %
11.12.2019 16:30 -2,9 C 90 % 1014,3 hPa 0,0 l/m 6,4 km/h (2 Bft) O-SO 112 0 min 0,000 mm 0,0 UV-I 0 W/m -4,3 C -5,5 C 6,4 km/h (2 Bft) 100,00 %
11.12.2019 16:29 -2,8 C 90 % 1014,3 hPa 0,0 l/m 4,8 km/h (1 Bft) O-SO 112 0 min 0,000 mm 0,0 UV-I 0 W/m -4,2 C -4,7 C 6,4 km/h (2 Bft) 95,65 %
11.12.2019 16:28 -2,8 C 90 % 1014,4 hPa 0,0 l/m 4,8 km/h (1 Bft) O-SO 112 0 min 0,000 mm 0,0 UV-I 0 W/m -4,2 C -4,7 C 4,8 km/h (1 Bft) 100,00 %
11.12.2019 16:27 -2,8 C 90 % 1014,3 hPa 0,0 l/m 4,8 km/h (1 Bft) O-SO 112 0 min 0,000 mm 0,0 UV-I 0 W/m -4,2 C -4,7 C 4,8 km/h (1 Bft) 100,00 %
11.12.2019 16:26 -2,8 C 90 % 1014,4 hPa 0,0 l/m 4,8 km/h (1 Bft) O-SO 112 0 min 0,000 mm 0,0 UV-I 0 W/m -4,2 C -4,7 C 6,4 km/h (2 Bft) 100,00 %
11.12.2019 16:25 -2,8 C 90 % 1014,4 hPa 0,0 l/m 4,8 km/h (1 Bft) O-SO 112 0 min 0,000 mm 0,0 UV-I 0 W/m -4,2 C -4,7 C 6,4 km/h (2 Bft) 100,00 %
11.12.2019 16:24 -2,8 C 90 % 1014,4 hPa 0,0 l/m 4,8 km/h (1 Bft) O-SO 112 0 min 0,000 mm 0,0 UV-I 0 W/m -4,2 C -4,7 C 6,4 km/h (2 Bft) 95,65 %
11.12.2019 16:23 -2,8 C 90 % 1014,4 hPa 0,0 l/m 6,4 km/h (2 Bft) O-SO 112 0 min 0,000 mm 0,0 UV-I 0 W/m -4,2 C -5,4 C 6,4 km/h (2 Bft) 100,00 %
11.12.2019 16:22 -2,8 C 90 % 1014,5 hPa 0,0 l/m 6,4 km/h (2 Bft) O-SO 112 0 min 0,000 mm 0,0 UV-I 0 W/m -4,2 C -5,4 C 6,4 km/h (2 Bft) 100,00 %
11.12.2019 16:21 -2,8 C 90 % 1014,4 hPa 0,0 l/m 8,0 km/h (2 Bft) O-SO 112 0 min 0,000 mm 0,0 UV-I 0 W/m -4,2 C -6,0 C 9,7 km/h (2 Bft) 100,00 %
11.12.2019 16:20 -2,7 C 90 % 1014,4 hPa 0,0 l/m 6,4 km/h (2 Bft) O-SO 112 0 min 0,000 mm 0,0 UV-I 0 W/m -4,1 C -5,3 C 9,7 km/h (2 Bft) 95,65 %
11.12.2019 16:19 -2,7 C 90 % 1014,4 hPa 0,0 l/m 8,0 km/h (2 Bft) O-SO 112 0 min 0,000 mm 0,0 UV-I 0 W/m -4,1 C -5,9 C 9,7 km/h (2 Bft) 100,00 %
11.12.2019 16:18 -2,7 C 90 % 1014,5 hPa 0,0 l/m 6,4 km/h (2 Bft) O-SO 112 0 min 0,000 mm 0,0 UV-I 0 W/m -4,1 C -5,3 C 9,7 km/h (2 Bft) 100,00 %
11.12.2019 16:17 -2,7 C 90 % 1014,5 hPa 0,0 l/m 6,4 km/h (2 Bft) O-SO 112 0 min 0,000 mm 0,0 UV-I 0 W/m -4,1 C -5,3 C 9,7 km/h (2 Bft) 91,30 %
11.12.2019 16:16 -2,7 C 89 % 1014,4 hPa 0,0 l/m 4,8 km/h (1 Bft) O-SO 112 0 min 0,000 mm 0,0 UV-I 0 W/m -4,3 C -4,5 C 6,4 km/h (2 Bft) 100,00 %
11.12.2019 16:15 -2,7 C 89 % 1014,5 hPa 0,0 l/m 4,8 km/h (1 Bft) O-SO 112 0 min 0,000 mm 0,0 UV-I 0 W/m -4,3 C -4,5 C 4,8 km/h (1 Bft) 95,65 %
11.12.2019 16:14 -2,6 C 89 % 1014,5 hPa 0,0 l/m 3,2 km/h (1 Bft) O-SO 112 0 min 0,000 mm 0,0 UV-I 0 W/m -4,2 C -2,6 C 4,8 km/h (1 Bft) 100,00 %
11.12.2019 16:13 -2,7 C 89 % 1014,4 hPa 0,0 l/m 3,2 km/h (1 Bft) O-SO 112 0 min 0,000 mm 0,0 UV-I 0 W/m -4,3 C -2,7 C 3,2 km/h (1 Bft) 100,00 %
11.12.2019 16:12 -2,6 C 89 % 1014,5 hPa 0,0 l/m 3,2 km/h (1 Bft) O-SO 112 0 min 0,000 mm 0,0 UV-I 0 W/m -4,2 C -2,6 C 3,2 km/h (1 Bft) 100,00 %
11.12.2019 16:11 -2,6 C 89 % 1014,5 hPa 0,0 l/m 3,2 km/h (1 Bft) O-SO 112 0 min 0,000 mm 0,0 UV-I 0 W/m -4,2 C -2,6 C 4,8 km/h (1 Bft) 100,00 %
11.12.2019 16:10 -2,6 C 89 % 1014,5 hPa 0,0 l/m 4,8 km/h (1 Bft) O-SO 112 0 min 0,000 mm 0,0 UV-I 0 W/m -4,2 C -4,4 C 4,8 km/h (1 Bft) 95,65 %
11.12.2019 16:09 -2,6 C 89 % 1014,5 hPa 0,0 l/m 6,4 km/h (2 Bft) O-SO 112 0 min 0,000 mm 0,0 UV-I 0 W/m -4,2 C -5,2 C 6,4 km/h (2 Bft) 100,00 %
11.12.2019 16:08 -2,6 C 89 % 1014,5 hPa 0,0 l/m 6,4 km/h (2 Bft) O-SO 112 0 min 0,000 mm 0,0 UV-I 0 W/m -4,2 C -5,2 C 9,7 km/h (2 Bft) 95,65 %
11.12.2019 16:07 -2,6 C 89 % 1014,5 hPa 0,0 l/m 8,0 km/h (2 Bft) O-SO 112 0 min 0,000 mm 0,0 UV-I 0 W/m -4,2 C -5,8 C 9,7 km/h (2 Bft) 100,00 %
11.12.2019 16:06 -2,6 C 89 % 1014,4 hPa 0,0 l/m 9,7 km/h (2 Bft) O-SO 112 0 min 0,000 mm 0,0 UV-I 0 W/m -4,2 C -6,3 C 11,3 km/h (2 Bft) 100,00 %
11.12.2019 16:05 -2,6 C 89 % 1014,4 hPa 0,0 l/m 9,7 km/h (2 Bft) O-SO 112 0 min 0,000 mm 0,0 UV-I 0 W/m -4,2 C -6,3 C 11,3 km/h (2 Bft) 100,00 %
11.12.2019 16:04 -2,6 C 89 % 1014,4 hPa 0,0 l/m 11,3 km/h (2 Bft) O-SO 112 0 min 0,000 mm 0,0 UV-I 0 W/m -4,2 C -6,8 C 12,9 km/h (3 Bft) 100,00 %
11.12.2019 16:03 -2,4 C 89 % 1014,5 hPa 0,0 l/m 11,3 km/h (2 Bft) O-SO 112 0 min 0,000 mm 0,0 UV-I 5 W/m -4,0 C -6,5 C 12,9 km/h (3 Bft) 95,65 %
11.12.2019 16:02 -2,4 C 89 % 1014,5 hPa 0,0 l/m 12,9 km/h (3 Bft) O-SO 112 0 min 0,000 mm 0,0 UV-I 5 W/m -4,0 C -6,9 C 12,9 km/h (3 Bft) 100,00 %
11.12.2019 16:01 -2,4 C 89 % 1014,4 hPa 0,0 l/m 12,9 km/h (3 Bft) O-SO 112 0 min 0,000 mm 0,0 UV-I 5 W/m -4,0 C -6,9 C 14,5 km/h (3 Bft) 100,00 %
11.12.2019 16:00 -2,4 C 89 % 1014,5 hPa 0,0 l/m 12,9 km/h (3 Bft) O-SO 112 0 min 0,025 mm 0,0 UV-I 7 W/m -4,0 C -6,9 C 14,5 km/h (3 Bft) 95,65 %
11.12.2019 15:59 -2,4 C 89 % 1014,5 hPa 0,0 l/m 11,3 km/h (2 Bft) O-SO 112 0 min 0,000 mm 0,0 UV-I 7 W/m -4,0 C -6,5 C 12,9 km/h (3 Bft) 100,00 %
11.12.2019 15:58 -2,4 C 89 % 1014,4 hPa 0,0 l/m 12,9 km/h (3 Bft) O-SO 112 0 min 0,000 mm 0,0 UV-I 7 W/m -4,0 C -6,9 C 12,9 km/h (3 Bft) 100,00 %
11.12.2019 15:57 -2,3 C 88 % 1014,5 hPa 0,0 l/m 11,3 km/h (2 Bft) O-SO 112 0 min 0,000 mm 0,0 UV-I 9 W/m -4,0 C -6,4 C 12,9 km/h (3 Bft) 100,00 %
11.12.2019 15:56 -2,3 C 88 % 1014,5 hPa 0,0 l/m 11,3 km/h (2 Bft) O-SO 112 0 min 0,000 mm 0,0 UV-I 9 W/m -4,0 C -6,4 C 12,9 km/h (3 Bft) 100,00 %
11.12.2019 15:55 -2,3 C 88 % 1014,5 hPa 0,0 l/m 11,3 km/h (2 Bft) O-SO 112 0 min 0,000 mm 0,0 UV-I 11 W/m -4,0 C -6,4 C 11,3 km/h (2 Bft) 100,00 %
11.12.2019 15:54 -2,3 C 88 % 1014,5 hPa 0,0 l/m 11,3 km/h (2 Bft) O-SO 112 0 min 0,000 mm 0,0 UV-I 11 W/m -4,0 C -6,4 C 12,9 km/h (3 Bft) 100,00 %
11.12.2019 15:53 -2,3 C 88 % 1014,5 hPa 0,0 l/m 11,3 km/h (2 Bft) O-SO 112 0 min 0,000 mm 0,0 UV-I 11 W/m -4,0 C -6,4 C 12,9 km/h (3 Bft) 95,65 %
11.12.2019 15:52 -2,2 C 88 % 1014,5 hPa 0,0 l/m 9,7 km/h (2 Bft) O-SO 112 0 min 0,000 mm 0,0 UV-I 12 W/m -3,9 C -5,9 C 11,3 km/h (2 Bft) 100,00 %
11.12.2019 15:51 -2,2 C 88 % 1014,5 hPa 0,0 l/m 11,3 km/h (2 Bft) O-SO 112 0 min 0,000 mm 0,0 UV-I 12 W/m -3,9 C -6,3 C 11,3 km/h (2 Bft) 100,00 %
11.12.2019 15:50 -2,2 C 88 % 1014,5 hPa 0,0 l/m 11,3 km/h (2 Bft) O-SO 112 0 min 0,000 mm 0,0 UV-I 14 W/m -3,9 C -6,3 C 11,3 km/h (2 Bft) 95,65 %
11.12.2019 15:49 -2,2 C 88 % 1014,5 hPa 0,0 l/m 9,7 km/h (2 Bft) O-SO 112 0 min 0,000 mm 0,0 UV-I 14 W/m -3,9 C -5,9 C 11,3 km/h (2 Bft) 100,00 %
11.12.2019 15:48 -2,2 C 88 % 1014,6 hPa 0,0 l/m 9,7 km/h (2 Bft) O-SO 112 0 min 0,000 mm 0,0 UV-I 16 W/m -3,9 C -5,9 C 11,3 km/h (2 Bft) 100,00 %
11.12.2019 15:47 -2,1 C 88 % 1014,6 hPa 0,0 l/m 9,7 km/h (2 Bft) O-SO 112 0 min 0,000 mm 0,0 UV-I 16 W/m -3,8 C -5,7 C 11,3 km/h (2 Bft) 100,00 %
11.12.2019 15:46 -2,1 C 88 % 1014,6 hPa 0,0 l/m 8,0 km/h (2 Bft) O-SO 112 0 min 0,000 mm 0,0 UV-I 16 W/m -3,8 C -5,2 C 9,7 km/h (2 Bft) 100,00 %
11.12.2019 15:45 -2,1 C 88 % 1014,6 hPa 0,0 l/m 6,4 km/h (2 Bft) O-SO 112 0 min 0,000 mm 0,0 UV-I 18 W/m -3,8 C -4,6 C 9,7 km/h (2 Bft) 100,00 %
11.12.2019 15:44 -2,1 C 88 % 1014,6 hPa 0,0 l/m 6,4 km/h (2 Bft) O-SO 112 0 min 0,000 mm 0,0 UV-I 18 W/m -3,8 C -4,6 C 9,7 km/h (2 Bft) 91,30 %
11.12.2019 15:43 -2,1 C 88 % 1014,7 hPa 0,0 l/m 6,4 km/h (2 Bft) O-SO 112 0 min 0,000 mm 0,0 UV-I 19 W/m -3,8 C -4,6 C 9,7 km/h (2 Bft) 95,65 %
11.12.2019 15:42 -2,1 C 87 % 1014,7 hPa 0,0 l/m 6,4 km/h (2 Bft) O-SO 112 0 min 0,000 mm 0,0 UV-I 19 W/m -4,0 C -4,6 C 9,7 km/h (2 Bft) 100,00 %
11.12.2019 15:41 -2,1 C 87 % 1014,6 hPa 0,0 l/m 4,8 km/h (1 Bft) O-SO 112 0 min 0,000 mm 0,0 UV-I 21 W/m -4,0 C -3,9 C 6,4 km/h (2 Bft) 95,65 %
11.12.2019 15:40 -2,1 C 87 % 1014,7 hPa 0,0 l/m 4,8 km/h (1 Bft) O-SO 112 0 min 0,000 mm 0,0 UV-I 21 W/m -4,0 C -3,9 C 6,4 km/h (2 Bft) 100,00 %
11.12.2019 15:39 -2,0 C 87 % 1014,7 hPa 0,0 l/m 4,8 km/h (1 Bft) O-SO 112 0 min 0,000 mm 0,0 UV-I 21 W/m -3,9 C -3,8 C 4,8 km/h (1 Bft) 91,30 %
11.12.2019 15:38 -2,0 C 87 % 1014,7 hPa 0,0 l/m 4,8 km/h (1 Bft) O-SO 112 0 min 0,000 mm 0,0 UV-I 23 W/m -3,9 C -3,8 C 6,4 km/h (2 Bft) 95,65 %
11.12.2019 15:37 -1,9 C 87 % 1014,7 hPa 0,0 l/m 4,8 km/h (1 Bft) O-SO 112 0 min 0,000 mm 0,0 UV-I 25 W/m -3,8 C -3,6 C 4,8 km/h (1 Bft) 100,00 %
11.12.2019 15:36 -1,9 C 87 % 1014,8 hPa 0,0 l/m 4,8 km/h (1 Bft) O-SO 112 0 min 0,000 mm 0,0 UV-I 25 W/m -3,8 C -3,6 C 4,8 km/h (1 Bft) 100,00 %
11.12.2019 15:35 -1,9 C 87 % 1014,8 hPa 0,0 l/m 4,8 km/h (1 Bft) O-SO 112 0 min 0,000 mm 0,0 UV-I 26 W/m -3,8 C -3,6 C 6,4 km/h (2 Bft) 100,00 %
11.12.2019 15:34 -1,9 C 87 % 1014,8 hPa 0,0 l/m 6,4 km/h (2 Bft) O-SO 112 0 min 0,000 mm 0,0 UV-I 26 W/m -3,8 C -4,4 C 6,4 km/h (2 Bft) 100,00 %
11.12.2019 15:33 -1,9 C 87 % 1014,8 hPa 0,0 l/m 4,8 km/h (1 Bft) O-SO 112 0 min 0,000 mm 0,0 UV-I 26 W/m -3,8 C -3,6 C 6,4 km/h (2 Bft) 100,00 %
11.12.2019 15:32 -1,9 C 87 % 1014,8 hPa 0,0 l/m 4,8 km/h (1 Bft) O-SO 112 0 min 0,000 mm 0,0 UV-I 28 W/m -3,8 C -3,6 C 6,4 km/h (2 Bft) 100,00 %
11.12.2019 15:31 -1,9 C 87 % 1014,8 hPa 0,0 l/m 4,8 km/h (1 Bft) O-SO 112 0 min 0,000 mm 0,0 UV-I 28 W/m -3,8 C -3,6 C 6,4 km/h (2 Bft) 95,65 %
11.12.2019 15:30 -1,8 C 87 % 1014,7 hPa 0,0 l/m 4,8 km/h (1 Bft) O-SO 112 0 min 0,000 mm 0,0 UV-I 30 W/m -3,7 C -3,5 C 6,4 km/h (2 Bft) 100,00 %
11.12.2019 15:29 -1,8 C 86 % 1014,7 hPa 0,0 l/m 6,4 km/h (2 Bft) O-SO 112 0 min 0,000 mm 0,0 UV-I 30 W/m -3,8 C -4,3 C 9,7 km/h (2 Bft) 95,65 %
11.12.2019 15:28 -1,8 C 86 % 1014,8 hPa 0,0 l/m 6,4 km/h (2 Bft) O-SO 112 0 min 0,000 mm 0,0 UV-I 32 W/m -3,8 C -4,3 C 6,4 km/h (2 Bft) 100,00 %
11.12.2019 15:27 -1,8 C 86 % 1014,8 hPa 0,0 l/m 4,8 km/h (1 Bft) O-SO 112 0 min 0,000 mm 0,0 UV-I 32 W/m -3,8 C -3,5 C 6,4 km/h (2 Bft) 95,65 %
11.12.2019 15:26 -1,8 C 86 % 1014,8 hPa 0,0 l/m 4,8 km/h (1 Bft) O-SO 112 0 min 0,000 mm 0,0 UV-I 33 W/m -3,8 C -3,5 C 6,4 km/h (2 Bft) 95,65 %
11.12.2019 15:25 -1,8 C 86 % 1014,8 hPa 0,0 l/m 6,4 km/h (2 Bft) O-SO 112 0 min 0,000 mm 0,0 UV-I 33 W/m -3,8 C -4,3 C 6,4 km/h (2 Bft) 100,00 %
11.12.2019 15:24 -1,8 C 86 % 1014,8 hPa 0,0 l/m 4,8 km/h (1 Bft) O-SO 112 0 min 0,000 mm 0,0 UV-I 33 W/m -3,8 C -3,5 C 6,4 km/h (2 Bft) 100,00 %
11.12.2019 15:23 -1,7 C 86 % 1014,9 hPa 0,0 l/m 4,8 km/h (1 Bft) O-SO 112 0 min 0,000 mm 0,0 UV-I 33 W/m -3,7 C -3,4 C 4,8 km/h (1 Bft) 100,00 %
11.12.2019 15:22 -1,7 C 86 % 1014,9 hPa 0,0 l/m 3,2 km/h (1 Bft) O-SO 112 0 min 0,000 mm 0,0 UV-I 35 W/m -3,7 C -1,7 C 4,8 km/h (1 Bft) 100,00 %
11.12.2019 15:21 -1,7 C 86 % 1014,9 hPa 0,0 l/m 3,2 km/h (1 Bft) O-SO 112 0 min 0,000 mm 0,0 UV-I 35 W/m -3,7 C -1,7 C 4,8 km/h (1 Bft) 100,00 %
11.12.2019 15:20 -1,7 C 86 % 1014,9 hPa 0,0 l/m 4,8 km/h (1 Bft) O-SO 112 0 min 0,000 mm 0,0 UV-I 35 W/m -3,7 C -3,4 C 4,8 km/h (1 Bft) 100,00 %
11.12.2019 15:19 -1,7 C 86 % 1014,9 hPa 0,0 l/m 4,8 km/h (1 Bft) O-SO 112 0 min 0,000 mm 0,0 UV-I 35 W/m -3,7 C -3,4 C 6,4 km/h (2 Bft) 100,00 %
11.12.2019 15:18 -1,7 C 86 % 1015,0 hPa 0,0 l/m 4,8 km/h (1 Bft) O-SO 112 0 min 0,000 mm 0,0 UV-I 37 W/m -3,7 C -3,4 C 6,4 km/h (2 Bft) 100,00 %
11.12.2019 15:17 -1,7 C 86 % 1014,9 hPa 0,0 l/m 4,8 km/h (1 Bft) O-SO 112 0 min 0,000 mm 0,0 UV-I 37 W/m -3,7 C -3,4 C 6,4 km/h (2 Bft) 91,30 %
11.12.2019 15:16 -1,6 C 86 % 1014,9 hPa 0,0 l/m 6,4 km/h (2 Bft) O-SO 112 0 min 0,000 mm 0,0 UV-I 37 W/m -3,6 C -4,0 C 6,4 km/h (2 Bft) 100,00 %
11.12.2019 15:15 -1,6 C 85 % 1014,9 hPa 0,0 l/m 8,0 km/h (2 Bft) O-SO 112 0 min 0,000 mm 0,0 UV-I 37 W/m -3,8 C -4,6 C 9,7 km/h (2 Bft) 95,65 %
11.12.2019 15:14 -1,6 C 85 % 1014,8 hPa 0,0 l/m 9,7 km/h (2 Bft) O-SO 112 0 min 0,000 mm 0,0 UV-I 37 W/m -3,8 C -5,1 C 11,3 km/h (2 Bft) 100,00 %
11.12.2019 15:13 -1,6 C 85 % 1014,8 hPa 0,0 l/m 9,7 km/h (2 Bft) O-SO 112 0 min 0,000 mm 0,0 UV-I 37 W/m -3,8 C -5,1 C 11,3 km/h (2 Bft) 95,65 %
11.12.2019 15:12 -1,6 C 85 % 1014,8 hPa 0,0 l/m 9,7 km/h (2 Bft) O-SO 112 0 min 0,000 mm 0,0 UV-I 37 W/m -3,8 C -5,1 C 11,3 km/h (2 Bft) 100,00 %
11.12.2019 15:11 -1,6 C 85 % 1014,9 hPa 0,0 l/m 9,7 km/h (2 Bft) O-SO 112 0 min 0,000 mm 0,0 UV-I 39 W/m -3,8 C -5,1 C 11,3 km/h (2 Bft) 100,00 %
11.12.2019 15:10 -1,6 C 85 % 1014,8 hPa 0,0 l/m 8,0 km/h (2 Bft) SO 135 0 min 0,000 mm 0,0 UV-I 39 W/m -3,8 C -4,6 C 11,3 km/h (2 Bft) 95,65 %
11.12.2019 15:09 -1,5 C 85 % 1014,8 hPa 0,0 l/m 8,0 km/h (2 Bft) SO 135 0 min 0,000 mm 0,0 UV-I 39 W/m -3,7 C -4,5 C 11,3 km/h (2 Bft) 95,65 %
11.12.2019 15:08 -1,5 C 85 % 1014,8 hPa 0,0 l/m 9,7 km/h (2 Bft) O-SO 112 0 min 0,000 mm 0,0 UV-I 39 W/m -3,7 C -5,0 C 11,3 km/h (2 Bft) 95,65 %
11.12.2019 15:07 -1,4 C 85 % 1014,9 hPa 0,0 l/m 9,7 km/h (2 Bft) O-SO 112 0 min 0,000 mm 0,0 UV-I 39 W/m -3,6 C -4,9 C 11,3 km/h (2 Bft) 100,00 %
11.12.2019 15:06 -1,4 C 85 % 1015,0 hPa 0,0 l/m 11,3 km/h (2 Bft) O-SO 112 0 min 0,000 mm 0,0 UV-I 39 W/m -3,6 C -5,3 C 12,9 km/h (3 Bft) 100,00 %
11.12.2019 15:05 -1,4 C 85 % 1014,8 hPa 0,0 l/m 11,3 km/h (2 Bft) O-SO 112 0 min 0,000 mm 0,0 UV-I 39 W/m -3,6 C -5,3 C 14,5 km/h (3 Bft) 95,65 %
11.12.2019 15:04 -1,4 C 84 % 1014,9 hPa 0,0 l/m 12,9 km/h (3 Bft) O-SO 112 0 min 0,000 mm 0,0 UV-I 39 W/m -3,7 C -5,7 C 12,9 km/h (3 Bft) 100,00 %
11.12.2019 15:03 -1,4 C 84 % 1014,9 hPa 0,0 l/m 12,9 km/h (3 Bft) O-SO 112 0 min 0,000 mm 0,0 UV-I 39 W/m -3,7 C -5,7 C 14,5 km/h (3 Bft) 100,00 %
11.12.2019 15:02 -1,3 C 84 % 1014,9 hPa 0,0 l/m 11,3 km/h (2 Bft) O-SO 112 0 min 0,000 mm 0,0 UV-I 39 W/m -3,6 C -5,2 C 14,5 km/h (3 Bft) 100,00 %
11.12.2019 15:01 -1,3 C 84 % 1015,0 hPa 0,0 l/m 11,3 km/h (2 Bft) O-SO 112 0 min 0,000 mm 0,0 UV-I 39 W/m -3,6 C -5,2 C 14,5 km/h (3 Bft) 100,00 %
11.12.2019 15:00 -1,3 C 84 % 1014,9 hPa 0,0 l/m 12,9 km/h (3 Bft) O-SO 112 0 min 0,051 mm 0,0 UV-I 39 W/m -3,6 C -5,6 C 16,1 km/h (3 Bft) 100,00 %
11.12.2019 14:59 -1,3 C 83 % 1015,0 hPa 0,0 l/m 12,9 km/h (3 Bft) O-SO 112 0 min 0,000 mm 0,0 UV-I 39 W/m -3,8 C -5,6 C 16,1 km/h (3 Bft) 95,65 %
11.12.2019 14:58 -1,3 C 83 % 1014,9 hPa 0,0 l/m 12,9 km/h (3 Bft) O-SO 112 0 min 0,000 mm 0,0 UV-I 39 W/m -3,8 C -5,6 C 14,5 km/h (3 Bft) 100,00 %
11.12.2019 14:57 -1,2 C 83 % 1015,0 hPa 0,0 l/m 12,9 km/h (3 Bft) O-SO 112 0 min 0,000 mm 0,0 UV-I 40 W/m -3,7 C -5,5 C 12,9 km/h (3 Bft) 100,00 %
11.12.2019 14:56 -1,2 C 83 % 1015,0 hPa 0,0 l/m 11,3 km/h (2 Bft) SO 135 0 min 0,000 mm 0,0 UV-I 40 W/m -3,7 C -5,1 C 12,9 km/h (3 Bft) 100,00 %
11.12.2019 14:55 -1,2 C 83 % 1015,0 hPa 0,0 l/m 12,9 km/h (3 Bft) SO 135 0 min 0,000 mm 0,0 UV-I 53 W/m -3,7 C -5,5 C 12,9 km/h (3 Bft) 100,00 %
11.12.2019 14:54 -1,1 C 82 % 1015,0 hPa 0,0 l/m 12,9 km/h (3 Bft) O-SO 112 0 min 0,000 mm 0,0 UV-I 62 W/m -3,8 C -5,3 C 12,9 km/h (3 Bft) 100,00 %
11.12.2019 14:53 -1,1 C 82 % 1015,1 hPa 0,0 l/m 12,9 km/h (3 Bft) O-SO 112 0 min 0,000 mm 0,0 UV-I 70 W/m -3,8 C -5,3 C 14,5 km/h (3 Bft) 91,30 %
11.12.2019 14:52 -1,1 C 82 % 1015,1 hPa 0,0 l/m 11,3 km/h (2 Bft) O-SO 112 0 min 0,000 mm 0,0 UV-I 79 W/m -3,8 C -5,0 C 14,5 km/h (3 Bft) 100,00 %
11.12.2019 14:51 -1,1 C 82 % 1015,1 hPa 0,0 l/m 11,3 km/h (2 Bft) O-SO 112 0 min 0,000 mm 0,0 UV-I 83 W/m -3,8 C -5,0 C 12,9 km/h (3 Bft) 95,65 %
11.12.2019 14:50 -1,1 C 82 % 1015,1 hPa 0,0 l/m 11,3 km/h (2 Bft) O-SO 112 0 min 0,000 mm 0,0 UV-I 72 W/m -3,8 C -5,0 C 12,9 km/h (3 Bft) 91,30 %
11.12.2019 14:49 -1,1 C 82 % 1015,2 hPa 0,0 l/m 9,7 km/h (2 Bft) O-SO 112 0 min 0,000 mm 0,0 UV-I 58 W/m -3,8 C -4,5 C 11,3 km/h (2 Bft) 100,00 %
11.12.2019 14:48 -1,0 C 82 % 1015,1 hPa 0,0 l/m 8,0 km/h (2 Bft) O-SO 112 0 min 0,000 mm 0,0 UV-I 51 W/m -3,7 C -3,9 C 11,3 km/h (2 Bft) 95,65 %
11.12.2019 14:47 -1,0 C 82 % 1015,2 hPa 0,0 l/m 11,3 km/h (2 Bft) SO 135 0 min 0,000 mm 0,0 UV-I 53 W/m -3,7 C -4,8 C 11,3 km/h (2 Bft) 86,96 %
11.12.2019 14:46 -0,9 C 82 % 1015,2 hPa 0,0 l/m 8,0 km/h (2 Bft) SO 135 0 min 0,000 mm 0,0 UV-I 63 W/m -3,6 C -3,8 C 11,3 km/h (2 Bft) 95,65 %
11.12.2019 14:45 -0,9 C 82 % 1015,2 hPa 0,0 l/m 8,0 km/h (2 Bft) SO 135 0 min 0,000 mm 0,0 UV-I 74 W/m -3,6 C -3,8 C 8,0 km/h (2 Bft) 78,26 %
11.12.2019 14:44 -0,9 C 81 % 1015,3 hPa 0,0 l/m 8,0 km/h (2 Bft) SO 135 0 min 0,000 mm 0,0 UV-I 84 W/m -3,7 C -3,8 C 11,3 km/h (2 Bft) 78,26 %
11.12.2019 14:43 -0,9 C 81 % 1015,3 hPa 0,0 l/m 8,0 km/h (2 Bft) SO 135 0 min 0,000 mm 0,0 UV-I 81 W/m -3,7 C -3,8 C 8,0 km/h (2 Bft) 86,96 %
11.12.2019 14:42 -0,8 C 81 % 1015,3 hPa 0,0 l/m 8,0 km/h (2 Bft) SO 135 0 min 0,000 mm 0,0 UV-I 70 W/m -3,6 C -3,7 C 8,0 km/h (2 Bft) 95,65 %
11.12.2019 14:41 -0,8 C 81 % 1015,3 hPa 0,0 l/m 8,0 km/h (2 Bft) SO 135 0 min 0,000 mm 0,0 UV-I 62 W/m -3,6 C -3,7 C 8,0 km/h (2 Bft) 82,61 %
11.12.2019 14:40 -0,8 C 80 % 1015,3 hPa 0,0 l/m 8,0 km/h (2 Bft) SO 135 0 min 0,000 mm 0,0 UV-I 56 W/m -3,8 C -3,7 C 11,3 km/h (2 Bft) 60,87 %
11.12.2019 14:39 -0,7 C 80 % 1015,4 hPa 0,0 l/m 8,0 km/h (2 Bft) SO 135 0 min 0,000 mm 0,0 UV-I 47 W/m -3,7 C -3,6 C 8,0 km/h (2 Bft) 86,96 %
11.12.2019 14:38 -0,7 C 80 % 1015,3 hPa 0,0 l/m 8,0 km/h (2 Bft) SO 135 0 min 0,000 mm 0,0 UV-I 49 W/m -3,7 C -3,6 C 11,3 km/h (2 Bft) 78,26 %
11.12.2019 14:37 -0,7 C 80 % 1015,3 hPa 0,0 l/m 8,0 km/h (2 Bft) SO 135 0 min 0,000 mm 0,0 UV-I 58 W/m -3,7 C -3,6 C 11,3 km/h (2 Bft) 86,96 %
11.12.2019 14:36 -0,7 C 80 % 1015,4 hPa 0,0 l/m 8,0 km/h (2 Bft) SO 135 0 min 0,000 mm 0,0 UV-I 77 W/m -3,7 C -3,6 C 8,0 km/h (2 Bft) 60,87 %
11.12.2019 14:35 -0,6 C 80 % 1015,4 hPa 0,0 l/m 9,7 km/h (2 Bft) SO 135 0 min 0,000 mm 0,0 UV-I 97 W/m -3,6 C -3,9 C 11,3 km/h (2 Bft) 82,61 %
11.12.2019 14:34 -0,6 C 80 % 1015,4 hPa 0,0 l/m 8,0 km/h (2 Bft) SO 135 0 min 0,000 mm 0,0 UV-I 111 W/m -3,6 C -3,4 C 8,0 km/h (2 Bft) 69,57 %
11.12.2019 14:33 -0,6 C 80 % 1015,4 hPa 0,0 l/m 8,0 km/h (2 Bft) SO 135 0 min 0,000 mm 0,0 UV-I 116 W/m -3,6 C -3,4 C 11,3 km/h (2 Bft) 95,65 %
11.12.2019 14:32 -0,6 C 80 % 1015,4 hPa 0,0 l/m 9,7 km/h (2 Bft) SO 135 0 min 0,000 mm 0,0 UV-I 121 W/m -3,6 C -3,9 C 12,9 km/h (3 Bft) 86,96 %
11.12.2019 14:31 -0,5 C 80 % 1015,5 hPa 0,0 l/m 8,0 km/h (2 Bft) O-SO 112 0 min 0,000 mm 0,0 UV-I 123 W/m -3,5 C -3,3 C 11,3 km/h (2 Bft) 78,26 %
11.12.2019 14:30 -0,5 C 80 % 1015,5 hPa 0,0 l/m 8,0 km/h (2 Bft) SO 135 0 min 0,000 mm 0,0 UV-I 123 W/m -3,5 C -3,3 C 11,3 km/h (2 Bft) 86,96 %
11.12.2019 14:29 -0,5 C 80 % 1015,5 hPa 0,0 l/m 8,0 km/h (2 Bft) SO 135 0 min 0,000 mm 0,0 UV-I 127 W/m -3,5 C -3,3 C 8,0 km/h (2 Bft) 91,30 %
11.12.2019 14:28 -0,5 C 79 % 1015,7 hPa 0,0 l/m 8,0 km/h (2 Bft) SO 135 0 min 0,000 mm 0,0 UV-I 132 W/m -3,7 C -3,3 C 11,3 km/h (2 Bft) 86,96 %
11.12.2019 14:27 -0,5 C 79 % 1015,5 hPa 0,0 l/m 8,0 km/h (2 Bft) SO 135 0 min 0,000 mm 0,0 UV-I 135 W/m -3,7 C -3,3 C 11,3 km/h (2 Bft) 95,65 %
11.12.2019 14:26 -0,4 C 79 % 1015,5 hPa 0,0 l/m 8,0 km/h (2 Bft) SO 135 0 min 0,000 mm 0,0 UV-I 127 W/m -3,6 C -3,2 C 11,3 km/h (2 Bft) 86,96 %
11.12.2019 14:25 -0,4 C 79 % 1015,5 hPa 0,0 l/m 8,0 km/h (2 Bft) SO 135 0 min 0,000 mm 0,0 UV-I 132 W/m -3,6 C -3,2 C 11,3 km/h (2 Bft) 86,96 %
11.12.2019 14:24 -0,4 C 79 % 1015,6 hPa 0,0 l/m 9,7 km/h (2 Bft) SO 135 0 min 0,000 mm 0,0 UV-I 130 W/m -3,6 C -3,7 C 11,3 km/h (2 Bft) 78,26 %
11.12.2019 14:23 -0,4 C 79 % 1015,5 hPa 0,0 l/m 9,7 km/h (2 Bft) SO 135 0 min 0,000 mm 0,0 UV-I 125 W/m -3,6 C -3,7 C 11,3 km/h (2 Bft) 73,91 %
11.12.2019 14:22 -0,3 C 79 % 1015,5 hPa 0,0 l/m 9,7 km/h (2 Bft) SO 135 0 min 0,000 mm 0,0 UV-I 127 W/m -3,5 C -3,6 C 11,3 km/h (2 Bft) 78,26 %
11.12.2019 14:21 -0,3 C 79 % 1015,6 hPa 0,0 l/m 9,7 km/h (2 Bft) SO 135 0 min 0,000 mm 0,0 UV-I 146 W/m -3,5 C -3,6 C 11,3 km/h (2 Bft) 82,61 %
11.12.2019 14:20 -0,3 C 79 % 1015,5 hPa 0,0 l/m 8,0 km/h (2 Bft) SO 135 0 min 0,000 mm 0,0 UV-I 151 W/m -3,5 C -3,1 C 8,0 km/h (2 Bft) 95,65 %
11.12.2019 14:19 -0,3 C 78 % 1015,6 hPa 0,0 l/m 9,7 km/h (2 Bft) SO 135 1 min 0,000 mm 0,0 UV-I 155 W/m -3,7 C -3,6 C 11,3 km/h (2 Bft) 82,61 %
11.12.2019 14:18 -0,2 C 79 % 1015,6 hPa 0,0 l/m 6,4 km/h (2 Bft) SO 135 1 min 0,000 mm 0,0 UV-I 158 W/m -3,4 C -2,4 C 8,0 km/h (2 Bft) 91,30 %
11.12.2019 14:17 -0,2 C 79 % 1015,5 hPa 0,0 l/m 6,4 km/h (2 Bft) SO 135 1 min 0,000 mm 0,0 UV-I 158 W/m -3,4 C -2,4 C 8,0 km/h (2 Bft) 69,57 %
11.12.2019 14:16 -0,2 C 79 % 1015,7 hPa 0,0 l/m 6,4 km/h (2 Bft) SO 135 1 min 0,000 mm 0,0 UV-I 156 W/m -3,4 C -2,4 C 8,0 km/h (2 Bft) 78,26 %
11.12.2019 14:15 -0,2 C 79 % 1015,7 hPa 0,0 l/m 6,4 km/h (2 Bft) SO 135 1 min 0,000 mm 0,0 UV-I 167 W/m -3,4 C -2,4 C 8,0 km/h (2 Bft) 91,30 %
11.12.2019 14:14 -0,2 C 79 % 1015,7 hPa 0,0 l/m 4,8 km/h (1 Bft) SO 135 1 min 0,000 mm 0,0 UV-I 169 W/m -3,4 C -1,7 C 6,4 km/h (2 Bft) 60,87 %
11.12.2019 14:13 -0,3 C 79 % 1015,6 hPa 0,0 l/m 4,8 km/h (1 Bft) SO 135 1 min 0,000 mm 0,0 UV-I 172 W/m -3,5 C -1,8 C 6,4 km/h (2 Bft) 65,22 %
11.12.2019 14:12 -0,2 C 80 % 1015,8 hPa 0,0 l/m 4,8 km/h (1 Bft) SO 135 1 min 0,000 mm 0,0 UV-I 174 W/m -3,2 C -1,7 C 6,4 km/h (2 Bft) 82,61 %
11.12.2019 14:11 -0,2 C 80 % 1015,7 hPa 0,0 l/m 4,8 km/h (1 Bft) SO 135 1 min 0,000 mm 0,0 UV-I 174 W/m -3,2 C -1,7 C 6,4 km/h (2 Bft) 60,87 %
11.12.2019 14:10 -0,3 C 79 % 1015,7 hPa 0,0 l/m 4,8 km/h (1 Bft) SO 135 1 min 0,000 mm 0,0 UV-I 179 W/m -3,5 C -1,8 C 6,4 km/h (2 Bft) 65,22 %
11.12.2019 14:09 -0,3 C 80 % 1015,7 hPa 0,0 l/m 6,4 km/h (2 Bft) S-SO 157 1 min 0,000 mm 0,0 UV-I 181 W/m -3,3 C -2,5 C 8,0 km/h (2 Bft) 65,22 %
11.12.2019 14:08 -0,3 C 79 % 1015,7 hPa 0,0 l/m 6,4 km/h (2 Bft) S-SO 157 1 min 0,000 mm 0,0 UV-I 181 W/m -3,5 C -2,5 C 8,0 km/h (2 Bft) 82,61 %
11.12.2019 14:07 -0,3 C 79 % 1015,7 hPa 0,0 l/m 8,0 km/h (2 Bft) SO 135 1 min 0,000 mm 0,0 UV-I 183 W/m -3,5 C -3,1 C 9,7 km/h (2 Bft) 60,87 %
11.12.2019 14:06 -0,3 C 80 % 1015,7 hPa 0,0 l/m 8,0 km/h (2 Bft) SO 135 1 min 0,000 mm 0,0 UV-I 186 W/m -3,3 C -3,1 C 8,0 km/h (2 Bft) 82,61 %
11.12.2019 14:05 -0,3 C 79 % 1015,8 hPa 0,0 l/m 6,4 km/h (2 Bft) SO 135 1 min 0,000 mm 0,0 UV-I 188 W/m -3,5 C -2,5 C 8,0 km/h (2 Bft) 78,26 %
11.12.2019 14:04 -0,3 C 79 % 1015,7 hPa 0,0 l/m 8,0 km/h (2 Bft) SO 135 1 min 0,000 mm 0,0 UV-I 193 W/m -3,5 C -3,1 C 8,0 km/h (2 Bft) 65,22 %
11.12.2019 14:03 -0,3 C 79 % 1015,8 hPa 0,0 l/m 9,7 km/h (2 Bft) SO 135 1 min 0,000 mm 0,0 UV-I 197 W/m -3,5 C -3,6 C 11,3 km/h (2 Bft) 82,61 %
11.12.2019 14:02 -0,3 C 79 % 1015,8 hPa 0,0 l/m 9,7 km/h (2 Bft) SO 135 1 min 0,000 mm 0,0 UV-I 199 W/m -3,5 C -3,6 C 12,9 km/h (3 Bft) 86,96 %
11.12.2019 14:01 -0,3 C 79 % 1015,7 hPa 0,0 l/m 11,3 km/h (2 Bft) SO 135 1 min 0,000 mm 0,0 UV-I 200 W/m -3,5 C -4,0 C 14,5 km/h (3 Bft) 69,57 %
11.12.2019 14:00 -0,4 C 79 % 1015,8 hPa 0,0 l/m 9,7 km/h (2 Bft) SO 135 1 min 0,076 mm 0,0 UV-I 202 W/m -3,6 C -3,7 C 12,9 km/h (3 Bft) 82,61 %
11.12.2019 13:59 -0,4 C 78 % 1015,8 hPa 0,0 l/m 8,0 km/h (2 Bft) O-SO 112 1 min 0,000 mm 0,0 UV-I 204 W/m -3,8 C -3,2 C 11,3 km/h (2 Bft) 82,61 %
11.12.2019 13:58 -0,3 C 78 % 1015,8 hPa 0,0 l/m 9,7 km/h (2 Bft) SO 135 1 min 0,000 mm 0,0 UV-I 207 W/m -3,7 C -3,6 C 12,9 km/h (3 Bft) 78,26 %
11.12.2019 13:57 -0,4 C 79 % 1015,9 hPa 0,0 l/m 11,3 km/h (2 Bft) SO 135 1 min 0,000 mm 0,0 UV-I 209 W/m -3,6 C -4,1 C 14,5 km/h (3 Bft) 78,26 %
11.12.2019 13:56 -0,3 C 79 % 1015,9 hPa 0,0 l/m 11,3 km/h (2 Bft) SO 135 1 min 0,000 mm 0,0 UV-I 209 W/m -3,5 C -4,0 C 12,9 km/h (3 Bft) 82,61 %
11.12.2019 13:55 -0,3 C 78 % 1015,9 hPa 0,0 l/m 11,3 km/h (2 Bft) SO 135 1 min 0,000 mm 0,0 UV-I 209 W/m -3,7 C -4,0 C 14,5 km/h (3 Bft) 78,26 %
11.12.2019 13:54 -0,3 C 78 % 1015,9 hPa 0,0 l/m 12,9 km/h (3 Bft) SO 135 1 min 0,000 mm 0,0 UV-I 213 W/m -3,7 C -4,4 C 14,5 km/h (3 Bft) 78,26 %
11.12.2019 13:53 -0,3 C 79 % 1016,1 hPa 0,0 l/m 12,9 km/h (3 Bft) SO 135 1 min 0,000 mm 0,0 UV-I 214 W/m -3,5 C -4,4 C 14,5 km/h (3 Bft) 73,91 %
11.12.2019 13:52 -0,3 C 78 % 1016,1 hPa 0,0 l/m 12,9 km/h (3 Bft) SO 135 1 min 0,000 mm 0,0 UV-I 214 W/m -3,7 C -4,4 C 14,5 km/h (3 Bft) 60,87 %
11.12.2019 13:51 -0,3 C 78 % 1016,1 hPa 0,0 l/m 9,7 km/h (2 Bft) SO 135 1 min 0,000 mm 0,5 UV-I 216 W/m -3,7 C -3,6 C 12,9 km/h (3 Bft) 82,61 %
11.12.2019 13:50 -0,3 C 78 % 1016,1 hPa 0,0 l/m 11,3 km/h (2 Bft) SO 135 1 min 0,000 mm 0,5 UV-I 211 W/m -3,7 C -4,0 C 12,9 km/h (3 Bft) 73,91 %
11.12.2019 13:49 -0,3 C 78 % 1016,2 hPa 0,0 l/m 11,3 km/h (2 Bft) SO 135 1 min 0,000 mm 0,5 UV-I 211 W/m -3,7 C -4,0 C 12,9 km/h (3 Bft) 60,87 %
11.12.2019 13:48 -0,3 C 79 % 1016,2 hPa 0,0 l/m 12,9 km/h (3 Bft) SO 135 1 min 0,000 mm 0,5 UV-I 213 W/m -3,5 C -4,4 C 14,5 km/h (3 Bft) 65,22 %
11.12.2019 13:47 -0,3 C 79 % 1016,2 hPa 0,0 l/m 9,7 km/h (2 Bft) SO 135 1 min 0,000 mm 0,5 UV-I 216 W/m -3,5 C -3,6 C 14,5 km/h (3 Bft) 69,57 %
11.12.2019 13:46 -0,3 C 79 % 1016,2 hPa 0,0 l/m 11,3 km/h (2 Bft) SO 135 1 min 0,000 mm 0,5 UV-I 221 W/m -3,5 C -4,0 C 12,9 km/h (3 Bft) 78,26 %
11.12.2019 13:45 -0,3 C 78 % 1016,2 hPa 0,0 l/m 9,7 km/h (2 Bft) O-SO 112 1 min 0,000 mm 0,5 UV-I 223 W/m -3,7 C -3,6 C 14,5 km/h (3 Bft) 73,91 %
11.12.2019 13:44 -0,3 C 78 % 1016,2 hPa 0,0 l/m 11,3 km/h (2 Bft) SO 135 1 min 0,000 mm 0,5 UV-I 225 W/m -3,7 C -4,0 C 16,1 km/h (3 Bft) 82,61 %
11.12.2019 13:43 -0,2 C 79 % 1016,3 hPa 0,0 l/m 11,3 km/h (2 Bft) SO 135 1 min 0,000 mm 0,5 UV-I 227 W/m -3,4 C -3,9 C 16,1 km/h (3 Bft) 56,52 %
11.12.2019 13:42 -0,2 C 79 % 1016,2 hPa 0,0 l/m 11,3 km/h (2 Bft) SO 135 1 min 0,000 mm 0,5 UV-I 227 W/m -3,4 C -3,9 C 14,5 km/h (3 Bft) 73,91 %
11.12.2019 13:41 -0,2 C 80 % 1016,2 hPa 0,0 l/m 11,3 km/h (2 Bft) SO 135 1 min 0,000 mm 0,5 UV-I 227 W/m -3,2 C -3,9 C 12,9 km/h (3 Bft) 60,87 %
11.12.2019 13:40 -0,2 C 79 % 1016,1 hPa 0,0 l/m 9,7 km/h (2 Bft) SO 135 1 min 0,000 mm 0,5 UV-I 227 W/m -3,4 C -3,5 C 12,9 km/h (3 Bft) 60,87 %
11.12.2019 13:39 -0,2 C 80 % 1016,2 hPa 0,0 l/m 9,7 km/h (2 Bft) SO 135 1 min 0,000 mm 0,5 UV-I 230 W/m -3,2 C -3,5 C 12,9 km/h (3 Bft) 69,57 %
11.12.2019 13:38 -0,2 C 80 % 1016,2 hPa 0,0 l/m 9,7 km/h (2 Bft) SO 135 1 min 0,000 mm 0,5 UV-I 234 W/m -3,2 C -3,5 C 11,3 km/h (2 Bft) 65,22 %
11.12.2019 13:37 -0,2 C 79 % 1016,2 hPa 0,0 l/m 8,0 km/h (2 Bft) SO 135 1 min 0,000 mm 0,5 UV-I 236 W/m -3,4 C -3,0 C 11,3 km/h (2 Bft) 78,26 %
11.12.2019 13:36 -0,3 C 79 % 1016,2 hPa 0,0 l/m 8,0 km/h (2 Bft) SO 135 1 min 0,000 mm 0,5 UV-I 234 W/m -3,5 C -3,1 C 11,3 km/h (2 Bft) 52,17 %
11.12.2019 13:35 -0,3 C 79 % 1016,3 hPa 0,0 l/m 9,7 km/h (2 Bft) O-SO 112 1 min 0,000 mm 0,5 UV-I 241 W/m -3,5 C -3,6 C 11,3 km/h (2 Bft) 56,52 %
11.12.2019 13:34 -0,3 C 79 % 1016,3 hPa 0,0 l/m 11,3 km/h (2 Bft) SO 135 1 min 0,000 mm 0,5 UV-I 237 W/m -3,5 C -4,0 C 12,9 km/h (3 Bft) 56,52 %
11.12.2019 13:33 -0,3 C 79 % 1016,2 hPa 0,0 l/m 11,3 km/h (2 Bft) SO 135 1 min 0,000 mm 0,5 UV-I 237 W/m -3,5 C -4,0 C 12,9 km/h (3 Bft) 52,17 %
11.12.2019 13:32 -0,2 C 78 % 1016,3 hPa 0,0 l/m 9,7 km/h (2 Bft) SO 135 1 min 0,000 mm 0,5 UV-I 236 W/m -3,6 C -3,5 C 12,9 km/h (3 Bft) 69,57 %
11.12.2019 13:31 -0,2 C 79 % 1016,4 hPa 0,0 l/m 8,0 km/h (2 Bft) SO 135 1 min 0,000 mm 0,5 UV-I 234 W/m -3,4 C -3,0 C 11,3 km/h (2 Bft) 73,91 %
11.12.2019 13:30 -0,2 C 79 % 1016,4 hPa 0,0 l/m 8,0 km/h (2 Bft) SO 135 1 min 0,000 mm 0,5 UV-I 229 W/m -3,4 C -3,0 C 11,3 km/h (2 Bft) 60,87 %
11.12.2019 13:29 -0,2 C 79 % 1016,4 hPa 0,0 l/m 8,0 km/h (2 Bft) O-SO 112 1 min 0,000 mm 0,5 UV-I 225 W/m -3,4 C -3,0 C 11,3 km/h (2 Bft) 78,26 %
11.12.2019 13:28 -0,2 C 78 % 1016,5 hPa 0,0 l/m 9,7 km/h (2 Bft) SO 135 1 min 0,000 mm 0,5 UV-I 225 W/m -3,6 C -3,5 C 12,9 km/h (3 Bft) 52,17 %
11.12.2019 13:27 -0,3 C 78 % 1016,5 hPa 0,0 l/m 8,0 km/h (2 Bft) SO 135 1 min 0,000 mm 0,5 UV-I 225 W/m -3,7 C -3,1 C 12,9 km/h (3 Bft) 73,91 %
11.12.2019 13:26 -0,2 C 78 % 1016,5 hPa 0,0 l/m 8,0 km/h (2 Bft) SO 135 1 min 0,000 mm 0,5 UV-I 225 W/m -3,6 C -3,0 C 11,3 km/h (2 Bft) 52,17 %
11.12.2019 13:25 -0,2 C 78 % 1016,5 hPa 0,0 l/m 11,3 km/h (2 Bft) SO 135 1 min 0,000 mm 0,5 UV-I 230 W/m -3,6 C -3,9 C 12,9 km/h (3 Bft) 52,17 %
11.12.2019 13:24 -0,2 C 77 % 1016,5 hPa 0,0 l/m 9,7 km/h (2 Bft) SO 135 1 min 0,000 mm 0,5 UV-I 232 W/m -3,7 C -3,5 C 12,9 km/h (3 Bft) 56,52 %
11.12.2019 13:23 -0,2 C 77 % 1016,6 hPa 0,0 l/m 12,9 km/h (3 Bft) SO 135 1 min 0,000 mm 0,5 UV-I 232 W/m -3,7 C -4,2 C 12,9 km/h (3 Bft) 30,43 %
11.12.2019 13:22 -0,1 C 77 % 1016,5 hPa 0,0 l/m 11,3 km/h (2 Bft) SO 135 1 min 0,000 mm 0,5 UV-I 237 W/m -3,6 C -3,8 C 12,9 km/h (3 Bft) 56,52 %
11.12.2019 13:21 -0,1 C 78 % 1016,6 hPa 0,0 l/m 12,9 km/h (3 Bft) SO 135 1 min 0,000 mm 0,5 UV-I 232 W/m -3,5 C -4,1 C 12,9 km/h (3 Bft) 39,13 %
11.12.2019 13:20 -0,1 C 80 % 1016,6 hPa 0,0 l/m 11,3 km/h (2 Bft) SO 135 1 min 0,000 mm 0,5 UV-I 232 W/m -3,1 C -3,8 C 14,5 km/h (3 Bft) 69,57 %
11.12.2019 13:19 -0,1 C 79 % 1016,6 hPa 0,0 l/m 8,0 km/h (2 Bft) O-SO 112 1 min 0,000 mm 0,5 UV-I 236 W/m -3,3 C -2,9 C 11,3 km/h (2 Bft) 60,87 %
11.12.2019 13:18 -0,1 C 79 % 1016,7 hPa 0,0 l/m 8,0 km/h (2 Bft) SO 135 1 min 0,000 mm 0,5 UV-I 230 W/m -3,3 C -2,9 C 11,3 km/h (2 Bft) 43,48 %
11.12.2019 13:17 -0,1 C 79 % 1016,7 hPa 0,0 l/m 8,0 km/h (2 Bft) O-SO 112 1 min 0,000 mm 0,5 UV-I 229 W/m -3,3 C -2,9 C 11,3 km/h (2 Bft) 65,22 %
11.12.2019 13:16 -0,1 C 80 % 1016,7 hPa 0,0 l/m 6,4 km/h (2 Bft) O-SO 112 1 min 0,000 mm 0,6 UV-I 230 W/m -3,1 C -2,3 C 9,7 km/h (2 Bft) 60,87 %
11.12.2019 13:15 -0,1 C 79 % 1016,7 hPa 0,0 l/m 6,4 km/h (2 Bft) SO 135 1 min 0,000 mm 0,6 UV-I 227 W/m -3,3 C -2,3 C 6,4 km/h (2 Bft) 65,22 %
11.12.2019 13:14 -0,1 C 79 % 1016,7 hPa 0,0 l/m 6,4 km/h (2 Bft) O-SO 112 1 min 0,000 mm 0,6 UV-I 227 W/m -3,3 C -2,3 C 9,7 km/h (2 Bft) 47,83 %
11.12.2019 13:13 -0,1 C 79 % 1016,8 hPa 0,0 l/m 8,0 km/h (2 Bft) O-SO 112 1 min 0,000 mm 0,6 UV-I 216 W/m -3,3 C -2,9 C 11,3 km/h (2 Bft) 60,87 %
11.12.2019 13:12 -0,1 C 79 % 1016,8 hPa 0,0 l/m 6,4 km/h (2 Bft) SO 135 1 min 0,000 mm 0,6 UV-I 209 W/m -3,3 C -2,3 C 8,0 km/h (2 Bft) 60,87 %
11.12.2019 13:11 -0,1 C 78 % 1016,8 hPa 0,0 l/m 8,0 km/h (2 Bft) O-SO 112 1 min 0,000 mm 0,6 UV-I 220 W/m -3,5 C -2,9 C 9,7 km/h (2 Bft) 65,22 %
11.12.2019 13:10 -0,1 C 79 % 1016,8 hPa 0,0 l/m 9,7 km/h (2 Bft) SO 135 1 min 0,000 mm 0,6 UV-I 223 W/m -3,3 C -3,4 C 12,9 km/h (3 Bft) 56,52 %
11.12.2019 13:09 -0,1 C 80 % 1016,9 hPa 0,0 l/m 8,0 km/h (2 Bft) SO 135 1 min 0,000 mm 0,6 UV-I 227 W/m -3,1 C -2,9 C 11,3 km/h (2 Bft) 82,61 %
11.12.2019 13:08 -0,2 C 78 % 1016,8 hPa 0,0 l/m 8,0 km/h (2 Bft) O-SO 112 1 min 0,000 mm 0,6 UV-I 227 W/m -3,6 C -3,0 C 11,3 km/h (2 Bft) 78,26 %
11.12.2019 13:07 -0,2 C 79 % 1016,9 hPa 0,0 l/m 6,4 km/h (2 Bft) O-SO 112 1 min 0,000 mm 0,6 UV-I 225 W/m -3,4 C -2,4 C 9,7 km/h (2 Bft) 78,26 %
11.12.2019 13:06 -0,2 C 79 % 1016,9 hPa 0,0 l/m 9,7 km/h (2 Bft) SO 135 1 min 0,000 mm 0,6 UV-I 223 W/m -3,4 C -3,5 C 11,3 km/h (2 Bft) 65,22 %
11.12.2019 13:05 -0,2 C 78 % 1016,9 hPa 0,0 l/m 9,7 km/h (2 Bft) SO 135 1 min 0,000 mm 0,6 UV-I 221 W/m -3,6 C -3,5 C 11,3 km/h (2 Bft) 60,87 %
11.12.2019 13:04 -0,2 C 79 % 1016,9 hPa 0,0 l/m 11,3 km/h (2 Bft) SO 135 1 min 0,000 mm 0,6 UV-I 229 W/m -3,4 C -3,9 C 12,9 km/h (3 Bft) 60,87 %
11.12.2019 13:03 -0,2 C 79 % 1017,0 hPa 0,0 l/m 8,0 km/h (2 Bft) SO 135 1 min 0,000 mm 0,6 UV-I 232 W/m -3,4 C -3,0 C 8,0 km/h (2 Bft) 47,83 %
11.12.2019 13:02 -0,2 C 79 % 1017,0 hPa 0,0 l/m 6,4 km/h (2 Bft) SO 135 1 min 0,000 mm 0,6 UV-I 230 W/m -3,4 C -2,4 C 8,0 km/h (2 Bft) 56,52 %
11.12.2019 13:01 -0,2 C 79 % 1017,0 hPa 0,0 l/m 8,0 km/h (2 Bft) O-SO 112 1 min 0,000 mm 0,6 UV-I 244 W/m -3,4 C -3,0 C 11,3 km/h (2 Bft) 43,48 %
11.12.2019 13:00 -0,2 C 79 % 1017,0 hPa 0,0 l/m 8,0 km/h (2 Bft) SO 135 1 min 0,102 mm 0,6 UV-I 239 W/m -3,4 C -3,0 C 11,3 km/h (2 Bft) 39,13 %
11.12.2019 12:59 -0,2 C 79 % 1017,1 hPa 0,0 l/m 6,4 km/h (2 Bft) SO 135 1 min 0,000 mm 0,6 UV-I 239 W/m -3,4 C -2,4 C 6,4 km/h (2 Bft) 21,74 %
11.12.2019 12:58 -0,2 C 79 % 1017,1 hPa 0,0 l/m 6,4 km/h (2 Bft) SO 135 1 min 0,000 mm 0,6 UV-I 243 W/m -3,4 C -2,4 C 11,3 km/h (2 Bft) 39,13 %
11.12.2019 12:57 -0,2 C 80 % 1017,2 hPa 0,0 l/m 9,7 km/h (2 Bft) SO 135 1 min 0,000 mm 0,7 UV-I 267 W/m -3,2 C -3,5 C 11,3 km/h (2 Bft) 26,09 %
11.12.2019 12:56 -0,2 C 80 % 1017,2 hPa 0,0 l/m 9,7 km/h (2 Bft) SO 135 1 min 0,000 mm 0,7 UV-I 267 W/m -3,2 C -3,5 C 12,9 km/h (3 Bft) 39,13 %
11.12.2019 12:55 -0,2 C 80 % 1017,2 hPa 0,0 l/m 9,7 km/h (2 Bft) SO 135 1 min 0,000 mm 0,7 UV-I 267 W/m -3,2 C -3,5 C 11,3 km/h (2 Bft) 17,39 %
11.12.2019 12:54 -0,3 C 80 % 1017,2 hPa 0,0 l/m 6,4 km/h (2 Bft) SO 135 1 min 0,000 mm 0,7 UV-I 267 W/m -3,3 C -2,5 C 6,4 km/h (2 Bft) 8,70 %
11.12.2019 12:53 -0,3 C 80 % 1017,3 hPa 0,0 l/m 8,0 km/h (2 Bft) SO 135 1 min 0,000 mm 0,7 UV-I 267 W/m -3,3 C -3,1 C 8,0 km/h (2 Bft) 26,09 %
11.12.2019 12:52 -0,3 C 80 % 1017,3 hPa 0,0 l/m 8,0 km/h (2 Bft) SO 135 1 min 0,000 mm 0,7 UV-I 269 W/m -3,3 C -3,1 C 8,0 km/h (2 Bft) 8,70 %
11.12.2019 12:51 -0,3 C 80 % 1017,4 hPa 0,0 l/m 6,4 km/h (2 Bft) O-SO 112 1 min 0,000 mm 0,7 UV-I 269 W/m -3,3 C -2,5 C 6,4 km/h (2 Bft) 8,70 %
11.12.2019 12:50 -0,3 C 80 % 1017,3 hPa 0,0 l/m 8,0 km/h (2 Bft) O-SO 112 1 min 0,000 mm 0,7 UV-I 269 W/m -3,3 C -3,1 C 11,3 km/h (2 Bft) 26,09 %
11.12.2019 12:49 -0,3 C 79 % 1017,3 hPa 0,0 l/m 8,0 km/h (2 Bft) SO 135 1 min 0,000 mm 0,7 UV-I 255 W/m -3,5 C -3,1 C 9,7 km/h (2 Bft) 8,70 %
11.12.2019 12:48 -0,3 C 79 % 1017,4 hPa 0,0 l/m 8,0 km/h (2 Bft) SO 135 1 min 0,000 mm 0,7 UV-I 255 W/m -3,5 C -3,1 C 9,7 km/h (2 Bft) 39,13 %
11.12.2019 12:47 -0,3 C 81 % 1017,4 hPa 0,0 l/m 9,7 km/h (2 Bft) SO 135 1 min 0,000 mm 0,7 UV-I 250 W/m -3,2 C -3,6 C 11,3 km/h (2 Bft) 30,43 %
11.12.2019 12:46 -0,4 C 81 % 1017,4 hPa 0,0 l/m 9,7 km/h (2 Bft) SO 135 1 min 0,000 mm 0,7 UV-I 248 W/m -3,3 C -3,7 C 12,9 km/h (3 Bft) 34,78 %
11.12.2019 12:45 -0,3 C 80 % 1017,4 hPa 0,0 l/m 6,4 km/h (2 Bft) SO 135 1 min 0,000 mm 0,7 UV-I 246 W/m -3,3 C -2,5 C 8,0 km/h (2 Bft) 47,83 %
11.12.2019 12:44 -0,3 C 81 % 1017,4 hPa 0,0 l/m 11,3 km/h (2 Bft) SO 135 1 min 0,000 mm 0,7 UV-I 239 W/m -3,2 C -4,0 C 12,9 km/h (3 Bft) 34,78 %
11.12.2019 12:43 -0,3 C 80 % 1017,4 hPa 0,0 l/m 8,0 km/h (2 Bft) SO 135 1 min 0,000 mm 0,7 UV-I 236 W/m -3,3 C -3,1 C 11,3 km/h (2 Bft) 43,48 %
11.12.2019 12:42 -0,3 C 80 % 1017,4 hPa 0,0 l/m 11,3 km/h (2 Bft) SO 135 1 min 0,000 mm 0,7 UV-I 248 W/m -3,3 C -4,0 C 12,9 km/h (3 Bft) 43,48 %
11.12.2019 12:41 -0,3 C 81 % 1017,4 hPa 0,0 l/m 9,7 km/h (2 Bft) SO 135 1 min 0,000 mm 0,7 UV-I 248 W/m -3,2 C -3,6 C 11,3 km/h (2 Bft) 26,09 %
11.12.2019 12:40 -0,3 C 80 % 1017,5 hPa 0,0 l/m 9,7 km/h (2 Bft) SO 135 1 min 0,000 mm 0,7 UV-I 258 W/m -3,3 C -3,6 C 11,3 km/h (2 Bft) 26,09 %
11.12.2019 12:39 -0,4 C 80 % 1017,4 hPa 0,0 l/m 9,7 km/h (2 Bft) O-SO 112 1 min 0,000 mm 0,7 UV-I 271 W/m -3,4 C -3,7 C 11,3 km/h (2 Bft) 34,78 %
11.12.2019 12:38 -0,4 C 81 % 1017,5 hPa 0,0 l/m 11,3 km/h (2 Bft) SO 135 1 min 0,000 mm 0,7 UV-I 271 W/m -3,3 C -4,1 C 12,9 km/h (3 Bft) 47,83 %
11.12.2019 12:37 -0,4 C 81 % 1017,4 hPa 0,0 l/m 12,9 km/h (3 Bft) SO 135 1 min 0,000 mm 0,7 UV-I 269 W/m -3,3 C -4,5 C 14,5 km/h (3 Bft) 17,39 %
11.12.2019 12:36 -0,4 C 81 % 1017,5 hPa 0,0 l/m 8,0 km/h (2 Bft) SO 135 1 min 0,000 mm 0,7 UV-I 269 W/m -3,3 C -3,2 C 11,3 km/h (2 Bft) 39,13 %
11.12.2019 12:35 -0,4 C 81 % 1017,5 hPa 0,0 l/m 9,7 km/h (2 Bft) SO 135 1 min 0,000 mm 0,7 UV-I 265 W/m -3,3 C -3,7 C 12,9 km/h (3 Bft) 56,52 %
11.12.2019 12:34 -0,4 C 80 % 1017,4 hPa 0,0 l/m 9,7 km/h (2 Bft) SO 135 1 min 0,000 mm 0,7 UV-I 272 W/m -3,4 C -3,7 C 11,3 km/h (2 Bft) 43,48 %
11.12.2019 12:33 -0,4 C 81 % 1017,5 hPa 0,0 l/m 11,3 km/h (2 Bft) SO 135 1 min 0,000 mm 0,7 UV-I 272 W/m -3,3 C -4,1 C 12,9 km/h (3 Bft) 43,48 %
11.12.2019 12:32 -0,4 C 81 % 1017,5 hPa 0,0 l/m 8,0 km/h (2 Bft) O-SO 112 1 min 0,000 mm 0,7 UV-I 271 W/m -3,3 C -3,2 C 11,3 km/h (2 Bft) 82,61 %
11.12.2019 12:31 -0,4 C 81 % 1017,6 hPa 0,0 l/m 8,0 km/h (2 Bft) SO 135 1 min 0,000 mm 0,7 UV-I 264 W/m -3,3 C -3,2 C 11,3 km/h (2 Bft) 65,22 %
11.12.2019 12:30 -0,5 C 81 % 1017,5 hPa 0,0 l/m 11,3 km/h (2 Bft) SO 135 1 min 0,000 mm 0,7 UV-I 264 W/m -3,3 C -4,2 C 12,9 km/h (3 Bft) 56,52 %
11.12.2019 12:29 -0,5 C 82 % 1017,6 hPa 0,0 l/m 11,3 km/h (2 Bft) O-SO 112 1 min 0,000 mm 0,7 UV-I 248 W/m -3,2 C -4,2 C 12,9 km/h (3 Bft) 60,87 %
11.12.2019 12:28 -0,5 C 82 % 1017,6 hPa 0,0 l/m 9,7 km/h (2 Bft) SO 135 1 min 0,000 mm 0,6 UV-I 241 W/m -3,2 C -3,8 C 12,9 km/h (3 Bft) 100,00 %
11.12.2019 12:27 -0,6 C 81 % 1017,7 hPa 0,0 l/m 8,0 km/h (2 Bft) SO 135 1 min 0,000 mm 0,6 UV-I 232 W/m -3,4 C -3,4 C 9,7 km/h (2 Bft) 60,87 %
11.12.2019 12:26 -0,6 C 81 % 1017,6 hPa 0,0 l/m 11,3 km/h (2 Bft) SO 135 1 min 0,000 mm 0,6 UV-I 234 W/m -3,4 C -4,4 C 12,9 km/h (3 Bft) 43,48 %
11.12.2019 12:25 -0,6 C 82 % 1017,6 hPa 0,0 l/m 14,5 km/h (3 Bft) O-SO 112 1 min 0,000 mm 0,7 UV-I 243 W/m -3,3 C -5,1 C 16,1 km/h (3 Bft) 73,91 %
11.12.2019 12:24 -0,6 C 83 % 1017,6 hPa 0,0 l/m 12,9 km/h (3 Bft) SO 135 1 min 0,000 mm 0,7 UV-I 257 W/m -3,1 C -4,7 C 16,1 km/h (3 Bft) 65,22 %
11.12.2019 12:23 -0,6 C 83 % 1017,6 hPa 0,0 l/m 12,9 km/h (3 Bft) SO 135 1 min 0,000 mm 0,7 UV-I 276 W/m -3,1 C -4,7 C 16,1 km/h (3 Bft) 82,61 %
11.12.2019 12:22 -0,7 C 83 % 1017,6 hPa 0,0 l/m 14,5 km/h (3 Bft) SO 135 1 min 0,000 mm 0,7 UV-I 279 W/m -3,2 C -5,2 C 16,1 km/h (3 Bft) 86,96 %
11.12.2019 12:21 -0,7 C 81 % 1017,6 hPa 0,0 l/m 12,9 km/h (3 Bft) O-SO 112 1 min 0,000 mm 0,7 UV-I 279 W/m -3,5 C -4,9 C 16,1 km/h (3 Bft) 78,26 %
11.12.2019 12:20 -0,7 C 81 % 1017,7 hPa 0,0 l/m 16,1 km/h (3 Bft) SO 135 1 min 0,000 mm 0,7 UV-I 279 W/m -3,5 C -5,5 C 22,5 km/h (4 Bft) 100,00 %
11.12.2019 12:19 -0,7 C 81 % 1017,6 hPa 0,0 l/m 16,1 km/h (3 Bft) SO 135 1 min 0,000 mm 0,7 UV-I 274 W/m -3,5 C -5,5 C 20,9 km/h (4 Bft) 91,30 %
11.12.2019 12:18 -0,7 C 81 % 1017,7 hPa 0,0 l/m 17,7 km/h (3 Bft) SO 135 1 min 0,000 mm 0,7 UV-I 276 W/m -3,5 C -5,8 C 19,3 km/h (3 Bft) 95,65 %
11.12.2019 12:17 -0,8 C 81 % 1017,8 hPa 0,0 l/m 14,5 km/h (3 Bft) SO 135 1 min 0,000 mm 0,7 UV-I 279 W/m -3,6 C -5,3 C 19,3 km/h (3 Bft) 91,30 %
11.12.2019 12:16 -0,8 C 81 % 1017,8 hPa 0,0 l/m 14,5 km/h (3 Bft) O-SO 112 1 min 0,000 mm 0,7 UV-I 288 W/m -3,6 C -5,3 C 17,7 km/h (3 Bft) 91,30 %
11.12.2019 12:15 -0,8 C 81 % 1017,9 hPa 0,0 l/m 16,1 km/h (3 Bft) O-SO 112 1 min 0,000 mm 0,7 UV-I 287 W/m -3,6 C -5,6 C 19,3 km/h (3 Bft) 100,00 %
11.12.2019 12:14 -0,8 C 80 % 1017,9 hPa 0,0 l/m 16,1 km/h (3 Bft) O-SO 112 1 min 0,000 mm 0,7 UV-I 287 W/m -3,8 C -5,6 C 16,1 km/h (3 Bft) 91,30 %
11.12.2019 12:13 -0,8 C 80 % 1017,9 hPa 0,0 l/m 16,1 km/h (3 Bft) O-SO 112 1 min 0,000 mm 0,7 UV-I 287 W/m -3,8 C -5,6 C 19,3 km/h (3 Bft) 100,00 %
11.12.2019 12:12 -0,8 C 80 % 1017,9 hPa 0,0 l/m 17,7 km/h (3 Bft) O-SO 112 1 min 0,000 mm 0,7 UV-I 285 W/m -3,8 C -5,9 C 19,3 km/h (3 Bft) 91,30 %
11.12.2019 12:11 -0,8 C 79 % 1018,0 hPa 0,0 l/m 17,7 km/h (3 Bft) SO 135 1 min 0,000 mm 0,7 UV-I 281 W/m -4,0 C -5,9 C 19,3 km/h (3 Bft) 100,00 %
11.12.2019 12:10 -0,8 C 80 % 1018,0 hPa 0,0 l/m 17,7 km/h (3 Bft) SO 135 1 min 0,000 mm 0,7 UV-I 276 W/m -3,8 C -5,9 C 20,9 km/h (4 Bft) 100,00 %
11.12.2019 12:09 -0,8 C 80 % 1018,0 hPa 0,0 l/m 16,1 km/h (3 Bft) SO 135 1 min 0,000 mm 0,7 UV-I 279 W/m -3,8 C -5,6 C 19,3 km/h (3 Bft) 95,65 %
11.12.2019 12:08 -0,8 C 79 % 1018,0 hPa 0,0 l/m 16,1 km/h (3 Bft) O-SO 112 1 min 0,000 mm 0,7 UV-I 281 W/m -4,0 C -5,6 C 16,1 km/h (3 Bft) 100,00 %
11.12.2019 12:07 -0,8 C 78 % 1018,1 hPa 0,0 l/m 14,5 km/h (3 Bft) SO 135 1 min 0,000 mm 0,7 UV-I 281 W/m -4,1 C -5,3 C 17,7 km/h (3 Bft) 95,65 %
11.12.2019 12:06 -0,8 C 79 % 1018,2 hPa 0,0 l/m 17,7 km/h (3 Bft) SO 135 1 min 0,000 mm 0,7 UV-I 269 W/m -4,0 C -5,9 C 19,3 km/h (3 Bft) 86,96 %
11.12.2019 12:05 -0,8 C 79 % 1018,2 hPa 0,0 l/m 14,5 km/h (3 Bft) SO 135 1 min 0,000 mm 0,7 UV-I 276 W/m -4,0 C -5,3 C 17,7 km/h (3 Bft) 91,30 %
11.12.2019 12:04 -0,8 C 79 % 1018,0 hPa 0,0 l/m 14,5 km/h (3 Bft) SO 135 1 min 0,000 mm 0,7 UV-I 283 W/m -4,0 C -5,3 C 17,7 km/h (3 Bft) 91,30 %
11.12.2019 12:03 -0,8 C 79 % 1018,1 hPa 0,0 l/m 14,5 km/h (3 Bft) O-SO 112 1 min 0,000 mm 0,7 UV-I 285 W/m -4,0 C -5,3 C 17,7 km/h (3 Bft) 69,57 %
11.12.2019 12:02 -0,9 C 80 % 1018,2 hPa 0,0 l/m 14,5 km/h (3 Bft) O-SO 112 1 min 0,000 mm 0,7 UV-I 287 W/m -3,9 C -5,4 C 16,1 km/h (3 Bft) 86,96 %
11.12.2019 12:01 -0,9 C 82 % 1018,3 hPa 0,0 l/m 12,9 km/h (3 Bft) O-SO 112 1 min 0,000 mm 0,7 UV-I 287 W/m -3,6 C -5,1 C 16,1 km/h (3 Bft) 91,30 %
11.12.2019 12:00 -0,9 C 80 % 1018,3 hPa 0,0 l/m 12,9 km/h (3 Bft) SO 135 1 min 0,102 mm 0,7 UV-I 287 W/m -3,9 C -5,1 C 16,1 km/h (3 Bft) 100,00 %
11.12.2019 11:59 -0,9 C 80 % 1018,3 hPa 0,0 l/m 14,5 km/h (3 Bft) SO 135 1 min 0,000 mm 0,7 UV-I 285 W/m -3,9 C -5,4 C 19,3 km/h (3 Bft) 82,61 %
11.12.2019 11:58 -1,0 C 80 % 1018,4 hPa 0,0 l/m 14,5 km/h (3 Bft) SO 135 1 min 0,000 mm 0,7 UV-I 283 W/m -4,0 C -5,6 C 16,1 km/h (3 Bft) 95,65 %
11.12.2019 11:57 -1,0 C 80 % 1018,3 hPa 0,0 l/m 14,5 km/h (3 Bft) SO 135 1 min 0,000 mm 0,7 UV-I 283 W/m -4,0 C -5,6 C 16,1 km/h (3 Bft) 91,30 %
11.12.2019 11:56 -1,0 C 81 % 1018,4 hPa 0,0 l/m 14,5 km/h (3 Bft) O-SO 112 1 min 0,000 mm 0,7 UV-I 283 W/m -3,8 C -5,6 C 16,1 km/h (3 Bft) 100,00 %
11.12.2019 11:55 -1,0 C 82 % 1018,4 hPa 0,0 l/m 14,5 km/h (3 Bft) SO 135 1 min 0,000 mm 0,7 UV-I 285 W/m -3,7 C -5,6 C 16,1 km/h (3 Bft) 78,26 %
11.12.2019 11:54 -1,0 C 81 % 1018,4 hPa 0,0 l/m 12,9 km/h (3 Bft) SO 135 1 min 0,000 mm 0,7 UV-I 283 W/m -3,8 C -5,2 C 16,1 km/h (3 Bft) 91,30 %
11.12.2019 11:53 -1,1 C 81 % 1018,4 hPa 0,0 l/m 11,3 km/h (2 Bft) SO 135 1 min 0,000 mm 0,7 UV-I 269 W/m -3,9 C -5,0 C 14,5 km/h (3 Bft) 100,00 %
11.12.2019 11:52 -1,0 C 81 % 1018,4 hPa 0,0 l/m 14,5 km/h (3 Bft) O-SO 112 1 min 0,000 mm 0,7 UV-I 267 W/m -3,8 C -5,6 C 19,3 km/h (3 Bft) 100,00 %
11.12.2019 11:51 -1,0 C 82 % 1018,5 hPa 0,0 l/m 12,9 km/h (3 Bft) SO 135 1 min 0,000 mm 0,7 UV-I 248 W/m -3,7 C -5,2 C 16,1 km/h (3 Bft) 95,65 %
11.12.2019 11:50 -1,0 C 83 % 1018,6 hPa 0,0 l/m 11,3 km/h (2 Bft) SO 135 1 min 0,000 mm 0,7 UV-I 234 W/m -3,5 C -4,8 C 16,1 km/h (3 Bft) 86,96 %
11.12.2019 11:49 -1,1 C 82 % 1018,5 hPa 0,0 l/m 11,3 km/h (2 Bft) SO 135 1 min 0,000 mm 0,7 UV-I 274 W/m -3,8 C -5,0 C 12,9 km/h (3 Bft) 86,96 %
11.12.2019 11:48 -1,1 C 82 % 1018,6 hPa 0,0 l/m 12,9 km/h (3 Bft) O-SO 112 1 min 0,000 mm 0,7 UV-I 283 W/m -3,8 C -5,3 C 14,5 km/h (3 Bft) 100,00 %
11.12.2019 11:47 -1,1 C 82 % 1018,6 hPa 0,0 l/m 12,9 km/h (3 Bft) O-SO 112 1 min 0,000 mm 0,7 UV-I 283 W/m -3,8 C -5,3 C 16,1 km/h (3 Bft) 100,00 %
11.12.2019 11:46 -1,1 C 82 % 1018,6 hPa 0,0 l/m 14,5 km/h (3 Bft) O-SO 112 1 min 0,000 mm 0,7 UV-I 281 W/m -3,8 C -5,7 C 17,7 km/h (3 Bft) 100,00 %
11.12.2019 11:45 -1,1 C 81 % 1018,6 hPa 0,0 l/m 14,5 km/h (3 Bft) O-SO 112 1 min 0,000 mm 0,7 UV-I 279 W/m -3,9 C -5,7 C 17,7 km/h (3 Bft) 95,65 %
11.12.2019 11:44 -1,2 C 81 % 1018,6 hPa 0,0 l/m 14,5 km/h (3 Bft) SO 135 1 min 0,000 mm 0,7 UV-I 279 W/m -4,0 C -5,8 C 17,7 km/h (3 Bft) 100,00 %
11.12.2019 11:43 -1,2 C 82 % 1018,6 hPa 0,0 l/m 16,1 km/h (3 Bft) O-SO 112 1 min 0,000 mm 0,7 UV-I 279 W/m -3,9 C -6,1 C 16,1 km/h (3 Bft) 95,65 %
11.12.2019 11:42 -1,2 C 82 % 1018,6 hPa 0,0 l/m 16,1 km/h (3 Bft) SO 135 1 min 0,000 mm 0,7 UV-I 279 W/m -3,9 C -6,1 C 19,3 km/h (3 Bft) 95,65 %
11.12.2019 11:41 -1,2 C 82 % 1018,6 hPa 0,0 l/m 16,1 km/h (3 Bft) SO 135 1 min 0,000 mm 0,7 UV-I 279 W/m -3,9 C -6,1 C 19,3 km/h (3 Bft) 95,65 %
11.12.2019 11:40 -1,3 C 80 % 1018,6 hPa 0,0 l/m 16,1 km/h (3 Bft) O-SO 112 1 min 0,000 mm 0,7 UV-I 279 W/m -4,3 C -6,2 C 19,3 km/h (3 Bft) 95,65 %
11.12.2019 11:39 -1,3 C 80 % 1018,6 hPa 0,0 l/m 16,1 km/h (3 Bft) O-SO 112 1 min 0,000 mm 0,7 UV-I 279 W/m -4,3 C -6,2 C 19,3 km/h (3 Bft) 100,00 %
11.12.2019 11:38 -1,3 C 81 % 1018,7 hPa 0,0 l/m 17,7 km/h (3 Bft) O-SO 112 1 min 0,000 mm 0,7 UV-I 278 W/m -4,1 C -6,5 C 20,9 km/h (4 Bft) 95,65 %
11.12.2019 11:37 -1,3 C 80 % 1018,6 hPa 0,0 l/m 16,1 km/h (3 Bft) O-SO 112 1 min 0,000 mm 0,7 UV-I 278 W/m -4,3 C -6,2 C 20,9 km/h (4 Bft) 100,00 %
11.12.2019 11:36 -1,3 C 81 % 1018,7 hPa 0,0 l/m 17,7 km/h (3 Bft) O-SO 112 1 min 0,000 mm 0,7 UV-I 278 W/m -4,1 C -6,5 C 19,3 km/h (3 Bft) 100,00 %
11.12.2019 11:35 -1,3 C 82 % 1018,8 hPa 0,0 l/m 16,1 km/h (3 Bft) O-SO 112 1 min 0,000 mm 0,7 UV-I 276 W/m -4,0 C -6,2 C 17,7 km/h (3 Bft) 95,65 %
11.12.2019 11:34 -1,3 C 82 % 1018,7 hPa 0,0 l/m 16,1 km/h (3 Bft) SO 135 1 min 0,000 mm 0,7 UV-I 276 W/m -4,0 C -6,2 C 17,7 km/h (3 Bft) 100,00 %
11.12.2019 11:33 -1,3 C 81 % 1018,8 hPa 0,0 l/m 14,5 km/h (3 Bft) O-SO 112 1 min 0,000 mm 0,7 UV-I 274 W/m -4,1 C -5,9 C 17,7 km/h (3 Bft) 100,00 %
11.12.2019 11:32 -1,4 C 82 % 1018,8 hPa 0,0 l/m 16,1 km/h (3 Bft) O-SO 112 1 min 0,000 mm 0,7 UV-I 272 W/m -4,1 C -6,4 C 17,7 km/h (3 Bft) 100,00 %
11.12.2019 11:31 -1,4 C 82 % 1018,8 hPa 0,0 l/m 14,5 km/h (3 Bft) SO 135 1 min 0,000 mm 0,7 UV-I 265 W/m -4,1 C -6,0 C 17,7 km/h (3 Bft) 95,65 %
11.12.2019 11:30 -1,4 C 81 % 1018,9 hPa 0,0 l/m 14,5 km/h (3 Bft) SO 135 1 min 0,000 mm 0,7 UV-I 264 W/m -4,2 C -6,0 C 17,7 km/h (3 Bft) 100,00 %
11.12.2019 11:29 -1,4 C 81 % 1018,8 hPa 0,0 l/m 14,5 km/h (3 Bft) SO 135 1 min 0,000 mm 0,7 UV-I 258 W/m -4,2 C -6,0 C 17,7 km/h (3 Bft) 100,00 %
11.12.2019 11:28 -1,4 C 81 % 1018,9 hPa 0,0 l/m 16,1 km/h (3 Bft) O-SO 112 1 min 0,000 mm 0,6 UV-I 257 W/m -4,2 C -6,4 C 17,7 km/h (3 Bft) 95,65 %
11.12.2019 11:27 -1,4 C 81 % 1018,9 hPa 0,0 l/m 16,1 km/h (3 Bft) O-SO 112 1 min 0,000 mm 0,6 UV-I 255 W/m -4,2 C -6,4 C 20,9 km/h (4 Bft) 100,00 %
11.12.2019 11:26 -1,4 C 82 % 1018,8 hPa 0,0 l/m 19,3 km/h (3 Bft) O-SO 112 1 min 0,000 mm 0,6 UV-I 257 W/m -4,1 C -6,9 C 22,5 km/h (4 Bft) 100,00 %
11.12.2019 11:25 -1,4 C 82 % 1018,8 hPa 0,0 l/m 17,7 km/h (3 Bft) O-SO 112 1 min 0,000 mm 0,6 UV-I 251 W/m -4,1 C -6,6 C 20,9 km/h (4 Bft) 95,65 %
11.12.2019 11:24 -1,4 C 82 % 1018,9 hPa 0,0 l/m 17,7 km/h (3 Bft) SO 135 1 min 0,000 mm 0,6 UV-I 251 W/m -4,1 C -6,6 C 20,9 km/h (4 Bft) 95,65 %
11.12.2019 11:23 -1,4 C 81 % 1018,9 hPa 0,0 l/m 17,7 km/h (3 Bft) O-SO 112 1 min 0,000 mm 0,6 UV-I 248 W/m -4,2 C -6,6 C 20,9 km/h (4 Bft) 100,00 %
11.12.2019 11:22 -1,4 C 82 % 1018,9 hPa 0,0 l/m 20,9 km/h (4 Bft) O-SO 112 1 min 0,000 mm 0,6 UV-I 250 W/m -4,1 C -7,1 C 24,1 km/h (4 Bft) 100,00 %
11.12.2019 11:21 -1,4 C 82 % 1018,9 hPa 0,0 l/m 19,3 km/h (3 Bft) O-SO 112 1 min 0,000 mm 0,6 UV-I 251 W/m -4,1 C -6,9 C 24,1 km/h (4 Bft) 100,00 %
11.12.2019 11:20 -1,4 C 83 % 1018,9 hPa 0,0 l/m 20,9 km/h (4 Bft) SO 135 1 min 0,000 mm 0,6 UV-I 253 W/m -3,9 C -7,1 C 24,1 km/h (4 Bft) 100,00 %
11.12.2019 11:19 -1,4 C 83 % 1018,9 hPa 0,0 l/m 19,3 km/h (3 Bft) SO 135 1 min 0,000 mm 0,6 UV-I 253 W/m -3,9 C -6,9 C 22,5 km/h (4 Bft) 86,96 %
11.12.2019 11:18 -1,4 C 83 % 1018,9 hPa 0,0 l/m 19,3 km/h (3 Bft) SO 135 1 min 0,000 mm 0,6 UV-I 255 W/m -3,9 C -6,9 C 22,5 km/h (4 Bft) 91,30 %
11.12.2019 11:17 -1,4 C 83 % 1018,9 hPa 0,0 l/m 19,3 km/h (3 Bft) SO 135 1 min 0,000 mm 0,6 UV-I 257 W/m -3,9 C -6,9 C 24,1 km/h (4 Bft) 100,00 %
11.12.2019 11:16 -1,4 C 84 % 1019,0 hPa 0,0 l/m 20,9 km/h (4 Bft) O-SO 112 1 min 0,000 mm 0,6 UV-I 257 W/m -3,7 C -7,1 C 25,7 km/h (4 Bft) 100,00 %
11.12.2019 11:15 -1,4 C 84 % 1019,0 hPa 0,0 l/m 19,3 km/h (3 Bft) O-SO 112 1 min 0,000 mm 0,6 UV-I 250 W/m -3,7 C -6,9 C 24,1 km/h (4 Bft) 95,65 %
11.12.2019 11:14 -1,4 C 84 % 1019,1 hPa 0,0 l/m 17,7 km/h (3 Bft) O-SO 112 1 min 0,000 mm 0,6 UV-I 257 W/m -3,7 C -6,6 C 20,9 km/h (4 Bft) 91,30 %
11.12.2019 11:13 -1,5 C 84 % 1019,1 hPa 0,0 l/m 19,3 km/h (3 Bft) O-SO 112 1 min 0,000 mm 0,6 UV-I 257 W/m -3,8 C -7,0 C 24,1 km/h (4 Bft) 100,00 %
11.12.2019 11:12 -1,6 C 86 % 1019,2 hPa 0,0 l/m 17,7 km/h (3 Bft) O-SO 112 1 min 0,000 mm 0,6 UV-I 255 W/m -3,6 C -6,9 C 20,9 km/h (4 Bft) 100,00 %
11.12.2019 11:11 -1,6 C 85 % 1019,3 hPa 0,0 l/m 16,1 km/h (3 Bft) O-SO 112 1 min 0,000 mm 0,6 UV-I 253 W/m -3,8 C -6,6 C 17,7 km/h (3 Bft) 100,00 %
11.12.2019 11:10 -1,6 C 84 % 1019,4 hPa 0,0 l/m 14,5 km/h (3 Bft) O-SO 112 1 min 0,000 mm 0,6 UV-I 253 W/m -3,9 C -6,3 C 17,7 km/h (3 Bft) 100,00 %
11.12.2019 11:09 -1,6 C 85 % 1019,4 hPa 0,0 l/m 16,1 km/h (3 Bft) O-SO 112 1 min 0,000 mm 0,6 UV-I 253 W/m -3,8 C -6,6 C 17,7 km/h (3 Bft) 95,65 %
11.12.2019 11:08 -1,6 C 87 % 1019,4 hPa 0,0 l/m 17,7 km/h (3 Bft) SO 135 1 min 0,000 mm 0,6 UV-I 253 W/m -3,5 C -6,9 C 22,5 km/h (4 Bft) 100,00 %
11.12.2019 11:07 -1,6 C 87 % 1019,5 hPa 0,0 l/m 16,1 km/h (3 Bft) O-SO 112 1 min 0,000 mm 0,6 UV-I 251 W/m -3,5 C -6,6 C 17,7 km/h (3 Bft) 100,00 %
11.12.2019 11:06 -1,7 C 86 % 1019,5 hPa 0,0 l/m 16,1 km/h (3 Bft) O-SO 112 1 min 0,000 mm 0,6 UV-I 251 W/m -3,7 C -6,7 C 20,9 km/h (4 Bft) 95,65 %
11.12.2019 11:05 -1,7 C 85 % 1019,5 hPa 0,0 l/m 16,1 km/h (3 Bft) SO 135 1 min 0,000 mm 0,6 UV-I 253 W/m -3,9 C -6,7 C 19,3 km/h (3 Bft) 100,00 %
11.12.2019 11:04 -1,7 C 85 % 1019,5 hPa 0,0 l/m 17,7 km/h (3 Bft) SO 135 1 min 0,000 mm 0,6 UV-I 251 W/m -3,9 C -7,0 C 19,3 km/h (3 Bft) 100,00 %
11.12.2019 11:03 -1,7 C 85 % 1019,5 hPa 0,0 l/m 19,3 km/h (3 Bft) O-SO 112 1 min 0,000 mm 0,6 UV-I 250 W/m -3,9 C -7,3 C 22,5 km/h (4 Bft) 100,00 %
11.12.2019 11:02 -1,7 C 85 % 1019,6 hPa 0,0 l/m 17,7 km/h (3 Bft) O-SO 112 1 min 0,000 mm 0,6 UV-I 251 W/m -3,9 C -7,0 C 20,9 km/h (4 Bft) 100,00 %
11.12.2019 11:01 -1,7 C 85 % 1019,6 hPa 0,0 l/m 19,3 km/h (3 Bft) SO 135 1 min 0,000 mm 0,6 UV-I 251 W/m -3,9 C -7,3 C 24,1 km/h (4 Bft) 91,30 %
11.12.2019 11:00 -1,8 C 86 % 1019,5 hPa 0,0 l/m 19,3 km/h (3 Bft) SO 135 1 min 0,076 mm 0,6 UV-I 250 W/m -3,8 C -7,4 C 22,5 km/h (4 Bft) 100,00 %
11.12.2019 10:59 -1,8 C 86 % 1019,5 hPa 0,0 l/m 19,3 km/h (3 Bft) O-SO 112 1 min 0,000 mm 0,6 UV-I 250 W/m -3,8 C -7,4 C 22,5 km/h (4 Bft) 100,00 %
11.12.2019 10:58 -1,8 C 87 % 1019,5 hPa 0,0 l/m 20,9 km/h (4 Bft) SO 135 1 min 0,000 mm 0,6 UV-I 250 W/m -3,7 C -7,7 C 22,5 km/h (4 Bft) 100,00 %
11.12.2019 10:57 -1,8 C 87 % 1019,6 hPa 0,0 l/m 19,3 km/h (3 Bft) SO 135 1 min 0,000 mm 0,6 UV-I 248 W/m -3,7 C -7,4 C 22,5 km/h (4 Bft) 95,65 %
11.12.2019 10:56 -1,8 C 87 % 1019,6 hPa 0,0 l/m 19,3 km/h (3 Bft) O-SO 112 1 min 0,000 mm 0,6 UV-I 248 W/m -3,7 C -7,4 C 22,5 km/h (4 Bft) 100,00 %
11.12.2019 10:55 -1,8 C 87 % 1019,6 hPa 0,0 l/m 19,3 km/h (3 Bft) O-SO 112 1 min 0,000 mm 0,6 UV-I 239 W/m -3,7 C -7,4 C 20,9 km/h (4 Bft) 100,00 %
11.12.2019 10:54 -1,8 C 86 % 1019,7 hPa 0,0 l/m 20,9 km/h (4 Bft) O-SO 112 1 min 0,000 mm 0,6 UV-I 229 W/m -3,8 C -7,7 C 25,7 km/h (4 Bft) 100,00 %
11.12.2019 10:53 -1,8 C 87 % 1019,7 hPa 0,0 l/m 20,9 km/h (4 Bft) SO 135 1 min 0,000 mm 0,6 UV-I 225 W/m -3,7 C -7,7 C 24,1 km/h (4 Bft) 100,00 %
11.12.2019 10:52 -1,8 C 87 % 1019,6 hPa 0,0 l/m 20,9 km/h (4 Bft) O-SO 112 1 min 0,000 mm 0,6 UV-I 248 W/m -3,7 C -7,7 C 25,7 km/h (4 Bft) 100,00 %
11.12.2019 10:51 -1,9 C 87 % 1019,7 hPa 0,0 l/m 20,9 km/h (4 Bft) O-SO 112 1 min 0,000 mm 0,6 UV-I 258 W/m -3,8 C -7,8 C 22,5 km/h (4 Bft) 100,00 %
11.12.2019 10:50 -1,9 C 87 % 1019,7 hPa 0,0 l/m 22,5 km/h (4 Bft) O-SO 112 1 min 0,000 mm 0,6 UV-I 260 W/m -3,8 C -8,0 C 24,1 km/h (4 Bft) 95,65 %
11.12.2019 10:49 -1,9 C 87 % 1019,7 hPa 0,0 l/m 22,5 km/h (4 Bft) SO 135 1 min 0,000 mm 0,6 UV-I 258 W/m -3,8 C -8,0 C 25,7 km/h (4 Bft) 100,00 %
11.12.2019 10:48 -2,0 C 86 % 1019,8 hPa 0,0 l/m 20,9 km/h (4 Bft) O-SO 112 1 min 0,000 mm 0,6 UV-I 258 W/m -4,0 C -7,9 C 24,1 km/h (4 Bft) 100,00 %
11.12.2019 10:47 -2,1 C 86 % 1019,8 hPa 0,0 l/m 22,5 km/h (4 Bft) O-SO 112 1 min 0,000 mm 0,6 UV-I 257 W/m -4,1 C -8,3 C 29,0 km/h (5 Bft) 95,65 %
11.12.2019 10:46 -2,1 C 87 % 1019,9 hPa 0,0 l/m 24,1 km/h (4 Bft) O-SO 112 1 min 0,000 mm 0,6 UV-I 255 W/m -4,0 C -8,5 C 29,0 km/h (5 Bft) 95,65 %
11.12.2019 10:45 -2,1 C 88 % 1019,9 hPa 0,0 l/m 20,9 km/h (4 Bft) O-SO 112 1 min 0,000 mm 0,6 UV-I 255 W/m -3,8 C -8,0 C 25,7 km/h (4 Bft) 95,65 %
11.12.2019 10:44 -2,1 C 87 % 1020,0 hPa 0,0 l/m 19,3 km/h (3 Bft) O-SO 112 1 min 0,000 mm 0,6 UV-I 248 W/m -4,0 C -7,8 C 20,9 km/h (4 Bft) 100,00 %
11.12.2019 10:43 -2,1 C 88 % 1020,0 hPa 0,0 l/m 19,3 km/h (3 Bft) O-SO 112 1 min 0,000 mm 0,5 UV-I 246 W/m -3,8 C -7,8 C 24,1 km/h (4 Bft) 100,00 %
11.12.2019 10:42 -2,1 C 87 % 1020,0 hPa 0,0 l/m 17,7 km/h (3 Bft) SO 135 1 min 0,000 mm 0,5 UV-I 246 W/m -4,0 C -7,5 C 19,3 km/h (3 Bft) 100,00 %
11.12.2019 10:41 -2,1 C 87 % 1020,0 hPa 0,0 l/m 19,3 km/h (3 Bft) O-SO 112 1 min 0,000 mm 0,5 UV-I 246 W/m -4,0 C -7,8 C 22,5 km/h (4 Bft) 100,00 %
11.12.2019 10:40 -2,2 C 87 % 1020,0 hPa 0,0 l/m 20,9 km/h (4 Bft) O-SO 112 1 min 0,000 mm 0,5 UV-I 244 W/m -4,1 C -8,2 C 22,5 km/h (4 Bft) 95,65 %
11.12.2019 10:39 -2,2 C 87 % 1020,1 hPa 0,0 l/m 19,3 km/h (3 Bft) O-SO 112 1 min 0,000 mm 0,5 UV-I 244 W/m -4,1 C -7,9 C 22,5 km/h (4 Bft) 100,00 %
11.12.2019 10:38 -2,2 C 87 % 1020,0 hPa 0,0 l/m 16,1 km/h (3 Bft) O-SO 112 1 min 0,000 mm 0,5 UV-I 244 W/m -4,1 C -7,3 C 19,3 km/h (3 Bft) 100,00 %
11.12.2019 10:37 -2,2 C 87 % 1020,1 hPa 0,0 l/m 17,7 km/h (3 Bft) O-SO 112 1 min 0,000 mm 0,5 UV-I 243 W/m -4,1 C -7,6 C 20,9 km/h (4 Bft) 100,00 %
11.12.2019 10:36 -2,3 C 88 % 1020,1 hPa 0,0 l/m 16,1 km/h (3 Bft) O-SO 112 1 min 0,000 mm 0,5 UV-I 239 W/m -4,0 C -7,5 C 19,3 km/h (3 Bft) 100,00 %
11.12.2019 10:35 -2,3 C 87 % 1020,1 hPa 0,0 l/m 16,1 km/h (3 Bft) O-SO 112 1 min 0,000 mm 0,5 UV-I 236 W/m -4,2 C -7,5 C 17,7 km/h (3 Bft) 95,65 %
11.12.2019 10:34 -2,4 C 87 % 1020,1 hPa 0,0 l/m 16,1 km/h (3 Bft) O-SO 112 1 min 0,000 mm 0,5 UV-I 234 W/m -4,3 C -7,6 C 19,3 km/h (3 Bft) 100,00 %
11.12.2019 10:33 -2,4 C 87 % 1020,1 hPa 0,0 l/m 16,1 km/h (3 Bft) SO 135 1 min 0,000 mm 0,5 UV-I 230 W/m -4,3 C -7,6 C 19,3 km/h (3 Bft) 100,00 %
11.12.2019 10:32 -2,4 C 87 % 1020,1 hPa 0,0 l/m 17,7 km/h (3 Bft) SO 135 1 min 0,000 mm 0,5 UV-I 227 W/m -4,3 C -7,9 C 19,3 km/h (3 Bft) 95,65 %
11.12.2019 10:31 -2,4 C 87 % 1020,2 hPa 0,0 l/m 17,7 km/h (3 Bft) SO 135 1 min 0,000 mm 0,5 UV-I 227 W/m -4,3 C -7,9 C 19,3 km/h (3 Bft) 100,00 %
11.12.2019 10:30 -2,4 C 88 % 1020,1 hPa 0,0 l/m 19,3 km/h (3 Bft) O-SO 112 1 min 0,000 mm 0,5 UV-I 225 W/m -4,1 C -8,2 C 22,5 km/h (4 Bft) 100,00 %
11.12.2019 10:29 -2,4 C 88 % 1020,1 hPa 0,0 l/m 19,3 km/h (3 Bft) O-SO 112 1 min 0,000 mm 0,5 UV-I 223 W/m -4,1 C -8,2 C 22,5 km/h (4 Bft) 100,00 %
11.12.2019 10:28 -2,4 C 88 % 1020,2 hPa 0,0 l/m 22,5 km/h (4 Bft) SO 135 1 min 0,000 mm 0,5 UV-I 216 W/m -4,1 C -8,6 C 25,7 km/h (4 Bft) 100,00 %
11.12.2019 10:27 -2,4 C 88 % 1020,2 hPa 0,0 l/m 20,9 km/h (4 Bft) O-SO 112 1 min 0,000 mm 0,5 UV-I 218 W/m -4,1 C -8,4 C 24,1 km/h (4 Bft) 100,00 %
11.12.2019 10:26 -2,4 C 87 % 1020,2 hPa 0,0 l/m 20,9 km/h (4 Bft) SO 135 1 min 0,000 mm 0,5 UV-I 218 W/m -4,3 C -8,4 C 25,7 km/h (4 Bft) 100,00 %
11.12.2019 10:25 -2,4 C 88 % 1020,1 hPa 0,0 l/m 20,9 km/h (4 Bft) O-SO 112 1 min 0,000 mm 0,5 UV-I 220 W/m -4,1 C -8,4 C 24,1 km/h (4 Bft) 95,65 %
11.12.2019 10:24 -2,3 C 89 % 1020,3 hPa 0,0 l/m 20,9 km/h (4 Bft) O-SO 112 1 min 0,000 mm 0,5 UV-I 218 W/m -3,9 C -8,3 C 24,1 km/h (4 Bft) 100,00 %
11.12.2019 10:23 -2,3 C 89 % 1020,3 hPa 0,0 l/m 19,3 km/h (3 Bft) O-SO 112 1 min 0,000 mm 0,5 UV-I 213 W/m -3,9 C -8,0 C 22,5 km/h (4 Bft) 100,00 %
11.12.2019 10:22 -2,4 C 89 % 1020,3 hPa 0,0 l/m 19,3 km/h (3 Bft) O-SO 112 1 min 0,000 mm 0,5 UV-I 211 W/m -4,0 C -8,2 C 20,9 km/h (4 Bft) 100,00 %
11.12.2019 10:21 -2,4 C 88 % 1020,4 hPa 0,0 l/m 19,3 km/h (3 Bft) SO 135 1 min 0,000 mm 0,5 UV-I 213 W/m -4,1 C -8,2 C 22,5 km/h (4 Bft) 100,00 %
11.12.2019 10:20 -2,4 C 88 % 1020,4 hPa 0,0 l/m 19,3 km/h (3 Bft) O-SO 112 1 min 0,000 mm 0,5 UV-I 211 W/m -4,1 C -8,2 C 20,9 km/h (4 Bft) 95,65 %
11.12.2019 10:19 -2,4 C 88 % 1020,4 hPa 0,0 l/m 20,9 km/h (4 Bft) O-SO 112 1 min 0,000 mm 0,5 UV-I 213 W/m -4,1 C -8,4 C 24,1 km/h (4 Bft) 100,00 %
11.12.2019 10:18 -2,4 C 89 % 1020,5 hPa 0,0 l/m 22,5 km/h (4 Bft) O-SO 112 1 min 0,000 mm 0,0 UV-I 207 W/m -4,0 C -8,6 C 25,7 km/h (4 Bft) 100,00 %
11.12.2019 10:17 -2,3 C 89 % 1020,5 hPa 0,0 l/m 20,9 km/h (4 Bft) SO 135 1 min 0,000 mm 0,0 UV-I 207 W/m -3,9 C -8,3 C 24,1 km/h (4 Bft) 100,00 %
11.12.2019 10:16 -2,3 C 89 % 1020,5 hPa 0,0 l/m 19,3 km/h (3 Bft) SO 135 1 min 0,000 mm 0,0 UV-I 207 W/m -3,9 C -8,0 C 20,9 km/h (4 Bft) 100,00 %
11.12.2019 10:15 -2,3 C 89 % 1020,6 hPa 0,0 l/m 17,7 km/h (3 Bft) SO 135 1 min 0,000 mm 0,0 UV-I 209 W/m -3,9 C -7,8 C 19,3 km/h (3 Bft) 95,65 %
11.12.2019 10:14 -2,4 C 89 % 1020,6 hPa 0,0 l/m 17,7 km/h (3 Bft) O-SO 112 1 min 0,000 mm 0,0 UV-I 204 W/m -4,0 C -7,9 C 20,9 km/h (4 Bft) 100,00 %
11.12.2019 10:13 -2,4 C 88 % 1020,7 hPa 0,0 l/m 19,3 km/h (3 Bft) O-SO 112 1 min 0,000 mm 0,0 UV-I 204 W/m -4,1 C -8,2 C 25,7 km/h (4 Bft) 100,00 %
11.12.2019 10:12 -2,4 C 90 % 1020,6 hPa 0,0 l/m 20,9 km/h (4 Bft) O-SO 112 1 min 0,000 mm 0,0 UV-I 202 W/m -3,8 C -8,4 C 25,7 km/h (4 Bft) 100,00 %
11.12.2019 10:11 -2,4 C 89 % 1020,7 hPa 0,0 l/m 17,7 km/h (3 Bft) O-SO 112 1 min 0,000 mm 0,0 UV-I 202 W/m -4,0 C -7,9 C 20,9 km/h (4 Bft) 95,65 %
11.12.2019 10:10 -2,4 C 90 % 1020,7 hPa 0,0 l/m 17,7 km/h (3 Bft) O-SO 112 1 min 0,000 mm 0,0 UV-I 200 W/m -3,8 C -7,9 C 19,3 km/h (3 Bft) 100,00 %
11.12.2019 10:09 -2,4 C 90 % 1020,7 hPa 0,0 l/m 16,1 km/h (3 Bft) O-SO 112 1 min 0,000 mm 0,0 UV-I 199 W/m -3,8 C -7,6 C 19,3 km/h (3 Bft) 100,00 %
11.12.2019 10:08 -2,5 C 90 % 1020,7 hPa 0,0 l/m 19,3 km/h (3 Bft) O-SO 112 1 min 0,000 mm 0,0 UV-I 197 W/m -3,9 C -8,3 C 22,5 km/h (4 Bft) 95,65 %
11.12.2019 10:07 -2,5 C 90 % 1020,7 hPa 0,0 l/m 16,1 km/h (3 Bft) O-SO 112 1 min 0,000 mm 0,0 UV-I 195 W/m -3,9 C -7,7 C 17,7 km/h (3 Bft) 100,00 %
11.12.2019 10:06 -2,6 C 90 % 1020,8 hPa 0,0 l/m 17,7 km/h (3 Bft) O-SO 112 1 min 0,000 mm 0,0 UV-I 195 W/m -4,0 C -8,1 C 22,5 km/h (4 Bft) 100,00 %
11.12.2019 10:05 -2,6 C 91 % 1020,8 hPa 0,0 l/m 17,7 km/h (3 Bft) SO 135 1 min 0,000 mm 0,0 UV-I 193 W/m -3,9 C -8,1 C 22,5 km/h (4 Bft) 100,00 %
11.12.2019 10:04 -2,6 C 91 % 1020,9 hPa 0,0 l/m 16,1 km/h (3 Bft) O-SO 112 1 min 0,000 mm 0,0 UV-I 193 W/m -3,9 C -7,8 C 16,1 km/h (3 Bft) 95,65 %
11.12.2019 10:03 -2,6 C 91 % 1020,8 hPa 0,0 l/m 16,1 km/h (3 Bft) O-SO 112 1 min 0,000 mm 0,0 UV-I 190 W/m -3,9 C -7,8 C 20,9 km/h (4 Bft) 100,00 %
11.12.2019 10:02 -2,7 C 91 % 1020,8 hPa 0,0 l/m 14,5 km/h (3 Bft) O-SO 112 1 min 0,000 mm 0,0 UV-I 188 W/m -4,0 C -7,6 C 17,7 km/h (3 Bft) 100,00 %
11.12.2019 10:01 -2,7 C 91 % 1020,9 hPa 0,0 l/m 16,1 km/h (3 Bft) O-SO 112 1 min 0,000 mm 0,0 UV-I 186 W/m -4,0 C -8,0 C 17,7 km/h (3 Bft) 100,00 %
11.12.2019 10:00 -2,7 C 91 % 1020,9 hPa 0,0 l/m 16,1 km/h (3 Bft) O-SO 112 1 min 0,051 mm 0,0 UV-I 185 W/m -4,0 C -8,0 C 19,3 km/h (3 Bft) 100,00 %
11.12.2019 09:59 -2,7 C 91 % 1020,9 hPa 0,0 l/m 14,5 km/h (3 Bft) O-SO 112 1 min 0,000 mm 0,0 UV-I 183 W/m -4,0 C -7,6 C 16,1 km/h (3 Bft) 95,65 %
11.12.2019 09:58 -2,7 C 92 % 1020,9 hPa 0,0 l/m 14,5 km/h (3 Bft) O-SO 112 1 min 0,000 mm 0,0 UV-I 181 W/m -3,8 C -7,6 C 16,1 km/h (3 Bft) 100,00 %
11.12.2019 09:57 -2,7 C 92 % 1020,9 hPa 0,0 l/m 12,9 km/h (3 Bft) O-SO 112 1 min 0,000 mm 0,0 UV-I 179 W/m -3,8 C -7,3 C 14,5 km/h (3 Bft) 100,00 %
11.12.2019 09:56 -2,7 C 92 % 1020,9 hPa 0,0 l/m 14,5 km/h (3 Bft) O-SO 112 1 min 0,000 mm 0,0 UV-I 178 W/m -3,8 C -7,6 C 16,1 km/h (3 Bft) 100,00 %
11.12.2019 09:55 -2,8 C 92 % 1020,9 hPa 0,0 l/m 14,5 km/h (3 Bft) O-SO 112 1 min 0,000 mm 0,0 UV-I 178 W/m -3,9 C -7,8 C 16,1 km/h (3 Bft) 100,00 %
11.12.2019 09:54 -2,7 C 92 % 1021,0 hPa 0,0 l/m 16,1 km/h (3 Bft) O-SO 112 1 min 0,000 mm 0,0 UV-I 176 W/m -3,8 C -8,0 C 17,7 km/h (3 Bft) 100,00 %
11.12.2019 09:53 -2,8 C 92 % 1020,9 hPa 0,0 l/m 14,5 km/h (3 Bft) O-SO 112 1 min 0,000 mm 0,0 UV-I 172 W/m -3,9 C -7,8 C 17,7 km/h (3 Bft) 100,00 %
11.12.2019 09:52 -2,8 C 92 % 1020,9 hPa 0,0 l/m 12,9 km/h (3 Bft) O-SO 112 1 min 0,000 mm 0,0 UV-I 171 W/m -3,9 C -7,4 C 14,5 km/h (3 Bft) 91,30 %
11.12.2019 09:51 -2,8 C 92 % 1020,9 hPa 0,0 l/m 14,5 km/h (3 Bft) O-SO 112 1 min 0,000 mm 0,0 UV-I 171 W/m -3,9 C -7,8 C 16,1 km/h (3 Bft) 100,00 %
11.12.2019 09:50 -2,8 C 92 % 1020,9 hPa 0,0 l/m 12,9 km/h (3 Bft) SO 135 1 min 0,000 mm 0,0 UV-I 171 W/m -3,9 C -7,4 C 16,1 km/h (3 Bft) 100,00 %
11.12.2019 09:49 -2,9 C 92 % 1020,8 hPa 0,0 l/m 12,9 km/h (3 Bft) O-SO 112 1 min 0,000 mm 0,0 UV-I 169 W/m -4,0 C -7,5 C 14,5 km/h (3 Bft) 95,65 %
11.12.2019 09:48 -2,9 C 92 % 1020,8 hPa 0,0 l/m 14,5 km/h (3 Bft) O-SO 112 1 min 0,000 mm 0,0 UV-I 167 W/m -4,0 C -7,9 C 16,1 km/h (3 Bft) 100,00 %
11.12.2019 09:47 -2,9 C 93 % 1020,9 hPa 0,0 l/m 14,5 km/h (3 Bft) SO 135 1 min 0,000 mm 0,0 UV-I 165 W/m -3,9 C -7,9 C 16,1 km/h (3 Bft) 95,65 %
11.12.2019 09:46 -2,9 C 93 % 1020,9 hPa 0,0 l/m 14,5 km/h (3 Bft) SO 135 1 min 0,000 mm 0,0 UV-I 163 W/m -3,9 C -7,9 C 17,7 km/h (3 Bft) 100,00 %
11.12.2019 09:45 -2,9 C 93 % 1020,9 hPa 0,0 l/m 12,9 km/h (3 Bft) SO 135 1 min 0,000 mm 0,0 UV-I 162 W/m -3,9 C -7,5 C 14,5 km/h (3 Bft) 100,00 %
11.12.2019 09:44 -3,0 C 93 % 1020,9 hPa 0,0 l/m 12,9 km/h (3 Bft) SO 135 1 min 0,000 mm 0,0 UV-I 160 W/m -4,0 C -7,7 C 14,5 km/h (3 Bft) 100,00 %
11.12.2019 09:43 -3,0 C 93 % 1020,8 hPa 0,0 l/m 14,5 km/h (3 Bft) O-SO 112 1 min 0,000 mm 0,0 UV-I 158 W/m -4,0 C -8,0 C 16,1 km/h (3 Bft) 100,00 %
11.12.2019 09:42 -3,0 C 93 % 1020,9 hPa 0,0 l/m 14,5 km/h (3 Bft) SO 135 1 min 0,000 mm 0,0 UV-I 156 W/m -4,0 C -8,0 C 16,1 km/h (3 Bft) 100,00 %
11.12.2019 09:41 -3,1 C 93 % 1020,9 hPa 0,0 l/m 14,5 km/h (3 Bft) SO 135 1 min 0,000 mm 0,0 UV-I 153 W/m -4,1 C -8,1 C 19,3 km/h (3 Bft) 100,00 %
11.12.2019 09:40 -3,1 C 93 % 1020,8 hPa 0,0 l/m 14,5 km/h (3 Bft) SO 135 1 min 0,000 mm 0,0 UV-I 153 W/m -4,1 C -8,1 C 17,7 km/h (3 Bft) 100,00 %
11.12.2019 09:39 -3,1 C 93 % 1020,8 hPa 0,0 l/m 14,5 km/h (3 Bft) O-SO 112 0 min 0,000 mm 0,0 UV-I 149 W/m -4,1 C -8,1 C 19,3 km/h (3 Bft) 95,65 %
11.12.2019 09:38 -3,1 C 93 % 1020,9 hPa 0,0 l/m 14,5 km/h (3 Bft) O-SO 112 0 min 0,000 mm 0,0 UV-I 148 W/m -4,1 C -8,1 C 17,7 km/h (3 Bft) 100,00 %
11.12.2019 09:37 -3,1 C 93 % 1020,9 hPa 0,0 l/m 14,5 km/h (3 Bft) SO 135 0 min 0,000 mm 0,0 UV-I 146 W/m -4,1 C -8,1 C 14,5 km/h (3 Bft) 91,30 %
11.12.2019 09:36 -3,1 C 93 % 1020,9 hPa 0,0 l/m 14,5 km/h (3 Bft) SO 135 0 min 0,000 mm 0,0 UV-I 146 W/m -4,1 C -8,1 C 16,1 km/h (3 Bft) 100,00 %
11.12.2019 09:35 -3,2 C 93 % 1020,9 hPa 0,0 l/m 14,5 km/h (3 Bft) O-SO 112 0 min 0,000 mm 0,0 UV-I 144 W/m -4,2 C -8,3 C 16,1 km/h (3 Bft) 95,65 %
11.12.2019 09:34 -3,2 C 93 % 1021,0 hPa 0,0 l/m 12,9 km/h (3 Bft) SO 135 0 min 0,000 mm 0,0 UV-I 142 W/m -4,2 C -7,9 C 14,5 km/h (3 Bft) 100,00 %
11.12.2019 09:33 -3,2 C 93 % 1020,9 hPa 0,0 l/m 12,9 km/h (3 Bft) O-SO 112 0 min 0,000 mm 0,0 UV-I 139 W/m -4,2 C -7,9 C 16,1 km/h (3 Bft) 100,00 %
11.12.2019 09:32 -3,2 C 93 % 1021,1 hPa 0,0 l/m 12,9 km/h (3 Bft) O-SO 112 0 min 0,000 mm 0,0 UV-I 137 W/m -4,2 C -7,9 C 14,5 km/h (3 Bft) 100,00 %
11.12.2019 09:31 -3,2 C 93 % 1021,0 hPa 0,0 l/m 14,5 km/h (3 Bft) O-SO 112 0 min 0,000 mm 0,0 UV-I 135 W/m -4,2 C -8,3 C 16,1 km/h (3 Bft) 100,00 %
11.12.2019 09:30 -3,2 C 94 % 1021,0 hPa 0,0 l/m 12,9 km/h (3 Bft) SO 135 0 min 0,000 mm 0,0 UV-I 134 W/m -4,0 C -7,9 C 16,1 km/h (3 Bft) 100,00 %
11.12.2019 09:29 -3,2 C 94 % 1021,1 hPa 0,0 l/m 12,9 km/h (3 Bft) O-SO 112 0 min 0,000 mm 0,0 UV-I 134 W/m -4,0 C -7,9 C 16,1 km/h (3 Bft) 100,00 %
11.12.2019 09:28 -3,3 C 94 % 1021,1 hPa 0,0 l/m 12,9 km/h (3 Bft) SO 135 0 min 0,000 mm 0,0 UV-I 130 W/m -4,1 C -8,0 C 14,5 km/h (3 Bft) 91,30 %
11.12.2019 09:27 -3,3 C 94 % 1021,1 hPa 0,0 l/m 12,9 km/h (3 Bft) SO 135 0 min 0,000 mm 0,0 UV-I 128 W/m -4,1 C -8,0 C 14,5 km/h (3 Bft) 100,00 %
11.12.2019 09:26 -3,3 C 94 % 1021,1 hPa 0,0 l/m 12,9 km/h (3 Bft) SO 135 0 min 0,000 mm 0,0 UV-I 127 W/m -4,1 C -8,0 C 14,5 km/h (3 Bft) 100,00 %
11.12.2019 09:25 -3,3 C 94 % 1021,1 hPa 0,0 l/m 12,9 km/h (3 Bft) SO 135 0 min 0,000 mm 0,0 UV-I 125 W/m -4,1 C -8,0 C 14,5 km/h (3 Bft) 100,00 %
11.12.2019 09:24 -3,3 C 94 % 1021,1 hPa 0,0 l/m 12,9 km/h (3 Bft) SO 135 0 min 0,000 mm 0,0 UV-I 125 W/m -4,1 C -8,0 C 14,5 km/h (3 Bft) 100,00 %
11.12.2019 09:23 -3,4 C 94 % 1021,1 hPa 0,0 l/m 12,9 km/h (3 Bft) SO 135 0 min 0,000 mm 0,0 UV-I 123 W/m -4,2 C -8,1 C 16,1 km/h (3 Bft) 100,00 %
11.12.2019 09:22 -3,4 C 94 % 1021,1 hPa 0,0 l/m 12,9 km/h (3 Bft) O-SO 112 0 min 0,000 mm 0,0 UV-I 120 W/m -4,2 C -8,1 C 14,5 km/h (3 Bft) 100,00 %
11.12.2019 09:21 -3,4 C 94 % 1021,1 hPa 0,0 l/m 12,9 km/h (3 Bft) SO 135 0 min 0,000 mm 0,0 UV-I 118 W/m -4,2 C -8,1 C 14,5 km/h (3 Bft) 100,00 %
11.12.2019 09:20 -3,4 C 94 % 1021,2 hPa 0,0 l/m 12,9 km/h (3 Bft) SO 135 0 min 0,000 mm 0,0 UV-I 116 W/m -4,2 C -8,1 C 14,5 km/h (3 Bft) 95,65 %
11.12.2019 09:19 -3,4 C 94 % 1021,1 hPa 0,0 l/m 12,9 km/h (3 Bft) SO 135 0 min 0,000 mm 0,0 UV-I 116 W/m -4,2 C -8,1 C 14,5 km/h (3 Bft) 100,00 %
11.12.2019 09:18 -3,5 C 94 % 1021,1 hPa 0,0 l/m 12,9 km/h (3 Bft) SO 135 0 min 0,000 mm 0,0 UV-I 105 W/m -4,3 C -8,3 C 14,5 km/h (3 Bft) 100,00 %
11.12.2019 09:17 -3,6 C 94 % 1021,2 hPa 0,0 l/m 12,9 km/h (3 Bft) SO 135 0 min 0,000 mm 0,0 UV-I 102 W/m -4,4 C -8,4 C 12,9 km/h (3 Bft) 100,00 %
11.12.2019 09:16 -3,6 C 94 % 1021,2 hPa 0,0 l/m 12,9 km/h (3 Bft) O-SO 112 0 min 0,000 mm 0,0 UV-I 86 W/m -4,4 C -8,4 C 14,5 km/h (3 Bft) 91,30 %
11.12.2019 09:15 -3,6 C 94 % 1021,2 hPa 0,0 l/m 12,9 km/h (3 Bft) O-SO 112 0 min 0,000 mm 0,0 UV-I 84 W/m -4,4 C -8,4 C 14,5 km/h (3 Bft) 100,00 %
11.12.2019 09:14 -3,7 C 94 % 1021,2 hPa 0,0 l/m 11,3 km/h (2 Bft) SO 135 0 min 0,000 mm 0,0 UV-I 79 W/m -4,5 C -8,1 C 14,5 km/h (3 Bft) 100,00 %
11.12.2019 09:13 -3,7 C 94 % 1021,2 hPa 0,0 l/m 11,3 km/h (2 Bft) O-SO 112 0 min 0,000 mm 0,0 UV-I 77 W/m -4,5 C -8,1 C 12,9 km/h (3 Bft) 95,65 %
11.12.2019 09:12 -3,7 C 94 % 1021,3 hPa 0,0 l/m 12,9 km/h (3 Bft) O-SO 112 0 min 0,000 mm 0,0 UV-I 72 W/m -4,5 C -8,5 C 14,5 km/h (3 Bft) 100,00 %
11.12.2019 09:11 -3,7 C 94 % 1021,2 hPa 0,0 l/m 12,9 km/h (3 Bft) O-SO 112 0 min 0,000 mm 0,0 UV-I 70 W/m -4,5 C -8,5 C 14,5 km/h (3 Bft) 91,30 %
11.12.2019 09:10 -3,7 C 94 % 1021,3 hPa 0,0 l/m 12,9 km/h (3 Bft) O-SO 112 0 min 0,000 mm 0,0 UV-I 63 W/m -4,5 C -8,5 C 12,9 km/h (3 Bft) 91,30 %
11.12.2019 09:09 -3,7 C 94 % 1021,2 hPa 0,0 l/m 12,9 km/h (3 Bft) O-SO 112 0 min 0,000 mm 0,0 UV-I 58 W/m -4,5 C -8,5 C 14,5 km/h (3 Bft) 100,00 %
11.12.2019 09:08 -3,8 C 94 % 1021,3 hPa 0,0 l/m 11,3 km/h (2 Bft) O-SO 112 0 min 0,000 mm 0,0 UV-I 56 W/m -4,6 C -8,2 C 12,9 km/h (3 Bft) 100,00 %
11.12.2019 09:07 -3,8 C 95 % 1021,3 hPa 0,0 l/m 11,3 km/h (2 Bft) SO 135 0 min 0,000 mm 0,0 UV-I 58 W/m -4,5 C -8,2 C 12,9 km/h (3 Bft) 100,00 %
11.12.2019 09:06 -3,8 C 95 % 1021,2 hPa 0,0 l/m 11,3 km/h (2 Bft) SO 135 0 min 0,000 mm 0,0 UV-I 56 W/m -4,5 C -8,2 C 12,9 km/h (3 Bft) 95,65 %
11.12.2019 09:05 -3,8 C 95 % 1021,2 hPa 0,0 l/m 11,3 km/h (2 Bft) SO 135 0 min 0,000 mm 0,0 UV-I 56 W/m -4,5 C -8,2 C 12,9 km/h (3 Bft) 95,65 %
11.12.2019 09:04 -3,8 C 95 % 1021,3 hPa 0,0 l/m 11,3 km/h (2 Bft) SO 135 0 min 0,000 mm 0,0 UV-I 56 W/m -4,5 C -8,2 C 12,9 km/h (3 Bft) 95,65 %
11.12.2019 09:03 -3,8 C 95 % 1021,3 hPa 0,0 l/m 12,9 km/h (3 Bft) SO 135 0 min 0,000 mm 0,0 UV-I 54 W/m -4,5 C -8,6 C 14,5 km/h (3 Bft) 100,00 %
11.12.2019 09:02 -3,9 C 95 % 1021,3 hPa 0,0 l/m 11,3 km/h (2 Bft) SO 135 0 min 0,000 mm 0,0 UV-I 54 W/m -4,6 C -8,3 C 14,5 km/h (3 Bft) 100,00 %
11.12.2019 09:01 -3,9 C 95 % 1021,3 hPa 0,0 l/m 11,3 km/h (2 Bft) SO 135 0 min 0,000 mm 0,0 UV-I 53 W/m -4,6 C -8,3 C 14,5 km/h (3 Bft) 100,00 %
11.12.2019 09:00 -3,9 C 95 % 1021,3 hPa 0,0 l/m 11,3 km/h (2 Bft) O-SO 112 0 min 0,000 mm 0,0 UV-I 53 W/m -4,6 C -8,3 C 11,3 km/h (2 Bft) 100,00 %
11.12.2019 08:59 -3,9 C 95 % 1021,3 hPa 0,0 l/m 11,3 km/h (2 Bft) SO 135 0 min 0,000 mm 0,0 UV-I 53 W/m -4,6 C -8,3 C 12,9 km/h (3 Bft) 95,65 %
11.12.2019 08:58 -3,9 C 95 % 1021,3 hPa 0,0 l/m 11,3 km/h (2 Bft) SO 135 0 min 0,000 mm 0,0 UV-I 51 W/m -4,6 C -8,3 C 12,9 km/h (3 Bft) 95,65 %
11.12.2019 08:57 -4,0 C 95 % 1021,3 hPa 0,0 l/m 9,7 km/h (2 Bft) SO 135 0 min 0,000 mm 0,0 UV-I 49 W/m -4,7 C -8,0 C 11,3 km/h (2 Bft) 100,00 %
11.12.2019 08:56 -4,0 C 95 % 1021,3 hPa 0,0 l/m 9,7 km/h (2 Bft) SO 135 0 min 0,000 mm 0,0 UV-I 49 W/m -4,7 C -8,0 C 11,3 km/h (2 Bft) 100,00 %
11.12.2019 08:55 -4,1 C 95 % 1021,4 hPa 0,0 l/m 9,7 km/h (2 Bft) SO 135 0 min 0,000 mm 0,0 UV-I 47 W/m -4,8 C -8,1 C 11,3 km/h (2 Bft) 100,00 %
11.12.2019 08:54 -4,1 C 95 % 1021,4 hPa 0,0 l/m 9,7 km/h (2 Bft) SO 135 0 min 0,000 mm 0,0 UV-I 47 W/m -4,8 C -8,1 C 11,3 km/h (2 Bft) 95,65 %
11.12.2019 08:53 -4,1 C 95 % 1021,5 hPa 0,0 l/m 9,7 km/h (2 Bft) SO 135 0 min 0,000 mm 0,0 UV-I 47 W/m -4,8 C -8,1 C 11,3 km/h (2 Bft) 100,00 %
11.12.2019 08:52 -4,1 C 95 % 1021,5 hPa 0,0 l/m 8,0 km/h (2 Bft) O-SO 112 0 min 0,000 mm 0,0 UV-I 46 W/m -4,8 C -7,6 C 11,3 km/h (2 Bft) 100,00 %
11.12.2019 08:51 -4,1 C 95 % 1021,4 hPa 0,0 l/m 8,0 km/h (2 Bft) SO 135 0 min 0,000 mm 0,0 UV-I 44 W/m -4,8 C -7,6 C 11,3 km/h (2 Bft) 100,00 %
11.12.2019 08:50 -4,2 C 95 % 1021,4 hPa 0,0 l/m 9,7 km/h (2 Bft) SO 135 0 min 0,000 mm 0,0 UV-I 44 W/m -4,9 C -8,2 C 12,9 km/h (3 Bft) 100,00 %
11.12.2019 08:49 -4,2 C 95 % 1021,4 hPa 0,0 l/m 8,0 km/h (2 Bft) SO 135 0 min 0,000 mm 0,0 UV-I 44 W/m -4,9 C -7,7 C 11,3 km/h (2 Bft) 100,00 %
11.12.2019 08:48 -4,2 C 95 % 1021,5 hPa 0,0 l/m 9,7 km/h (2 Bft) SO 135 0 min 0,000 mm 0,0 UV-I 42 W/m -4,9 C -8,2 C 11,3 km/h (2 Bft) 100,00 %
11.12.2019 08:47 -4,2 C 95 % 1021,4 hPa 0,0 l/m 9,7 km/h (2 Bft) SO 135 0 min 0,000 mm 0,0 UV-I 42 W/m -4,9 C -8,2 C 12,9 km/h (3 Bft) 95,65 %
11.12.2019 08:46 -4,2 C 95 % 1021,4 hPa 0,0 l/m 9,7 km/h (2 Bft) SO 135 0 min 0,000 mm 0,0 UV-I 40 W/m -4,9 C -8,2 C 12,9 km/h (3 Bft) 95,65 %
11.12.2019 08:45 -4,2 C 95 % 1021,5 hPa 0,0 l/m 8,0 km/h (2 Bft) SO 135 0 min 0,000 mm 0,0 UV-I 40 W/m -4,9 C -7,7 C 11,3 km/h (2 Bft) 100,00 %
11.12.2019 08:44 -4,2 C 95 % 1021,4 hPa 0,0 l/m 9,7 km/h (2 Bft) O-SO 112 0 min 0,000 mm 0,0 UV-I 40 W/m -4,9 C -8,2 C 11,3 km/h (2 Bft) 95,65 %
11.12.2019 08:43 -4,3 C 95 % 1021,5 hPa 0,0 l/m 11,3 km/h (2 Bft) SO 135 0 min 0,000 mm 0,0 UV-I 39 W/m -5,0 C -8,8 C 12,9 km/h (3 Bft) 100,00 %
11.12.2019 08:42 -4,3 C 95 % 1021,6 hPa 0,0 l/m 11,3 km/h (2 Bft) O-SO 112 0 min 0,000 mm 0,0 UV-I 39 W/m -5,0 C -8,8 C 12,9 km/h (3 Bft) 100,00 %
11.12.2019 08:41 -4,3 C 95 % 1021,6 hPa 0,0 l/m 11,3 km/h (2 Bft) SO 135 0 min 0,000 mm 0,0 UV-I 39 W/m -5,0 C -8,8 C 12,9 km/h (3 Bft) 100,00 %
11.12.2019 08:40 -4,3 C 95 % 1021,7 hPa 0,0 l/m 9,7 km/h (2 Bft) SO 135 0 min 0,000 mm 0,0 UV-I 37 W/m -5,0 C -8,4 C 12,9 km/h (3 Bft) 100,00 %
11.12.2019 08:39 -4,3 C 95 % 1021,6 hPa 0,0 l/m 8,0 km/h (2 Bft) SO 135 0 min 0,000 mm 0,0 UV-I 37 W/m -5,0 C -7,8 C 11,3 km/h (2 Bft) 91,30 %
11.12.2019 08:38 -4,4 C 95 % 1021,7 hPa 0,0 l/m 8,0 km/h (2 Bft) SO 135 0 min 0,000 mm 0,0 UV-I 37 W/m -5,1 C -7,9 C 8,0 km/h (2 Bft) 100,00 %
11.12.2019 08:37 -4,4 C 95 % 1021,7 hPa 0,0 l/m 9,7 km/h (2 Bft) SO 135 0 min 0,000 mm 0,0 UV-I 37 W/m -5,1 C -8,5 C 11,3 km/h (2 Bft) 91,30 %
11.12.2019 08:36 -4,4 C 95 % 1021,7 hPa 0,0 l/m 8,0 km/h (2 Bft) SO 135 0 min 0,000 mm 0,0 UV-I 35 W/m -5,1 C -7,9 C 11,3 km/h (2 Bft) 100,00 %
11.12.2019 08:35 -4,4 C 95 % 1021,8 hPa 0,0 l/m 8,0 km/h (2 Bft) O-SO 112 0 min 0,000 mm 0,0 UV-I 35 W/m -5,1 C -7,9 C 11,3 km/h (2 Bft) 95,65 %
11.12.2019 08:34 -4,5 C 95 % 1021,7 hPa 0,0 l/m 8,0 km/h (2 Bft) O-SO 112 0 min 0,000 mm 0,0 UV-I 35 W/m -5,2 C -8,0 C 11,3 km/h (2 Bft) 100,00 %
11.12.2019 08:33 -4,5 C 95 % 1021,7 hPa 0,0 l/m 9,7 km/h (2 Bft) SO 135 0 min 0,000 mm 0,0 UV-I 33 W/m -5,2 C -8,6 C 11,3 km/h (2 Bft) 100,00 %
11.12.2019 08:32 -4,5 C 95 % 1021,7 hPa 0,0 l/m 9,7 km/h (2 Bft) O-SO 112 0 min 0,000 mm 0,0 UV-I 33 W/m -5,2 C -8,6 C 12,9 km/h (3 Bft) 100,00 %
11.12.2019 08:31 -4,5 C 95 % 1021,7 hPa 0,0 l/m 11,3 km/h (2 Bft) O-SO 112 0 min 0,000 mm 0,0 UV-I 33 W/m -5,2 C -9,1 C 12,9 km/h (3 Bft) 100,00 %
11.12.2019 08:30 -4,6 C 95 % 1021,7 hPa 0,0 l/m 11,3 km/h (2 Bft) SO 135 0 min 0,000 mm 0,0 UV-I 33 W/m -5,3 C -9,2 C 12,9 km/h (3 Bft) 100,00 %
11.12.2019 08:29 -4,6 C 95 % 1021,7 hPa 0,0 l/m 11,3 km/h (2 Bft) SO 135 0 min 0,000 mm 0,0 UV-I 32 W/m -5,3 C -9,2 C 12,9 km/h (3 Bft) 100,00 %
11.12.2019 08:28 -4,6 C 95 % 1021,7 hPa 0,0 l/m 11,3 km/h (2 Bft) O-SO 112 0 min 0,000 mm 0,0 UV-I 32 W/m -5,3 C -9,2 C 12,9 km/h (3 Bft) 100,00 %
11.12.2019 08:27 -4,6 C 95 % 1021,7 hPa 0,0 l/m 11,3 km/h (2 Bft) SO 135 0 min 0,000 mm 0,0 UV-I 30 W/m -5,3 C -9,2 C 12,9 km/h (3 Bft) 100,00 %
11.12.2019 08:26 -4,7 C 95 % 1021,7 hPa 0,0 l/m 11,3 km/h (2 Bft) SO 135 0 min 0,000 mm 0,0 UV-I 30 W/m -5,4 C -9,3 C 12,9 km/h (3 Bft) 100,00 %
11.12.2019 08:25 -4,7 C 95 % 1021,8 hPa 0,0 l/m 11,3 km/h (2 Bft) SO 135 0 min 0,000 mm 0,0 UV-I 30 W/m -5,4 C -9,3 C 14,5 km/h (3 Bft) 100,00 %
11.12.2019 08:24 -4,7 C 95 % 1021,7 hPa 0,0 l/m 11,3 km/h (2 Bft) O-SO 112 0 min 0,000 mm 0,0 UV-I 30 W/m -5,4 C -9,3 C 12,9 km/h (3 Bft) 100,00 %
11.12.2019 08:23 -4,7 C 95 % 1021,8 hPa 0,0 l/m 11,3 km/h (2 Bft) SO 135 0 min 0,000 mm 0,0 UV-I 28 W/m -5,4 C -9,3 C 12,9 km/h (3 Bft) 100,00 %
11.12.2019 08:22 -4,7 C 95 % 1021,8 hPa 0,0 l/m 9,7 km/h (2 Bft) SO 135 0 min 0,000 mm 0,0 UV-I 28 W/m -5,4 C -8,8 C 11,3 km/h (2 Bft) 100,00 %
11.12.2019 08:21 -4,7 C 95 % 1021,7 hPa 0,0 l/m 9,7 km/h (2 Bft) SO 135 0 min 0,000 mm 0,0 UV-I 26 W/m -5,4 C -8,8 C 11,3 km/h (2 Bft) 100,00 %
11.12.2019 08:20 -4,7 C 95 % 1021,7 hPa 0,0 l/m 11,3 km/h (2 Bft) O-SO 112 0 min 0,000 mm 0,0 UV-I 26 W/m -5,4 C -9,3 C 14,5 km/h (3 Bft) 95,65 %
11.12.2019 08:19 -4,8 C 95 % 1021,7 hPa 0,0 l/m 12,9 km/h (3 Bft) O-SO 112 0 min 0,000 mm 0,0 UV-I 26 W/m -5,5 C -9,8 C 12,9 km/h (3 Bft) 100,00 %
11.12.2019 08:18 -4,8 C 95 % 1021,7 hPa 0,0 l/m 11,3 km/h (2 Bft) O-SO 112 0 min 0,000 mm 0,0 UV-I 26 W/m -5,5 C -9,4 C 12,9 km/h (3 Bft) 100,00 %
11.12.2019 08:17 -4,8 C 95 % 1021,8 hPa 0,0 l/m 12,9 km/h (3 Bft) O-SO 112 0 min 0,000 mm 0,0 UV-I 25 W/m -5,5 C -9,8 C 14,5 km/h (3 Bft) 100,00 %
11.12.2019 08:16 -4,8 C 95 % 1021,7 hPa 0,0 l/m 12,9 km/h (3 Bft) O-SO 112 0 min 0,000 mm 0,0 UV-I 25 W/m -5,5 C -9,8 C 14,5 km/h (3 Bft) 100,00 %
11.12.2019 08:15 -4,8 C 95 % 1021,7 hPa 0,0 l/m 12,9 km/h (3 Bft) O-SO 112 0 min 0,000 mm 0,0 UV-I 25 W/m -5,5 C -9,8 C 14,5 km/h (3 Bft) 95,65 %
11.12.2019 08:14 -4,8 C 95 % 1021,7 hPa 0,0 l/m 11,3 km/h (2 Bft) O-SO 112 0 min 0,000 mm 0,0 UV-I 23 W/m -5,5 C -9,4 C 12,9 km/h (3 Bft) 100,00 %
11.12.2019 08:13 -4,8 C 95 % 1021,7 hPa 0,0 l/m 11,3 km/h (2 Bft) O-SO 112 0 min 0,000 mm 0,0 UV-I 23 W/m -5,5 C -9,4 C 12,9 km/h (3 Bft) 100,00 %
11.12.2019 08:12 -4,8 C 95 % 1021,7 hPa 0,0 l/m 11,3 km/h (2 Bft) O-SO 112 0 min 0,000 mm 0,0 UV-I 23 W/m -5,5 C -9,4 C 12,9 km/h (3 Bft) 100,00 %
11.12.2019 08:11 -4,8 C 95 % 1021,8 hPa 0,0 l/m 11,3 km/h (2 Bft) O-SO 112 0 min 0,000 mm 0,0 UV-I 21 W/m -5,5 C -9,4 C 12,9 km/h (3 Bft) 95,65 %
11.12.2019 08:10 -4,8 C 95 % 1021,7 hPa 0,0 l/m 11,3 km/h (2 Bft) O-SO 112 0 min 0,000 mm 0,0 UV-I 21 W/m -5,5 C -9,4 C 12,9 km/h (3 Bft) 100,00 %
11.12.2019 08:09 -4,9 C 95 % 1021,7 hPa 0,0 l/m 11,3 km/h (2 Bft) O-SO 112 0 min 0,000 mm 0,0 UV-I 21 W/m -5,6 C -9,5 C 14,5 km/h (3 Bft) 100,00 %
11.12.2019 08:08 -4,9 C 95 % 1021,8 hPa 0,0 l/m 11,3 km/h (2 Bft) O-SO 112 0 min 0,000 mm 0,0 UV-I 19 W/m -5,6 C -9,5 C 14,5 km/h (3 Bft) 95,65 %
11.12.2019 08:07 -4,9 C 95 % 1021,8 hPa 0,0 l/m 9,7 km/h (2 Bft) O-SO 112 0 min 0,000 mm 0,0 UV-I 19 W/m -5,6 C -9,1 C 12,9 km/h (3 Bft) 100,00 %
11.12.2019 08:06 -4,9 C 95 % 1021,8 hPa 0,0 l/m 9,7 km/h (2 Bft) O-SO 112 0 min 0,000 mm 0,0 UV-I 19 W/m -5,6 C -9,1 C 12,9 km/h (3 Bft) 95,65 %
11.12.2019 08:05 -4,9 C 95 % 1021,8 hPa 0,0 l/m 11,3 km/h (2 Bft) O-SO 112 0 min 0,000 mm 0,0 UV-I 18 W/m -5,6 C -9,5 C 14,5 km/h (3 Bft) 100,00 %
11.12.2019 08:04 -5,0 C 95 % 1021,7 hPa 0,0 l/m 12,9 km/h (3 Bft) O-SO 112 0 min 0,000 mm 0,0 UV-I 18 W/m -5,7 C -10,1 C 14,5 km/h (3 Bft) 100,00 %
11.12.2019 08:03 -5,0 C 95 % 1021,8 hPa 0,0 l/m 11,3 km/h (2 Bft) O-SO 112 0 min 0,000 mm 0,0 UV-I 18 W/m -5,7 C -9,7 C 12,9 km/h (3 Bft) 95,65 %
11.12.2019 08:02 -5,1 C 95 % 1021,7 hPa 0,0 l/m 11,3 km/h (2 Bft) O-SO 112 0 min 0,000 mm 0,0 UV-I 16 W/m -5,8 C -9,8 C 12,9 km/h (3 Bft) 100,00 %
11.12.2019 08:01 -5,0 C 95 % 1021,7 hPa 0,0 l/m 11,3 km/h (2 Bft) O-SO 112 0 min 0,000 mm 0,0 UV-I 16 W/m -5,7 C -9,7 C 12,9 km/h (3 Bft) 95,65 %
11.12.2019 08:00 -5,1 C 95 % 1021,8 hPa 0,0 l/m 11,3 km/h (2 Bft) O-SO 112 0 min 0,000 mm 0,0 UV-I 11 W/m -5,8 C -9,8 C 12,9 km/h (3 Bft) 100,00 %
11.12.2019 07:59 -5,1 C 95 % 1021,8 hPa 0,0 l/m 11,3 km/h (2 Bft) O-SO 112 0 min 0,000 mm 0,0 UV-I 11 W/m -5,8 C -9,8 C 11,3 km/h (2 Bft) 100,00 %
11.12.2019 07:58 -5,1 C 95 % 1021,8 hPa 0,0 l/m 11,3 km/h (2 Bft) O-SO 112 0 min 0,000 mm 0,0 UV-I 9 W/m -5,8 C -9,8 C 11,3 km/h (2 Bft) 100,00 %
11.12.2019 07:57 -5,1 C 95 % 1021,8 hPa 0,0 l/m 9,7 km/h (2 Bft) O-SO 112 0 min 0,000 mm 0,0 UV-I 9 W/m -5,8 C -9,3 C 11,3 km/h (2 Bft) 100,00 %
11.12.2019 07:56 -5,1 C 95 % 1021,8 hPa 0,0 l/m 9,7 km/h (2 Bft) O-SO 112 0 min 0,000 mm 0,0 UV-I 9 W/m -5,8 C -9,3 C 11,3 km/h (2 Bft) 100,00 %
11.12.2019 07:55 -5,1 C 95 % 1021,8 hPa 0,0 l/m 11,3 km/h (2 Bft) O-SO 112 0 min 0,000 mm 0,0 UV-I 7 W/m -5,8 C -9,8 C 11,3 km/h (2 Bft) 100,00 %
11.12.2019 07:54 -5,1 C 95 % 1021,8 hPa 0,0 l/m 11,3 km/h (2 Bft) O-SO 112 0 min 0,000 mm 0,0 UV-I 5 W/m -5,8 C -9,8 C 12,9 km/h (3 Bft) 100,00 %
11.12.2019 07:53 -5,1 C 95 % 1021,8 hPa 0,0 l/m 11,3 km/h (2 Bft) O-SO 112 0 min 0,000 mm 0,0 UV-I 5 W/m -5,8 C -9,8 C 11,3 km/h (2 Bft) 100,00 %
11.12.2019 07:52 -5,1 C 95 % 1021,8 hPa 0,0 l/m 11,3 km/h (2 Bft) O-SO 112 0 min 0,000 mm 0,0 UV-I 5 W/m -5,8 C -9,8 C 11,3 km/h (2 Bft) 100,00 %
11.12.2019 07:51 -5,1 C 95 % 1021,8 hPa 0,0 l/m 9,7 km/h (2 Bft) O-SO 112 0 min 0,000 mm 0,0 UV-I 5 W/m -5,8 C -9,3 C 11,3 km/h (2 Bft) 95,65 %
11.12.2019 07:50 -5,1 C 95 % 1021,8 hPa 0,0 l/m 9,7 km/h (2 Bft) O-SO 112 0 min 0,000 mm 0,0 UV-I 5 W/m -5,8 C -9,3 C 11,3 km/h (2 Bft) 100,00 %
11.12.2019 07:49 -5,1 C 95 % 1021,8 hPa 0,0 l/m 8,0 km/h (2 Bft) O-SO 112 0 min 0,000 mm 0,0 UV-I 5 W/m -5,8 C -8,7 C 11,3 km/h (2 Bft) 100,00 %
11.12.2019 07:48 -5,1 C 95 % 1021,8 hPa 0,0 l/m 8,0 km/h (2 Bft) O-SO 112 0 min 0,000 mm 0,0 UV-I 0 W/m -5,8 C -8,7 C 11,3 km/h (2 Bft) 100,00 %
11.12.2019 07:47 -5,1 C 95 % 1021,9 hPa 0,0 l/m 8,0 km/h (2 Bft) O-SO 112 0 min 0,000 mm 0,0 UV-I 0 W/m -5,8 C -8,7 C 11,3 km/h (2 Bft) 100,00 %
11.12.2019 07:46 -5,1 C 95 % 1021,8 hPa 0,0 l/m 9,7 km/h (2 Bft) O-SO 112 0 min 0,000 mm 0,0 UV-I 0 W/m -5,8 C -9,3 C 11,3 km/h (2 Bft) 100,00 %
11.12.2019 07:45 -5,1 C 95 % 1021,9 hPa 0,0 l/m 9,7 km/h (2 Bft) O-SO 112 0 min 0,000 mm 0,0 UV-I 0 W/m -5,8 C -9,3 C 11,3 km/h (2 Bft) 100,00 %
11.12.2019 07:44 -5,1 C 95 % 1022,0 hPa 0,0 l/m 8,0 km/h (2 Bft) O-SO 112 0 min 0,000 mm 0,0 UV-I 0 W/m -5,8 C -8,7 C 11,3 km/h (2 Bft) 100,00 %
11.12.2019 07:43 -5,1 C 95 % 1021,9 hPa 0,0 l/m 8,0 km/h (2 Bft) O-SO 112 0 min 0,000 mm 0,0 UV-I 0 W/m -5,8 C -8,7 C 11,3 km/h (2 Bft) 100,00 %
11.12.2019 07:42 -5,1 C 95 % 1021,9 hPa 0,0 l/m 9,7 km/h (2 Bft) O-SO 112 0 min 0,000 mm 0,0 UV-I 0 W/m -5,8 C -9,3 C 11,3 km/h (2 Bft) 100,00 %
11.12.2019 07:41 -5,1 C 95 % 1022,0 hPa 0,0 l/m 9,7 km/h (2 Bft) O-SO 112 0 min 0,000 mm 0,0 UV-I 0 W/m -5,8 C -9,3 C 11,3 km/h (2 Bft) 100,00 %
11.12.2019 07:40 -5,1 C 95 % 1022,0 hPa 0,0 l/m 9,7 km/h (2 Bft) O-SO 112 0 min 0,000 mm 0,0 UV-I 0 W/m -5,8 C -9,3 C 12,9 km/h (3 Bft) 100,00 %
11.12.2019 07:39 -5,1 C 95 % 1021,9 hPa 0,0 l/m 9,7 km/h (2 Bft) O-SO 112 0 min 0,000 mm 0,0 UV-I 0 W/m -5,8 C -9,3 C 11,3 km/h (2 Bft) 95,65 %
11.12.2019 07:38 -5,1 C 95 % 1021,9 hPa 0,0 l/m 11,3 km/h (2 Bft) O-SO 112 0 min 0,000 mm 0,0 UV-I 0 W/m -5,8 C -9,8 C 12,9 km/h (3 Bft) 100,00 %
11.12.2019 07:37 -5,0 C 95 % 1021,9 hPa 0,0 l/m 11,3 km/h (2 Bft) SO 135 0 min 0,000 mm 0,0 UV-I 0 W/m -5,7 C -9,7 C 12,9 km/h (3 Bft) 100,00 %
11.12.2019 07:36 -5,1 C 95 % 1021,9 hPa 0,0 l/m 9,7 km/h (2 Bft) O-SO 112 0 min 0,000 mm 0,0 UV-I 0 W/m -5,8 C -9,3 C 12,9 km/h (3 Bft) 95,65 %
11.12.2019 07:35 -5,1 C 95 % 1021,9 hPa 0,0 l/m 11,3 km/h (2 Bft) O-SO 112 0 min 0,000 mm 0,0 UV-I 0 W/m -5,8 C -9,8 C 12,9 km/h (3 Bft) 100,00 %
11.12.2019 07:34 -5,1 C 95 % 1021,9 hPa 0,0 l/m 9,7 km/h (2 Bft) O-SO 112 0 min 0,000 mm 0,0 UV-I 0 W/m -5,8 C -9,3 C 11,3 km/h (2 Bft) 100,00 %
11.12.2019 07:33 -5,1 C 95 % 1021,9 hPa 0,0 l/m 11,3 km/h (2 Bft) O-SO 112 0 min 0,000 mm 0,0 UV-I 0 W/m -5,8 C -9,8 C 12,9 km/h (3 Bft) 100,00 %
11.12.2019 07:32 -5,1 C 95 % 1022,0 hPa 0,0 l/m 9,7 km/h (2 Bft) O-SO 112 0 min 0,000 mm 0,0 UV-I 0 W/m -5,8 C -9,3 C 11,3 km/h (2 Bft) 100,00 %
11.12.2019 07:31 -5,1 C 95 % 1022,0 hPa 0,0 l/m 11,3 km/h (2 Bft) O-SO 112 0 min 0,000 mm 0,0 UV-I 0 W/m -5,8 C -9,8 C 12,9 km/h (3 Bft) 100,00 %
11.12.2019 07:30 -5,1 C 95 % 1022,0 hPa 0,0 l/m 9,7 km/h (2 Bft) O-SO 112 0 min 0,000 mm 0,0 UV-I 0 W/m -5,8 C -9,3 C 11,3 km/h (2 Bft) 95,65 %
11.12.2019 07:29 -5,1 C 95 % 1022,0 hPa 0,0 l/m 11,3 km/h (2 Bft) O-SO 112 0 min 0,000 mm 0,0 UV-I 0 W/m -5,8 C -9,8 C 14,5 km/h (3 Bft) 100,00 %
11.12.2019 07:28 -5,1 C 95 % 1022,0 hPa 0,0 l/m 11,3 km/h (2 Bft) O-SO 112 0 min 0,000 mm 0,0 UV-I 0 W/m -5,8 C -9,8 C 12,9 km/h (3 Bft) 100,00 %
11.12.2019 07:27 -5,1 C 95 % 1022,1 hPa 0,0 l/m 11,3 km/h (2 Bft) O-SO 112 0 min 0,000 mm 0,0 UV-I 0 W/m -5,8 C -9,8 C 12,9 km/h (3 Bft) 100,00 %
11.12.2019 07:26 -5,1 C 95 % 1022,1 hPa 0,0 l/m 11,3 km/h (2 Bft) O-SO 112 0 min 0,000 mm 0,0 UV-I 0 W/m -5,8 C -9,8 C 12,9 km/h (3 Bft) 100,00 %
11.12.2019 07:25 -5,1 C 95 % 1022,1 hPa 0,0 l/m 9,7 km/h (2 Bft) O-SO 112 0 min 0,000 mm 0,0 UV-I 0 W/m -5,8 C -9,3 C 11,3 km/h (2 Bft) 100,00 %
11.12.2019 07:24 -5,1 C 95 % 1022,1 hPa 0,0 l/m 9,7 km/h (2 Bft) O-SO 112 0 min 0,000 mm 0,0 UV-I 0 W/m -5,8 C -9,3 C 11,3 km/h (2 Bft) 100,00 %
11.12.2019 07:23 -5,1 C 95 % 1022,1 hPa 0,0 l/m 11,3 km/h (2 Bft) O-SO 112 0 min 0,000 mm 0,0 UV-I 0 W/m -5,8 C -9,8 C 12,9 km/h (3 Bft) 100,00 %
11.12.2019 07:22 -5,1 C 95 % 1022,0 hPa 0,0 l/m 11,3 km/h (2 Bft) O-SO 112 0 min 0,000 mm 0,0 UV-I 0 W/m -5,8 C -9,8 C 11,3 km/h (2 Bft) 100,00 %
11.12.2019 07:21 -5,1 C 95 % 1022,2 hPa 0,0 l/m 11,3 km/h (2 Bft) O-SO 112 0 min 0,000 mm 0,0 UV-I 0 W/m -5,8 C -9,8 C 12,9 km/h (3 Bft) 95,65 %
11.12.2019 07:20 -5,1 C 95 % 1022,1 hPa 0,0 l/m 9,7 km/h (2 Bft) O-SO 112 0 min 0,000 mm 0,0 UV-I 0 W/m -5,8 C -9,3 C 12,9 km/h (3 Bft) 95,65 %
11.12.2019 07:19 -5,1 C 95 % 1022,1 hPa 0,0 l/m 8,0 km/h (2 Bft) O-SO 112 0 min 0,000 mm 0,0 UV-I 0 W/m -5,8 C -8,7 C 11,3 km/h (2 Bft) 100,00 %
11.12.2019 07:18 -5,1 C 95 % 1022,1 hPa 0,0 l/m 9,7 km/h (2 Bft) O-SO 112 0 min 0,000 mm 0,0 UV-I 0 W/m -5,8 C -9,3 C 14,5 km/h (3 Bft) 100,00 %
11.12.2019 07:17 -5,1 C 95 % 1022,1 hPa 0,0 l/m 8,0 km/h (2 Bft) O-SO 112 0 min 0,000 mm 0,0 UV-I 0 W/m -5,8 C -8,7 C 11,3 km/h (2 Bft) 100,00 %
11.12.2019 07:16 -5,0 C 95 % 1022,1 hPa 0,0 l/m 8,0 km/h (2 Bft) SO 135 0 min 0,000 mm 0,0 UV-I 0 W/m -5,7 C -8,6 C 11,3 km/h (2 Bft) 100,00 %
11.12.2019 07:15 -5,0 C 95 % 1022,1 hPa 0,0 l/m 9,7 km/h (2 Bft) O-SO 112 0 min 0,000 mm 0,0 UV-I 0 W/m -5,7 C -9,2 C 11,3 km/h (2 Bft) 100,00 %
11.12.2019 07:14 -5,0 C 95 % 1022,2 hPa 0,0 l/m 11,3 km/h (2 Bft) O-SO 112 0 min 0,000 mm 0,0 UV-I 0 W/m -5,7 C -9,7 C 11,3 km/h (2 Bft) 100,00 %
11.12.2019 07:13 -5,0 C 95 % 1022,1 hPa 0,0 l/m 9,7 km/h (2 Bft) O-SO 112 0 min 0,000 mm 0,0 UV-I 0 W/m -5,7 C -9,2 C 12,9 km/h (3 Bft) 100,00 %
11.12.2019 07:12 -5,0 C 95 % 1022,2 hPa 0,0 l/m 11,3 km/h (2 Bft) O-SO 112 0 min 0,000 mm 0,0 UV-I 0 W/m -5,7 C -9,7 C 12,9 km/h (3 Bft) 100,00 %
11.12.2019 07:11 -5,0 C 95 % 1022,2 hPa 0,0 l/m 8,0 km/h (2 Bft) SO 135 0 min 0,000 mm 0,0 UV-I 0 W/m -5,7 C -8,6 C 11,3 km/h (2 Bft) 100,00 %
11.12.2019 07:10 -5,0 C 95 % 1022,2 hPa 0,0 l/m 9,7 km/h (2 Bft) O-SO 112 0 min 0,000 mm 0,0 UV-I 0 W/m -5,7 C -9,2 C 11,3 km/h (2 Bft) 100,00 %
11.12.2019 07:09 -5,0 C 95 % 1022,2 hPa 0,0 l/m 9,7 km/h (2 Bft) O-SO 112 0 min 0,000 mm 0,0 UV-I 0 W/m -5,7 C -9,2 C 11,3 km/h (2 Bft) 100,00 %
11.12.2019 07:08 -5,0 C 95 % 1022,3 hPa 0,0 l/m 11,3 km/h (2 Bft) O-SO 112 0 min 0,000 mm 0,0 UV-I 0 W/m -5,7 C -9,7 C 11,3 km/h (2 Bft) 95,65 %
11.12.2019 07:07 -5,0 C 95 % 1022,2 hPa 0,0 l/m 11,3 km/h (2 Bft) O-SO 112 0 min 0,000 mm 0,0 UV-I 0 W/m -5,7 C -9,7 C 12,9 km/h (3 Bft) 100,00 %
11.12.2019 07:06 -5,0 C 95 % 1022,4 hPa 0,0 l/m 11,3 km/h (2 Bft) O-SO 112 0 min 0,000 mm 0,0 UV-I 0 W/m -5,7 C -9,7 C 11,3 km/h (2 Bft) 100,00 %
11.12.2019 07:05 -5,1 C 95 % 1022,3 hPa 0,0 l/m 9,7 km/h (2 Bft) O-SO 112 0 min 0,000 mm 0,0 UV-I 0 W/m -5,8 C -9,3 C 12,9 km/h (3 Bft) 95,65 %
11.12.2019 07:04 -5,0 C 95 % 1022,3 hPa 0,0 l/m 11,3 km/h (2 Bft) O-SO 112 0 min 0,000 mm 0,0 UV-I 0 W/m -5,7 C -9,7 C 12,9 km/h (3 Bft) 100,00 %
11.12.2019 07:03 -5,0 C 95 % 1022,4 hPa 0,0 l/m 11,3 km/h (2 Bft) O-SO 112 0 min 0,000 mm 0,0 UV-I 0 W/m -5,7 C -9,7 C 12,9 km/h (3 Bft) 100,00 %
11.12.2019 07:02 -5,0 C 95 % 1022,5 hPa 0,0 l/m 11,3 km/h (2 Bft) O-SO 112 0 min 0,000 mm 0,0 UV-I 0 W/m -5,7 C -9,7 C 12,9 km/h (3 Bft) 100,00 %
11.12.2019 07:01 -5,0 C 95 % 1022,4 hPa 0,0 l/m 11,3 km/h (2 Bft) O-SO 112 0 min 0,000 mm 0,0 UV-I 0 W/m -5,7 C -9,7 C 12,9 km/h (3 Bft) 95,65 %
11.12.2019 07:00 -4,9 C 95 % 1022,5 hPa 0,0 l/m 9,7 km/h (2 Bft) O-SO 112 0 min 0,000 mm 0,0 UV-I 0 W/m -5,6 C -9,1 C 12,9 km/h (3 Bft) 100,00 %
11.12.2019 06:59 -5,0 C 95 % 1022,4 hPa 0,0 l/m 11,3 km/h (2 Bft) O-SO 112 0 min 0,000 mm 0,0 UV-I 0 W/m -5,7 C -9,7 C 12,9 km/h (3 Bft) 100,00 %
11.12.2019 06:58 -4,9 C 95 % 1022,4 hPa 0,0 l/m 11,3 km/h (2 Bft) O-SO 112 0 min 0,000 mm 0,0 UV-I 0 W/m -5,6 C -9,5 C 12,9 km/h (3 Bft) 100,00 %
11.12.2019 06:57 -4,9 C 95 % 1022,4 hPa 0,0 l/m 9,7 km/h (2 Bft) O-SO 112 0 min 0,000 mm 0,0 UV-I 0 W/m -5,6 C -9,1 C 12,9 km/h (3 Bft) 100,00 %
11.12.2019 06:56 -4,9 C 95 % 1022,4 hPa 0,0 l/m 11,3 km/h (2 Bft) O-SO 112 0 min 0,000 mm 0,0 UV-I 0 W/m -5,6 C -9,5 C 12,9 km/h (3 Bft) 91,30 %
11.12.2019 06:55 -4,9 C 95 % 1022,5 hPa 0,0 l/m 11,3 km/h (2 Bft) O-SO 112 0 min 0,000 mm 0,0 UV-I 0 W/m -5,6 C -9,5 C 11,3 km/h (2 Bft) 100,00 %
11.12.2019 06:54 -4,9 C 95 % 1022,4 hPa 0,0 l/m 11,3 km/h (2 Bft) O-SO 112 0 min 0,000 mm 0,0 UV-I 0 W/m -5,6 C -9,5 C 11,3 km/h (2 Bft) 100,00 %
11.12.2019 06:53 -4,9 C 95 % 1022,5 hPa 0,0 l/m 9,7 km/h (2 Bft) O-SO 112 0 min 0,000 mm 0,0 UV-I 0 W/m -5,6 C -9,1 C 14,5 km/h (3 Bft) 100,00 %
11.12.2019 06:52 -4,9 C 95 % 1022,4 hPa 0,0 l/m 11,3 km/h (2 Bft) SO 135 0 min 0,000 mm 0,0 UV-I 0 W/m -5,6 C -9,5 C 12,9 km/h (3 Bft) 100,00 %
11.12.2019 06:51 -4,9 C 95 % 1022,5 hPa 0,0 l/m 11,3 km/h (2 Bft) O-SO 112 0 min 0,000 mm 0,0 UV-I 0 W/m -5,6 C -9,5 C 12,9 km/h (3 Bft) 100,00 %
11.12.2019 06:50 -4,9 C 95 % 1022,5 hPa 0,0 l/m 11,3 km/h (2 Bft) O-SO 112 0 min 0,000 mm 0,0 UV-I 0 W/m -5,6 C -9,5 C 12,9 km/h (3 Bft) 95,65 %
11.12.2019 06:49 -4,9 C 95 % 1022,6 hPa 0,0 l/m 9,7 km/h (2 Bft) O-SO 112 0 min 0,000 mm 0,0 UV-I 0 W/m -5,6 C -9,1 C 11,3 km/h (2 Bft) 100,00 %
11.12.2019 06:48 -4,9 C 95 % 1022,5 hPa 0,0 l/m 9,7 km/h (2 Bft) O-SO 112 0 min 0,000 mm 0,0 UV-I 0 W/m -5,6 C -9,1 C 11,3 km/h (2 Bft) 100,00 %
11.12.2019 06:47 -4,9 C 95 % 1022,6 hPa 0,0 l/m 9,7 km/h (2 Bft) O-SO 112 0 min 0,000 mm 0,0 UV-I 0 W/m -5,6 C -9,1 C 11,3 km/h (2 Bft) 100,00 %
11.12.2019 06:46 -4,8 C 95 % 1022,6 hPa 0,0 l/m 9,7 km/h (2 Bft) O-SO 112 0 min 0,000 mm 0,0 UV-I 0 W/m -5,5 C -9,0 C 11,3 km/h (2 Bft) 95,65 %
11.12.2019 06:45 -4,8 C 95 % 1022,6 hPa 0,0 l/m 9,7 km/h (2 Bft) O-SO 112 0 min 0,000 mm 0,0 UV-I 0 W/m -5,5 C -9,0 C 11,3 km/h (2 Bft) 100,00 %
11.12.2019 06:44 -4,8 C 95 % 1022,7 hPa 0,0 l/m 9,7 km/h (2 Bft) O-SO 112 0 min 0,000 mm 0,0 UV-I 0 W/m -5,5 C -9,0 C 11,3 km/h (2 Bft) 95,65 %
11.12.2019 06:43 -4,8 C 95 % 1022,7 hPa 0,0 l/m 9,7 km/h (2 Bft) O-SO 112 0 min 0,000 mm 0,0 UV-I 0 W/m -5,5 C -9,0 C 11,3 km/h (2 Bft) 100,00 %
11.12.2019 06:42 -4,8 C 95 % 1022,7 hPa 0,0 l/m 9,7 km/h (2 Bft) O-SO 112 0 min 0,000 mm 0,0 UV-I 0 W/m -5,5 C -9,0 C 11,3 km/h (2 Bft) 100,00 %
11.12.2019 06:41 -4,8 C 95 % 1022,7 hPa 0,0 l/m 9,7 km/h (2 Bft) O-SO 112 0 min 0,000 mm 0,0 UV-I 0 W/m -5,5 C -9,0 C 11,3 km/h (2 Bft) 95,65 %
11.12.2019 06:40 -4,8 C 95 % 1022,6 hPa 0,0 l/m 8,0 km/h (2 Bft) O-SO 112 0 min 0,000 mm 0,0 UV-I 0 W/m -5,5 C -8,4 C 11,3 km/h (2 Bft) 100,00 %
11.12.2019 06:39 -4,8 C 95 % 1022,7 hPa 0,0 l/m 9,7 km/h (2 Bft) O-SO 112 0 min 0,000 mm 0,0 UV-I 0 W/m -5,5 C -9,0 C 11,3 km/h (2 Bft) 100,00 %
11.12.2019 06:38 -4,8 C 95 % 1022,8 hPa 0,0 l/m 9,7 km/h (2 Bft) O-SO 112 0 min 0,000 mm 0,0 UV-I 0 W/m -5,5 C -9,0 C 11,3 km/h (2 Bft) 100,00 %
11.12.2019 06:37 -4,8 C 95 % 1022,8 hPa 0,0 l/m 9,7 km/h (2 Bft) O-SO 112 0 min 0,000 mm 0,0 UV-I 0 W/m -5,5 C -9,0 C 9,7 km/h (2 Bft) 91,30 %
11.12.2019 06:36 -4,8 C 95 % 1022,8 hPa 0,0 l/m 8,0 km/h (2 Bft) O-SO 112 0 min 0,000 mm 0,0 UV-I 0 W/m -5,5 C -8,4 C 9,7 km/h (2 Bft) 100,00 %
11.12.2019 06:35 -4,8 C 95 % 1022,7 hPa 0,0 l/m 6,4 km/h (2 Bft) O-SO 112 0 min 0,000 mm 0,0 UV-I 0 W/m -5,5 C -7,7 C 8,0 km/h (2 Bft) 100,00 %
11.12.2019 06:34 -4,8 C 95 % 1022,7 hPa 0,0 l/m 6,4 km/h (2 Bft) O-SO 112 0 min 0,000 mm 0,0 UV-I 0 W/m -5,5 C -7,7 C 8,0 km/h (2 Bft) 100,00 %
11.12.2019 06:33 -4,8 C 95 % 1022,7 hPa 0,0 l/m 8,0 km/h (2 Bft) O-SO 112 0 min 0,000 mm 0,0 UV-I 0 W/m -5,5 C -8,4 C 8,0 km/h (2 Bft) 100,00 %
11.12.2019 06:32 -4,8 C 95 % 1022,7 hPa 0,0 l/m 8,0 km/h (2 Bft) O-SO 112 0 min 0,000 mm 0,0 UV-I 0 W/m -5,5 C -8,4 C 11,3 km/h (2 Bft) 100,00 %
11.12.2019 06:31 -4,8 C 95 % 1022,8 hPa 0,0 l/m 9,7 km/h (2 Bft) O-SO 112 0 min 0,000 mm 0,0 UV-I 0 W/m -5,5 C -9,0 C 11,3 km/h (2 Bft) 100,00 %
11.12.2019 06:30 -4,8 C 95 % 1022,7 hPa 0,0 l/m 9,7 km/h (2 Bft) O-SO 112 0 min 0,000 mm 0,0 UV-I 0 W/m -5,5 C -9,0 C 12,9 km/h (3 Bft) 100,00 %
11.12.2019 06:29 -4,8 C 95 % 1022,8 hPa 0,0 l/m 9,7 km/h (2 Bft) O-SO 112 0 min 0,000 mm 0,0 UV-I 0 W/m -5,5 C -9,0 C 11,3 km/h (2 Bft) 100,00 %
11.12.2019 06:28 -4,8 C 95 % 1022,8 hPa 0,0 l/m 8,0 km/h (2 Bft) O-SO 112 0 min 0,000 mm 0,0 UV-I 0 W/m -5,5 C -8,4 C 11,3 km/h (2 Bft) 100,00 %
11.12.2019 06:27 -4,8 C 95 % 1022,8 hPa 0,0 l/m 8,0 km/h (2 Bft) O-SO 112 0 min 0,000 mm 0,0 UV-I 0 W/m -5,5 C -8,4 C 8,0 km/h (2 Bft) 95,65 %
11.12.2019 06:26 -4,8 C 95 % 1022,9 hPa 0,0 l/m 8,0 km/h (2 Bft) O-SO 112 0 min 0,000 mm 0,0 UV-I 0 W/m -5,5 C -8,4 C 9,7 km/h (2 Bft) 100,00 %
11.12.2019 06:25 -4,8 C 95 % 1022,8 hPa 0,0 l/m 9,7 km/h (2 Bft) O-SO 112 0 min 0,000 mm 0,0 UV-I 0 W/m -5,5 C -9,0 C 11,3 km/h (2 Bft) 100,00 %
11.12.2019 06:24 -4,7 C 95 % 1022,9 hPa 0,0 l/m 9,7 km/h (2 Bft) O-SO 112 0 min 0,000 mm 0,0 UV-I 0 W/m -5,4 C -8,8 C 11,3 km/h (2 Bft) 95,65 %
11.12.2019 06:23 -4,8 C 95 % 1022,8 hPa 0,0 l/m 8,0 km/h (2 Bft) O-SO 112 0 min 0,000 mm 0,0 UV-I 0 W/m -5,5 C -8,4 C 11,3 km/h (2 Bft) 100,00 %
11.12.2019 06:22 -4,8 C 95 % 1022,8 hPa 0,0 l/m 6,4 km/h (2 Bft) SO 135 0 min 0,000 mm 0,0 UV-I 0 W/m -5,5 C -7,7 C 8,0 km/h (2 Bft) 95,65 %
11.12.2019 06:21 -4,7 C 95 % 1022,9 hPa 0,0 l/m 6,4 km/h (2 Bft) SO 135 0 min 0,000 mm 0,0 UV-I 0 W/m -5,4 C -7,6 C 9,7 km/h (2 Bft) 100,00 %
11.12.2019 06:20 -4,8 C 95 % 1022,9 hPa 0,0 l/m 6,4 km/h (2 Bft) SO 135 0 min 0,000 mm 0,0 UV-I 0 W/m -5,5 C -7,7 C 8,0 km/h (2 Bft) 100,00 %
11.12.2019 06:19 -4,7 C 95 % 1022,9 hPa 0,0 l/m 6,4 km/h (2 Bft) SO 135 0 min 0,000 mm 0,0 UV-I 0 W/m -5,4 C -7,6 C 6,4 km/h (2 Bft) 100,00 %
11.12.2019 06:18 -4,7 C 95 % 1023,0 hPa 0,0 l/m 6,4 km/h (2 Bft) SO 135 0 min 0,000 mm 0,0 UV-I 0 W/m -5,4 C -7,6 C 8,0 km/h (2 Bft) 100,00 %
11.12.2019 06:17 -4,7 C 95 % 1022,9 hPa 0,0 l/m 6,4 km/h (2 Bft) SO 135 0 min 0,000 mm 0,0 UV-I 0 W/m -5,4 C -7,6 C 8,0 km/h (2 Bft) 95,65 %
11.12.2019 06:16 -4,7 C 95 % 1022,9 hPa 0,0 l/m 6,4 km/h (2 Bft) SO 135 0 min 0,000 mm 0,0 UV-I 0 W/m -5,4 C -7,6 C 8,0 km/h (2 Bft) 100,00 %
11.12.2019 06:15 -4,7 C 95 % 1022,9 hPa 0,0 l/m 8,0 km/h (2 Bft) SO 135 0 min 0,000 mm 0,0 UV-I 0 W/m -5,4 C -8,3 C 11,3 km/h (2 Bft) 100,00 %
11.12.2019 06:14 -4,7 C 95 % 1022,9 hPa 0,0 l/m 9,7 km/h (2 Bft) O-SO 112 0 min 0,000 mm 0,0 UV-I 0 W/m -5,4 C -8,8 C 11,3 km/h (2 Bft) 100,00 %
11.12.2019 06:13 -4,7 C 95 % 1022,9 hPa 0,0 l/m 9,7 km/h (2 Bft) O-SO 112 0 min 0,000 mm 0,0 UV-I 0 W/m -5,4 C -8,8 C 11,3 km/h (2 Bft) 100,00 %
11.12.2019 06:12 -4,7 C 95 % 1022,8 hPa 0,0 l/m 11,3 km/h (2 Bft) SO 135 0 min 0,000 mm 0,0 UV-I 0 W/m -5,4 C -9,3 C 12,9 km/h (3 Bft) 100,00 %
11.12.2019 06:11 -4,7 C 95 % 1022,9 hPa 0,0 l/m 11,3 km/h (2 Bft) SO 135 0 min 0,000 mm 0,0 UV-I 0 W/m -5,4 C -9,3 C 12,9 km/h (3 Bft) 100,00 %
11.12.2019 06:10 -4,7 C 95 % 1022,8 hPa 0,0 l/m 12,9 km/h (3 Bft) O-SO 112 0 min 0,000 mm 0,0 UV-I 0 W/m -5,4 C -9,7 C 14,5 km/h (3 Bft) 100,00 %
11.12.2019 06:09 -4,7 C 95 % 1022,8 hPa 0,0 l/m 11,3 km/h (2 Bft) O-SO 112 0 min 0,000 mm 0,0 UV-I 0 W/m -5,4 C -9,3 C 12,9 km/h (3 Bft) 100,00 %
11.12.2019 06:08 -4,7 C 95 % 1022,9 hPa 0,0 l/m 11,3 km/h (2 Bft) O-SO 112 0 min 0,000 mm 0,0 UV-I 0 W/m -5,4 C -9,3 C 12,9 km/h (3 Bft) 100,00 %
11.12.2019 06:07 -4,7 C 95 % 1022,9 hPa 0,0 l/m 11,3 km/h (2 Bft) O-SO 112 0 min 0,000 mm 0,0 UV-I 0 W/m -5,4 C -9,3 C 14,5 km/h (3 Bft) 95,65 %
11.12.2019 06:06 -4,6 C 95 % 1022,9 hPa 0,0 l/m 12,9 km/h (3 Bft) O-SO 112 0 min 0,000 mm 0,0 UV-I 0 W/m -5,3 C -9,6 C 12,9 km/h (3 Bft) 100,00 %
11.12.2019 06:05 -4,6 C 95 % 1022,8 hPa 0,0 l/m 11,3 km/h (2 Bft) O-SO 112 0 min 0,000 mm 0,0 UV-I 0 W/m -5,3 C -9,2 C 12,9 km/h (3 Bft) 100,00 %
11.12.2019 06:04 -4,6 C 95 % 1022,9 hPa 0,0 l/m 12,9 km/h (3 Bft) O-SO 112 0 min 0,000 mm 0,0 UV-I 0 W/m -5,3 C -9,6 C 12,9 km/h (3 Bft) 95,65 %
11.12.2019 06:03 -4,6 C 95 % 1022,9 hPa 0,0 l/m 12,9 km/h (3 Bft) O-SO 112 0 min 0,000 mm 0,0 UV-I 0 W/m -5,3 C -9,6 C 12,9 km/h (3 Bft) 100,00 %
11.12.2019 06:02 -4,6 C 95 % 1022,9 hPa 0,0 l/m 12,9 km/h (3 Bft) O-SO 112 0 min 0,000 mm 0,0 UV-I 0 W/m -5,3 C -9,6 C 14,5 km/h (3 Bft) 100,00 %
11.12.2019 06:01 -4,6 C 95 % 1022,9 hPa 0,0 l/m 11,3 km/h (2 Bft) O-SO 112 0 min 0,000 mm 0,0 UV-I 0 W/m -5,3 C -9,2 C 12,9 km/h (3 Bft) 100,00 %
11.12.2019 06:00 -4,6 C 95 % 1022,9 hPa 0,0 l/m 11,3 km/h (2 Bft) O-SO 112 0 min 0,000 mm 0,0 UV-I 0 W/m -5,3 C -9,2 C 11,3 km/h (2 Bft) 95,65 %
11.12.2019 05:59 -4,6 C 95 % 1023,0 hPa 0,0 l/m 9,7 km/h (2 Bft) O-SO 112 0 min 0,000 mm 0,0 UV-I 0 W/m -5,3 C -8,7 C 11,3 km/h (2 Bft) 100,00 %
11.12.2019 05:58 -4,6 C 95 % 1023,0 hPa 0,0 l/m 9,7 km/h (2 Bft) O-SO 112 0 min 0,000 mm 0,0 UV-I 0 W/m -5,3 C -8,7 C 11,3 km/h (2 Bft) 95,65 %
11.12.2019 05:57 -4,5 C 95 % 1023,0 hPa 0,0 l/m 9,7 km/h (2 Bft) O-SO 112 0 min 0,000 mm 0,0 UV-I 0 W/m -5,2 C -8,6 C 11,3 km/h (2 Bft) 100,00 %
11.12.2019 05:56 -4,5 C 95 % 1023,0 hPa 0,0 l/m 9,7 km/h (2 Bft) O-SO 112 0 min 0,000 mm 0,0 UV-I 0 W/m -5,2 C -8,6 C 11,3 km/h (2 Bft) 100,00 %
11.12.2019 05:55 -4,5 C 95 % 1023,0 hPa 0,0 l/m 9,7 km/h (2 Bft) SO 135 0 min 0,000 mm 0,0 UV-I 0 W/m -5,2 C -8,6 C 11,3 km/h (2 Bft) 100,00 %
11.12.2019 05:54 -4,5 C 95 % 1023,0 hPa 0,0 l/m 8,0 km/h (2 Bft) SO 135 0 min 0,000 mm 0,0 UV-I 0 W/m -5,2 C -8,0 C 11,3 km/h (2 Bft) 100,00 %
11.12.2019 05:53 -4,5 C 95 % 1023,2 hPa 0,0 l/m 8,0 km/h (2 Bft) O-SO 112 0 min 0,000 mm 0,0 UV-I 0 W/m -5,2 C -8,0 C 11,3 km/h (2 Bft) 95,65 %
11.12.2019 05:52 -4,5 C 95 % 1023,1 hPa 0,0 l/m 8,0 km/h (2 Bft) O-SO 112 0 min 0,000 mm 0,0 UV-I 0 W/m -5,2 C -8,0 C 11,3 km/h (2 Bft) 100,00 %
11.12.2019 05:51 -4,5 C 95 % 1023,1 hPa 0,0 l/m 9,7 km/h (2 Bft) O-SO 112 0 min 0,000 mm 0,0 UV-I 0 W/m -5,2 C -8,6 C 11,3 km/h (2 Bft) 100,00 %
11.12.2019 05:50 -4,4 C 95 % 1023,1 hPa 0,0 l/m 11,3 km/h (2 Bft) O-SO 112 0 min 0,000 mm 0,0 UV-I 0 W/m -5,1 C -8,9 C 11,3 km/h (2 Bft) 95,65 %
11.12.2019 05:49 -4,4 C 95 % 1023,1 hPa 0,0 l/m 11,3 km/h (2 Bft) O-SO 112 0 min 0,000 mm 0,0 UV-I 0 W/m -5,1 C -8,9 C 12,9 km/h (3 Bft) 100,00 %
11.12.2019 05:48 -4,4 C 95 % 1023,1 hPa 0,0 l/m 11,3 km/h (2 Bft) O-SO 112 0 min 0,000 mm 0,0 UV-I 0 W/m -5,1 C -8,9 C 12,9 km/h (3 Bft) 100,00 %
11.12.2019 05:47 -4,4 C 95 % 1023,1 hPa 0,0 l/m 11,3 km/h (2 Bft) O-SO 112 0 min 0,000 mm 0,0 UV-I 0 W/m -5,1 C -8,9 C 12,9 km/h (3 Bft) 100,00 %
11.12.2019 05:46 -4,4 C 95 % 1023,1 hPa 0,0 l/m 11,3 km/h (2 Bft) O-SO 112 0 min 0,000 mm 0,0 UV-I 0 W/m -5,1 C -8,9 C 12,9 km/h (3 Bft) 100,00 %
11.12.2019 05:45 -4,4 C 95 % 1023,2 hPa 0,0 l/m 11,3 km/h (2 Bft) O-SO 112 0 min 0,000 mm 0,0 UV-I 0 W/m -5,1 C -8,9 C 12,9 km/h (3 Bft) 95,65 %
11.12.2019 05:44 -4,4 C 95 % 1023,2 hPa 0,0 l/m 11,3 km/h (2 Bft) O-SO 112 0 min 0,000 mm 0,0 UV-I 0 W/m -5,1 C -8,9 C 11,3 km/h (2 Bft) 100,00 %
11.12.2019 05:43 -4,4 C 95 % 1023,1 hPa 0,0 l/m 11,3 km/h (2 Bft) O-SO 112 0 min 0,000 mm 0,0 UV-I 0 W/m -5,1 C -8,9 C 11,3 km/h (2 Bft) 100,00 %
11.12.2019 05:42 -4,4 C 95 % 1023,2 hPa 0,0 l/m 11,3 km/h (2 Bft) O-SO 112 0 min 0,000 mm 0,0 UV-I 0 W/m -5,1 C -8,9 C 11,3 km/h (2 Bft) 100,00 %
11.12.2019 05:41 -4,4 C 95 % 1023,1 hPa 0,0 l/m 11,3 km/h (2 Bft) O-SO 112 0 min 0,000 mm 0,0 UV-I 0 W/m -5,1 C -8,9 C 12,9 km/h (3 Bft) 95,65 %
11.12.2019 05:40 -4,4 C 95 % 1023,1 hPa 0,0 l/m 12,9 km/h (3 Bft) O-SO 112 0 min 0,000 mm 0,0 UV-I 0 W/m -5,1 C -9,4 C 12,9 km/h (3 Bft) 100,00 %
11.12.2019 05:39 -4,3 C 95 % 1023,1 hPa 0,0 l/m 12,9 km/h (3 Bft) O-SO 112 0 min 0,000 mm 0,0 UV-I 0 W/m -5,0 C -9,2 C 16,1 km/h (3 Bft) 100,00 %
11.12.2019 05:38 -4,3 C 95 % 1023,2 hPa 0,0 l/m 11,3 km/h (2 Bft) O-SO 112 0 min 0,000 mm 0,0 UV-I 0 W/m -5,0 C -8,8 C 12,9 km/h (3 Bft) 95,65 %
11.12.2019 05:37 -4,3 C 95 % 1023,1 hPa 0,0 l/m 11,3 km/h (2 Bft) O-SO 112 0 min 0,000 mm 0,0 UV-I 0 W/m -5,0 C -8,8 C 16,1 km/h (3 Bft) 100,00 %
11.12.2019 05:36 -4,3 C 95 % 1023,1 hPa 0,0 l/m 8,0 km/h (2 Bft) O-SO 112 0 min 0,000 mm 0,0 UV-I 0 W/m -5,0 C -7,8 C 11,3 km/h (2 Bft) 100,00 %
11.12.2019 05:35 -4,3 C 95 % 1023,1 hPa 0,0 l/m 9,7 km/h (2 Bft) O-SO 112 0 min 0,000 mm 0,0 UV-I 0 W/m -5,0 C -8,4 C 11,3 km/h (2 Bft) 100,00 %
11.12.2019 05:34 -4,3 C 95 % 1023,2 hPa 0,0 l/m 9,7 km/h (2 Bft) O-SO 112 0 min 0,000 mm 0,0 UV-I 0 W/m -5,0 C -8,4 C 11,3 km/h (2 Bft) 100,00 %
11.12.2019 05:33 -4,3 C 95 % 1023,1 hPa 0,0 l/m 11,3 km/h (2 Bft) O-SO 112 0 min 0,000 mm 0,0 UV-I 0 W/m -5,0 C -8,8 C 11,3 km/h (2 Bft) 100,00 %
11.12.2019 05:32 -4,3 C 95 % 1023,2 hPa 0,0 l/m 11,3 km/h (2 Bft) O-SO 112 0 min 0,000 mm 0,0 UV-I 0 W/m -5,0 C -8,8 C 11,3 km/h (2 Bft) 100,00 %
11.12.2019 05:31 -4,3 C 95 % 1023,2 hPa 0,0 l/m 9,7 km/h (2 Bft) O-SO 112 0 min 0,000 mm 0,0 UV-I 0 W/m -5,0 C -8,4 C 11,3 km/h (2 Bft) 100,00 %
11.12.2019 05:30 -4,3 C 95 % 1023,2 hPa 0,0 l/m 9,7 km/h (2 Bft) O-SO 112 0 min 0,000 mm 0,0 UV-I 0 W/m -5,0 C -8,4 C 11,3 km/h (2 Bft) 100,00 %
11.12.2019 05:29 -4,3 C 95 % 1023,2 hPa 0,0 l/m 9,7 km/h (2 Bft) O-SO 112 0 min 0,000 mm 0,0 UV-I 0 W/m -5,0 C -8,4 C 9,7 km/h (2 Bft) 95,65 %
11.12.2019 05:28 -4,3 C 95 % 1023,2 hPa 0,0 l/m 11,3 km/h (2 Bft) O-SO 112 0 min 0,000 mm 0,0 UV-I 0 W/m -5,0 C -8,8 C 12,9 km/h (3 Bft) 100,00 %
11.12.2019 05:27 -4,3 C 95 % 1023,2 hPa 0,0 l/m 11,3 km/h (2 Bft) O-SO 112 0 min 0,000 mm 0,0 UV-I 0 W/m -5,0 C -8,8 C 12,9 km/h (3 Bft) 95,65 %
11.12.2019 05:26 -4,2 C 95 % 1023,2 hPa 0,0 l/m 11,3 km/h (2 Bft) O-SO 112 0 min 0,000 mm 0,0 UV-I 0 W/m -4,9 C -8,7 C 12,9 km/h (3 Bft) 100,00 %
11.12.2019 05:25 -4,3 C 95 % 1023,2 hPa 0,0 l/m 12,9 km/h (3 Bft) O-SO 112 0 min 0,000 mm 0,0 UV-I 0 W/m -5,0 C -9,2 C 14,5 km/h (3 Bft) 100,00 %
11.12.2019 05:24 -4,3 C 95 % 1023,2 hPa 0,0 l/m 11,3 km/h (2 Bft) O-SO 112 0 min 0,000 mm 0,0 UV-I 0 W/m -5,0 C -8,8 C 12,9 km/h (3 Bft) 100,00 %
11.12.2019 05:23 -4,2 C 95 % 1023,2 hPa 0,0 l/m 12,9 km/h (3 Bft) O-SO 112 0 min 0,000 mm 0,0 UV-I 0 W/m -4,9 C -9,1 C 14,5 km/h (3 Bft) 100,00 %
11.12.2019 05:22 -4,2 C 95 % 1023,3 hPa 0,0 l/m 11,3 km/h (2 Bft) O-SO 112 0 min 0,000 mm 0,0 UV-I 0 W/m -4,9 C -8,7 C 12,9 km/h (3 Bft) 100,00 %
11.12.2019 05:21 -4,2 C 95 % 1023,3 hPa 0,0 l/m 11,3 km/h (2 Bft) O-SO 112 0 min 0,000 mm 0,0 UV-I 0 W/m -4,9 C -8,7 C 11,3 km/h (2 Bft) 100,00 %
11.12.2019 05:20 -4,2 C 95 % 1023,3 hPa 0,0 l/m 11,3 km/h (2 Bft) O-SO 112 0 min 0,000 mm 0,0 UV-I 0 W/m -4,9 C -8,7 C 11,3 km/h (2 Bft) 100,00 %
11.12.2019 05:19 -4,2 C 95 % 1023,3 hPa 0,0 l/m 11,3 km/h (2 Bft) O-SO 112 0 min 0,000 mm 0,0 UV-I 0 W/m -4,9 C -8,7 C 11,3 km/h (2 Bft) 100,00 %
11.12.2019 05:18 -4,2 C 95 % 1023,3 hPa 0,0 l/m 11,3 km/h (2 Bft) O-SO 112 0 min 0,000 mm 0,0 UV-I 0 W/m -4,9 C -8,7 C 12,9 km/h (3 Bft) 100,00 %
11.12.2019 05:17 -4,2 C 95 % 1023,3 hPa 0,0 l/m 11,3 km/h (2 Bft) O-SO 112 0 min 0,000 mm 0,0 UV-I 0 W/m -4,9 C -8,7 C 12,9 km/h (3 Bft) 100,00 %
11.12.2019 05:16 -4,2 C 95 % 1023,3 hPa 0,0 l/m 11,3 km/h (2 Bft) O-SO 112 0 min 0,000 mm 0,0 UV-I 0 W/m -4,9 C -8,7 C 12,9 km/h (3 Bft) 100,00 %
11.12.2019 05:15 -4,2 C 95 % 1023,3 hPa 0,0 l/m 11,3 km/h (2 Bft) O-SO 112 0 min 0,000 mm 0,0 UV-I 0 W/m -4,9 C -8,7 C 12,9 km/h (3 Bft) 100,00 %
11.12.2019 05:14 -4,2 C 95 % 1023,4 hPa 0,0 l/m 11,3 km/h (2 Bft) O-SO 112 0 min 0,000 mm 0,0 UV-I 0 W/m -4,9 C -8,7 C 11,3 km/h (2 Bft) 95,65 %
11.12.2019 05:13 -4,2 C 95 % 1023,4 hPa 0,0 l/m 11,3 km/h (2 Bft) O-SO 112 0 min 0,000 mm 0,0 UV-I 0 W/m -4,9 C -8,7 C 12,9 km/h (3 Bft) 100,00 %
11.12.2019 05:12 -4,2 C 95 % 1023,5 hPa 0,0 l/m 11,3 km/h (2 Bft) O-SO 112 0 min 0,000 mm 0,0 UV-I 0 W/m -4,9 C -8,7 C 12,9 km/h (3 Bft) 100,00 %
11.12.2019 05:11 -4,2 C 95 % 1023,5 hPa 0,0 l/m 11,3 km/h (2 Bft) O-SO 112 0 min 0,000 mm 0,0 UV-I 0 W/m -4,9 C -8,7 C 12,9 km/h (3 Bft) 100,00 %
11.12.2019 05:10 -4,1 C 95 % 1023,5 hPa 0,0 l/m 11,3 km/h (2 Bft) O-SO 112 0 min 0,000 mm 0,0 UV-I 0 W/m -4,8 C -8,6 C 11,3 km/h (2 Bft) 100,00 %
11.12.2019 05:09 -4,1 C 95 % 1023,5 hPa 0,0 l/m 11,3 km/h (2 Bft) O-SO 112 0 min 0,000 mm 0,0 UV-I 0 W/m -4,8 C -8,6 C 12,9 km/h (3 Bft) 100,00 %
11.12.2019 05:08 -4,1 C 95 % 1023,5 hPa 0,0 l/m 11,3 km/h (2 Bft) O-SO 112 0 min 0,000 mm 0,0 UV-I 0 W/m -4,8 C -8,6 C 12,9 km/h (3 Bft) 100,00 %
11.12.2019 05:07 -4,1 C 95 % 1023,5 hPa 0,0 l/m 11,3 km/h (2 Bft) O-SO 112 0 min 0,000 mm 0,0 UV-I 0 W/m -4,8 C -8,6 C 12,9 km/h (3 Bft) 95,65 %
11.12.2019 05:06 -4,1 C 95 % 1023,5 hPa 0,0 l/m 11,3 km/h (2 Bft) O-SO 112 0 min 0,000 mm 0,0 UV-I 0 W/m -4,8 C -8,6 C 14,5 km/h (3 Bft) 100,00 %
11.12.2019 05:05 -4,1 C 95 % 1023,5 hPa 0,0 l/m 11,3 km/h (2 Bft) O-SO 112 0 min 0,000 mm 0,0 UV-I 0 W/m -4,8 C -8,6 C 12,9 km/h (3 Bft) 100,00 %
11.12.2019 05:04 -4,1 C 95 % 1023,5 hPa 0,0 l/m 12,9 km/h (3 Bft) O-SO 112 0 min 0,000 mm 0,0 UV-I 0 W/m -4,8 C -9,0 C 12,9 km/h (3 Bft) 100,00 %
11.12.2019 05:03 -4,1 C 95 % 1023,4 hPa 0,0 l/m 12,9 km/h (3 Bft) O-SO 112 0 min 0,000 mm 0,0 UV-I 0 W/m -4,8 C -9,0 C 14,5 km/h (3 Bft) 95,65 %
11.12.2019 05:02 -4,2 C 95 % 1023,5 hPa 0,0 l/m 12,9 km/h (3 Bft) O-SO 112 0 min 0,000 mm 0,0 UV-I 0 W/m -4,9 C -9,1 C 14,5 km/h (3 Bft) 100,00 %
11.12.2019 05:01 -4,2 C 95 % 1023,6 hPa 0,0 l/m 12,9 km/h (3 Bft) O-SO 112 0 min 0,000 mm 0,0 UV-I 0 W/m -4,9 C -9,1 C 12,9 km/h (3 Bft) 100,00 %
11.12.2019 05:00 -4,2 C 95 % 1023,6 hPa 0,0 l/m 9,7 km/h (2 Bft) O-SO 112 0 min 0,000 mm 0,0 UV-I 0 W/m -4,9 C -8,2 C 12,9 km/h (3 Bft) 100,00 %
11.12.2019 04:59 -4,2 C 95 % 1023,6 hPa 0,0 l/m 9,7 km/h (2 Bft) O-SO 112 0 min 0,000 mm 0,0 UV-I 0 W/m -4,9 C -8,2 C 11,3 km/h (2 Bft) 100,00 %
11.12.2019 04:58 -4,2 C 95 % 1023,6 hPa 0,0 l/m 9,7 km/h (2 Bft) O-SO 112 0 min 0,000 mm 0,0 UV-I 0 W/m -4,9 C -8,2 C 11,3 km/h (2 Bft) 100,00 %
11.12.2019 04:57 -4,2 C 95 % 1023,7 hPa 0,0 l/m 8,0 km/h (2 Bft) O-SO 112 0 min 0,000 mm 0,0 UV-I 0 W/m -4,9 C -7,7 C 11,3 km/h (2 Bft) 100,00 %
11.12.2019 04:56 -4,2 C 95 % 1023,7 hPa 0,0 l/m 8,0 km/h (2 Bft) O-SO 112 0 min 0,000 mm 0,0 UV-I 0 W/m -4,9 C -7,7 C 9,7 km/h (2 Bft) 100,00 %
11.12.2019 04:55 -4,2 C 95 % 1023,7 hPa 0,0 l/m 8,0 km/h (2 Bft) O-SO 112 0 min 0,000 mm 0,0 UV-I 0 W/m -4,9 C -7,7 C 9,7 km/h (2 Bft) 95,65 %
11.12.2019 04:54 -4,2 C 95 % 1023,7 hPa 0,0 l/m 8,0 km/h (2 Bft) O-SO 112 0 min 0,000 mm 0,0 UV-I 0 W/m -4,9 C -7,7 C 9,7 km/h (2 Bft) 100,00 %
11.12.2019 04:53 -4,2 C 95 % 1023,7 hPa 0,0 l/m 6,4 km/h (2 Bft) O-SO 112 0 min 0,000 mm 0,0 UV-I 0 W/m -4,9 C -7,0 C 9,7 km/h (2 Bft) 95,65 %
11.12.2019 04:52 -4,2 C 95 % 1023,9 hPa 0,0 l/m 6,4 km/h (2 Bft) O-SO 112 0 min 0,000 mm 0,0 UV-I 0 W/m -4,9 C -7,0 C 8,0 km/h (2 Bft) 100,00 %
11.12.2019 04:51 -4,2 C 95 % 1023,8 hPa 0,0 l/m 6,4 km/h (2 Bft) O-SO 112 0 min 0,000 mm 0,0 UV-I 0 W/m -4,9 C -7,0 C 8,0 km/h (2 Bft) 100,00 %
11.12.2019 04:50 -4,2 C 95 % 1023,8 hPa 0,0 l/m 6,4 km/h (2 Bft) O-SO 112 0 min 0,000 mm 0,0 UV-I 0 W/m -4,9 C -7,0 C 6,4 km/h (2 Bft) 95,65 %
11.12.2019 04:49 -4,2 C 95 % 1023,8 hPa 0,0 l/m 6,4 km/h (2 Bft) O-SO 112 0 min 0,000 mm 0,0 UV-I 0 W/m -4,9 C -7,0 C 9,7 km/h (2 Bft) 95,65 %
11.12.2019 04:48 -4,3 C 95 % 1023,8 hPa 0,0 l/m 8,0 km/h (2 Bft) O-SO 112 0 min 0,000 mm 0,0 UV-I 0 W/m -5,0 C -7,8 C 9,7 km/h (2 Bft) 95,65 %
11.12.2019 04:47 -4,3 C 95 % 1023,8 hPa 0,0 l/m 9,7 km/h (2 Bft) O-SO 112 0 min 0,000 mm 0,0 UV-I 0 W/m -5,0 C -8,4 C 12,9 km/h (3 Bft) 95,65 %
11.12.2019 04:46 -4,3 C 95 % 1023,8 hPa 0,0 l/m 11,3 km/h (2 Bft) O-SO 112 0 min 0,000 mm 0,0 UV-I 0 W/m -5,0 C -8,8 C 12,9 km/h (3 Bft) 100,00 %
11.12.2019 04:45 -4,3 C 95 % 1023,9 hPa 0,0 l/m 9,7 km/h (2 Bft) SO 135 0 min 0,000 mm 0,0 UV-I 0 W/m -5,0 C -8,4 C 11,3 km/h (2 Bft) 100,00 %
11.12.2019 04:44 -4,3 C 95 % 1023,9 hPa 0,0 l/m 9,7 km/h (2 Bft) O-SO 112 0 min 0,000 mm 0,0 UV-I 0 W/m -5,0 C -8,4 C 12,9 km/h (3 Bft) 100,00 %
11.12.2019 04:43 -4,4 C 95 % 1023,9 hPa 0,0 l/m 9,7 km/h (2 Bft) O-SO 112 0 min 0,000 mm 0,0 UV-I 0 W/m -5,1 C -8,5 C 11,3 km/h (2 Bft) 91,30 %
11.12.2019 04:42 -4,3 C 95 % 1023,9 hPa 0,0 l/m 11,3 km/h (2 Bft) O-SO 112 0 min 0,000 mm 0,0 UV-I 0 W/m -5,0 C -8,8 C 11,3 km/h (2 Bft) 100,00 %
11.12.2019 04:41 -4,3 C 95 % 1023,9 hPa 0,0 l/m 11,3 km/h (2 Bft) O-SO 112 0 min 0,000 mm 0,0 UV-I 0 W/m -5,0 C -8,8 C 12,9 km/h (3 Bft) 100,00 %
11.12.2019 04:40 -4,4 C 95 % 1023,9 hPa 0,0 l/m 9,7 km/h (2 Bft) O-SO 112 0 min 0,000 mm 0,0 UV-I 0 W/m -5,1 C -8,5 C 11,3 km/h (2 Bft) 95,65 %
11.12.2019 04:39 -4,4 C 95 % 1023,9 hPa 0,0 l/m 11,3 km/h (2 Bft) O-SO 112 0 min 0,000 mm 0,0 UV-I 0 W/m -5,1 C -8,9 C 11,3 km/h (2 Bft) 100,00 %
11.12.2019 04:38 -4,3 C 95 % 1024,0 hPa 0,0 l/m 8,0 km/h (2 Bft) O-SO 112 0 min 0,000 mm 0,0 UV-I 0 W/m -5,0 C -7,8 C 11,3 km/h (2 Bft) 100,00 %
11.12.2019 04:37 -4,3 C 95 % 1023,9 hPa 0,0 l/m 6,4 km/h (2 Bft) O-SO 112 0 min 0,000 mm 0,0 UV-I 0 W/m -5,0 C -7,1 C 8,0 km/h (2 Bft) 100,00 %
11.12.2019 04:36 -4,4 C 95 % 1023,9 hPa 0,0 l/m 6,4 km/h (2 Bft) O-SO 112 0 min 0,000 mm 0,0 UV-I 0 W/m -5,1 C -7,3 C 8,0 km/h (2 Bft) 100,00 %
11.12.2019 04:35 -4,3 C 95 % 1023,9 hPa 0,0 l/m 6,4 km/h (2 Bft) O-SO 112 0 min 0,000 mm 0,0 UV-I 0 W/m -5,0 C -7,1 C 9,7 km/h (2 Bft) 100,00 %
11.12.2019 04:34 -4,3 C 95 % 1024,0 hPa 0,0 l/m 6,4 km/h (2 Bft) O-SO 112 0 min 0,000 mm 0,0 UV-I 0 W/m -5,0 C -7,1 C 6,4 km/h (2 Bft) 100,00 %
11.12.2019 04:33 -4,3 C 95 % 1024,0 hPa 0,0 l/m 6,4 km/h (2 Bft) O-SO 112 0 min 0,000 mm 0,0 UV-I 0 W/m -5,0 C -7,1 C 9,7 km/h (2 Bft) 100,00 %
11.12.2019 04:32 -4,3 C 95 % 1024,0 hPa 0,0 l/m 8,0 km/h (2 Bft) O-SO 112 0 min 0,000 mm 0,0 UV-I 0 W/m -5,0 C -7,8 C 11,3 km/h (2 Bft) 100,00 %
11.12.2019 04:31 -4,3 C 95 % 1024,1 hPa 0,0 l/m 9,7 km/h (2 Bft) O-SO 112 0 min 0,000 mm 0,0 UV-I 0 W/m -5,0 C -8,4 C 11,3 km/h (2 Bft) 100,00 %
11.12.2019 04:30 -4,3 C 95 % 1023,9 hPa 0,0 l/m 8,0 km/h (2 Bft) O-SO 112 0 min 0,000 mm 0,0 UV-I 0 W/m -5,0 C -7,8 C 8,0 km/h (2 Bft) 100,00 %
11.12.2019 04:29 -4,3 C 95 % 1024,1 hPa 0,0 l/m 8,0 km/h (2 Bft) O-SO 112 0 min 0,000 mm 0,0 UV-I 0 W/m -5,0 C -7,8 C 11,3 km/h (2 Bft) 100,00 %
11.12.2019 04:28 -4,3 C 95 % 1024,0 hPa 0,0 l/m 9,7 km/h (2 Bft) O-SO 112 0 min 0,000 mm 0,0 UV-I 0 W/m -5,0 C -8,4 C 11,3 km/h (2 Bft) 95,65 %
11.12.2019 04:27 -4,3 C 95 % 1024,0 hPa 0,0 l/m 9,7 km/h (2 Bft) O-SO 112 0 min 0,000 mm 0,0 UV-I 0 W/m -5,0 C -8,4 C 11,3 km/h (2 Bft) 100,00 %
11.12.2019 04:26 -4,3 C 95 % 1024,0 hPa 0,0 l/m 8,0 km/h (2 Bft) O-SO 112 0 min 0,000 mm 0,0 UV-I 0 W/m -5,0 C -7,8 C 11,3 km/h (2 Bft) 100,00 %
11.12.2019 04:25 -4,3 C 95 % 1024,1 hPa 0,0 l/m 8,0 km/h (2 Bft) O-SO 112 0 min 0,000 mm 0,0 UV-I 0 W/m -5,0 C -7,8 C 11,3 km/h (2 Bft) 100,00 %
11.12.2019 04:24 -4,3 C 95 % 1024,1 hPa 0,0 l/m 9,7 km/h (2 Bft) O-SO 112 0 min 0,000 mm 0,0 UV-I 0 W/m -5,0 C -8,4 C 11,3 km/h (2 Bft) 100,00 %
11.12.2019 04:23 -4,3 C 95 % 1024,0 hPa 0,0 l/m 11,3 km/h (2 Bft) O-SO 112 0 min 0,000 mm 0,0 UV-I 0 W/m -5,0 C -8,8 C 12,9 km/h (3 Bft) 100,00 %
11.12.2019 04:22 -4,3 C 95 % 1024,1 hPa 0,0 l/m 11,3 km/h (2 Bft) O-SO 112 0 min 0,000 mm 0,0 UV-I 0 W/m -5,0 C -8,8 C 12,9 km/h (3 Bft) 100,00 %
11.12.2019 04:21 -4,3 C 95 % 1024,0 hPa 0,0 l/m 11,3 km/h (2 Bft) O-SO 112 0 min 0,000 mm 0,0 UV-I 0 W/m -5,0 C -8,8 C 12,9 km/h (3 Bft) 100,00 %
11.12.2019 04:20 -4,2 C 95 % 1024,1 hPa 0,0 l/m 11,3 km/h (2 Bft) O-SO 112 0 min 0,000 mm 0,0 UV-I 0 W/m -4,9 C -8,7 C 12,9 km/h (3 Bft) 100,00 %
11.12.2019 04:19 -4,3 C 95 % 1024,1 hPa 0,0 l/m 9,7 km/h (2 Bft) O-SO 112 0 min 0,000 mm 0,0 UV-I 0 W/m -5,0 C -8,4 C 11,3 km/h (2 Bft) 100,00 %
11.12.2019 04:18 -4,2 C 95 % 1024,1 hPa 0,0 l/m 9,7 km/h (2 Bft) O-SO 112 0 min 0,000 mm 0,0 UV-I 0 W/m -4,9 C -8,2 C 11,3 km/h (2 Bft) 100,00 %
11.12.2019 04:17 -4,2 C 95 % 1024,1 hPa 0,0 l/m 9,7 km/h (2 Bft) O-SO 112 0 min 0,000 mm 0,0 UV-I 0 W/m -4,9 C -8,2 C 11,3 km/h (2 Bft) 91,30 %
11.12.2019 04:16 -4,3 C 95 % 1024,1 hPa 0,0 l/m 8,0 km/h (2 Bft) O-SO 112 0 min 0,000 mm 0,0 UV-I 0 W/m -5,0 C -7,8 C 11,3 km/h (2 Bft) 100,00 %
11.12.2019 04:15 -4,2 C 95 % 1024,1 hPa 0,0 l/m 9,7 km/h (2 Bft) O-SO 112 0 min 0,000 mm 0,0 UV-I 0 W/m -4,9 C -8,2 C 11,3 km/h (2 Bft) 100,00 %
11.12.2019 04:14 -4,2 C 95 % 1024,1 hPa 0,0 l/m 11,3 km/h (2 Bft) O-SO 112 0 min 0,000 mm 0,0 UV-I 0 W/m -4,9 C -8,7 C 11,3 km/h (2 Bft) 95,65 %
11.12.2019 04:13 -4,2 C 95 % 1024,1 hPa 0,0 l/m 9,7 km/h (2 Bft) O-SO 112 0 min 0,000 mm 0,0 UV-I 0 W/m -4,9 C -8,2 C 11,3 km/h (2 Bft) 100,00 %
11.12.2019 04:12 -4,2 C 95 % 1024,2 hPa 0,0 l/m 11,3 km/h (2 Bft) O-SO 112 0 min 0,000 mm 0,0 UV-I 0 W/m -4,9 C -8,7 C 12,9 km/h (3 Bft) 100,00 %
11.12.2019 04:11 -4,2 C 95 % 1024,1 hPa 0,0 l/m 9,7 km/h (2 Bft) O-SO 112 0 min 0,000 mm 0,0 UV-I 0 W/m -4,9 C -8,2 C 11,3 km/h (2 Bft) 100,00 %
11.12.2019 04:10 -4,2 C 95 % 1024,2 hPa 0,0 l/m 9,7 km/h (2 Bft) O-SO 112 0 min 0,000 mm 0,0 UV-I 0 W/m -4,9 C -8,2 C 11,3 km/h (2 Bft) 95,65 %
11.12.2019 04:09 -4,2 C 95 % 1024,2 hPa 0,0 l/m 9,7 km/h (2 Bft) O-SO 112 0 min 0,000 mm 0,0 UV-I 0 W/m -4,9 C -8,2 C 12,9 km/h (3 Bft) 100,00 %
11.12.2019 04:08 -4,2 C 95 % 1024,2 hPa 0,0 l/m 9,7 km/h (2 Bft) O-SO 112 0 min 0,000 mm 0,0 UV-I 0 W/m -4,9 C -8,2 C 12,9 km/h (3 Bft) 100,00 %
11.12.2019 04:07 -4,2 C 95 % 1024,2 hPa 0,0 l/m 9,7 km/h (2 Bft) O-SO 112 0 min 0,000 mm 0,0 UV-I 0 W/m -4,9 C -8,2 C 12,9 km/h (3 Bft) 100,00 %
11.12.2019 04:06 -4,2 C 95 % 1024,2 hPa 0,0 l/m 11,3 km/h (2 Bft) SO 135 0 min 0,000 mm 0,0 UV-I 0 W/m -4,9 C -8,7 C 12,9 km/h (3 Bft) 100,00 %
11.12.2019 04:05 -4,2 C 95 % 1024,2 hPa 0,0 l/m 11,3 km/h (2 Bft) SO 135 0 min 0,000 mm 0,0 UV-I 0 W/m -4,9 C -8,7 C 11,3 km/h (2 Bft) 100,00 %
11.12.2019 04:04 -4,2 C 95 % 1024,2 hPa 0,0 l/m 9,7 km/h (2 Bft) SO 135 0 min 0,000 mm 0,0 UV-I 0 W/m -4,9 C -8,2 C 11,3 km/h (2 Bft) 95,65 %
11.12.2019 04:03 -4,2 C 95 % 1024,3 hPa 0,0 l/m 11,3 km/h (2 Bft) O-SO 112 0 min 0,000 mm 0,0 UV-I 0 W/m -4,9 C -8,7 C 12,9 km/h (3 Bft) 100,00 %
11.12.2019 04:02 -4,2 C 95 % 1024,2 hPa 0,0 l/m 11,3 km/h (2 Bft) O-SO 112 0 min 0,000 mm 0,0 UV-I 0 W/m -4,9 C -8,7 C 11,3 km/h (2 Bft) 91,30 %
11.12.2019 04:01 -4,2 C 95 % 1024,3 hPa 0,0 l/m 11,3 km/h (2 Bft) O-SO 112 0 min 0,000 mm 0,0 UV-I 0 W/m -4,9 C -8,7 C 12,9 km/h (3 Bft) 100,00 %
11.12.2019 04:00 -4,2 C 95 % 1024,2 hPa 0,0 l/m 11,3 km/h (2 Bft) O-SO 112 0 min 0,000 mm 0,0 UV-I 0 W/m -4,9 C -8,7 C 11,3 km/h (2 Bft) 100,00 %
11.12.2019 03:59 -4,1 C 95 % 1024,3 hPa 0,0 l/m 8,0 km/h (2 Bft) O-SO 112 0 min 0,000 mm 0,0 UV-I 0 W/m -4,8 C -7,6 C 11,3 km/h (2 Bft) 91,30 %
11.12.2019 03:58 -4,1 C 95 % 1024,3 hPa 0,0 l/m 11,3 km/h (2 Bft) O-SO 112 0 min 0,000 mm 0,0 UV-I 0 W/m -4,8 C -8,6 C 11,3 km/h (2 Bft) 100,00 %
11.12.2019 03:57 -4,1 C 95 % 1024,3 hPa 0,0 l/m 9,7 km/h (2 Bft) O-SO 112 0 min 0,000 mm 0,0 UV-I 0 W/m -4,8 C -8,1 C 11,3 km/h (2 Bft) 100,00 %
11.12.2019 03:56 -4,1 C 95 % 1024,3 hPa 0,0 l/m 11,3 km/h (2 Bft) SO 135 0 min 0,000 mm 0,0 UV-I 0 W/m -4,8 C -8,6 C 14,5 km/h (3 Bft) 100,00 %
11.12.2019 03:55 -4,1 C 95 % 1024,3 hPa 0,0 l/m 12,9 km/h (3 Bft) SO 135 0 min 0,000 mm 0,0 UV-I 0 W/m -4,8 C -9,0 C 12,9 km/h (3 Bft) 100,00 %
11.12.2019 03:54 -4,1 C 95 % 1024,3 hPa 0,0 l/m 11,3 km/h (2 Bft) SO 135 0 min 0,000 mm 0,0 UV-I 0 W/m -4,8 C -8,6 C 14,5 km/h (3 Bft) 100,00 %
11.12.2019 03:53 -4,1 C 95 % 1024,4 hPa 0,0 l/m 12,9 km/h (3 Bft) O-SO 112 0 min 0,000 mm 0,0 UV-I 0 W/m -4,8 C -9,0 C 12,9 km/h (3 Bft) 100,00 %
11.12.2019 03:52 -4,0 C 95 % 1024,4 hPa 0,0 l/m 11,3 km/h (2 Bft) O-SO 112 0 min 0,000 mm 0,0 UV-I 0 W/m -4,7 C -8,5 C 12,9 km/h (3 Bft) 95,65 %
11.12.2019 03:51 -4,0 C 95 % 1024,4 hPa 0,0 l/m 11,3 km/h (2 Bft) O-SO 112 0 min 0,000 mm 0,0 UV-I 0 W/m -4,7 C -8,5 C 12,9 km/h (3 Bft) 100,00 %
11.12.2019 03:50 -4,0 C 95 % 1024,5 hPa 0,0 l/m 11,3 km/h (2 Bft) O-SO 112 0 min 0,000 mm 0,0 UV-I 0 W/m -4,7 C -8,5 C 12,9 km/h (3 Bft) 95,65 %
11.12.2019 03:49 -4,0 C 95 % 1024,5 hPa 0,0 l/m 9,7 km/h (2 Bft) SO 135 0 min 0,000 mm 0,0 UV-I 0 W/m -4,7 C -8,0 C 11,3 km/h (2 Bft) 100,00 %
11.12.2019 03:48 -4,0 C 95 % 1024,5 hPa 0,0 l/m 9,7 km/h (2 Bft) O-SO 112 0 min 0,000 mm 0,0 UV-I 0 W/m -4,7 C -8,0 C 11,3 km/h (2 Bft) 100,00 %
11.12.2019 03:47 -3,9 C 95 % 1024,6 hPa 0,0 l/m 8,0 km/h (2 Bft) O-SO 112 0 min 0,000 mm 0,0 UV-I 0 W/m -4,6 C -7,3 C 11,3 km/h (2 Bft) 100,00 %
11.12.2019 03:46 -3,9 C 95 % 1024,5 hPa 0,0 l/m 9,7 km/h (2 Bft) O-SO 112 0 min 0,000 mm 0,0 UV-I 0 W/m -4,6 C -7,9 C 11,3 km/h (2 Bft) 100,00 %
11.12.2019 03:45 -3,9 C 95 % 1024,6 hPa 0,0 l/m 9,7 km/h (2 Bft) O-SO 112 0 min 0,000 mm 0,0 UV-I 0 W/m -4,6 C -7,9 C 12,9 km/h (3 Bft) 100,00 %
11.12.2019 03:44 -3,9 C 95 % 1024,6 hPa 0,0 l/m 9,7 km/h (2 Bft) O-SO 112 0 min 0,000 mm 0,0 UV-I 0 W/m -4,6 C -7,9 C 11,3 km/h (2 Bft) 100,00 %
11.12.2019 03:43 -3,9 C 95 % 1024,6 hPa 0,0 l/m 8,0 km/h (2 Bft) O-SO 112 0 min 0,000 mm 0,0 UV-I 0 W/m -4,6 C -7,3 C 11,3 km/h (2 Bft) 100,00 %
11.12.2019 03:42 -3,9 C 95 % 1024,7 hPa 0,0 l/m 8,0 km/h (2 Bft) O-SO 112 0 min 0,000 mm 0,0 UV-I 0 W/m -4,6 C -7,3 C 11,3 km/h (2 Bft) 100,00 %
11.12.2019 03:41 -3,9 C 95 % 1024,6 hPa 0,0 l/m 8,0 km/h (2 Bft) O-SO 112 0 min 0,000 mm 0,0 UV-I 0 W/m -4,6 C -7,3 C 8,0 km/h (2 Bft) 100,00 %
11.12.2019 03:40 -3,9 C 95 % 1024,6 hPa 0,0 l/m 8,0 km/h (2 Bft) O-SO 112 0 min 0,000 mm 0,0 UV-I 0 W/m -4,6 C -7,3 C 8,0 km/h (2 Bft) 100,00 %
11.12.2019 03:39 -3,9 C 95 % 1024,7 hPa 0,0 l/m 9,7 km/h (2 Bft) O-SO 112 0 min 0,000 mm 0,0 UV-I 0 W/m -4,6 C -7,9 C 11,3 km/h (2 Bft) 100,00 %
11.12.2019 03:38 -3,9 C 95 % 1024,7 hPa 0,0 l/m 9,7 km/h (2 Bft) SO 135 0 min 0,000 mm 0,0 UV-I 0 W/m -4,6 C -7,9 C 11,3 km/h (2 Bft) 95,65 %
11.12.2019 03:37 -3,9 C 95 % 1024,7 hPa 0,0 l/m 8,0 km/h (2 Bft) SO 135 0 min 0,000 mm 0,0 UV-I 0 W/m -4,6 C -7,3 C 8,0 km/h (2 Bft) 95,65 %
11.12.2019 03:36 -3,9 C 95 % 1024,7 hPa 0,0 l/m 6,4 km/h (2 Bft) O-SO 112 0 min 0,000 mm 0,0 UV-I 0 W/m -4,6 C -6,7 C 8,0 km/h (2 Bft) 95,65 %
11.12.2019 03:35 -3,9 C 95 % 1024,8 hPa 0,0 l/m 6,4 km/h (2 Bft) O-SO 112 0 min 0,000 mm 0,0 UV-I 0 W/m -4,6 C -6,7 C 8,0 km/h (2 Bft) 100,00 %
11.12.2019 03:34 -3,9 C 95 % 1024,8 hPa 0,0 l/m 6,4 km/h (2 Bft) O-SO 112 0 min 0,000 mm 0,0 UV-I 0 W/m -4,6 C -6,7 C 8,0 km/h (2 Bft) 100,00 %
11.12.2019 03:33 -3,9 C 95 % 1024,8 hPa 0,0 l/m 8,0 km/h (2 Bft) O-SO 112 0 min 0,000 mm 0,0 UV-I 0 W/m -4,6 C -7,3 C 11,3 km/h (2 Bft) 95,65 %
11.12.2019 03:32 -3,9 C 95 % 1024,8 hPa 0,0 l/m 11,3 km/h (2 Bft) O-SO 112 0 min 0,000 mm 0,0 UV-I 0 W/m -4,6 C -8,3 C 12,9 km/h (3 Bft) 100,00 %
11.12.2019 03:31 -3,8 C 95 % 1024,9 hPa 0,0 l/m 9,7 km/h (2 Bft) O-SO 112 0 min 0,000 mm 0,0 UV-I 0 W/m -4,5 C -7,8 C 11,3 km/h (2 Bft) 100,00 %
11.12.2019 03:30 -3,8 C 95 % 1024,9 hPa 0,0 l/m 9,7 km/h (2 Bft) O-SO 112 0 min 0,000 mm 0,0 UV-I 0 W/m -4,5 C -7,8 C 11,3 km/h (2 Bft) 100,00 %
11.12.2019 03:29 -3,8 C 95 % 1024,9 hPa 0,0 l/m 9,7 km/h (2 Bft) SO 135 0 min 0,000 mm 0,0 UV-I 0 W/m -4,5 C -7,8 C 11,3 km/h (2 Bft) 100,00 %
11.12.2019 03:28 -3,8 C 95 % 1024,9 hPa 0,0 l/m 8,0 km/h (2 Bft) SO 135 0 min 0,000 mm 0,0 UV-I 0 W/m -4,5 C -7,2 C 11,3 km/h (2 Bft) 100,00 %
11.12.2019 03:27 -3,8 C 95 % 1024,9 hPa 0,0 l/m 8,0 km/h (2 Bft) O-SO 112 0 min 0,000 mm 0,0 UV-I 0 W/m -4,5 C -7,2 C 8,0 km/h (2 Bft) 100,00 %
11.12.2019 03:26 -3,8 C 95 % 1024,9 hPa 0,0 l/m 6,4 km/h (2 Bft) SO 135 0 min 0,000 mm 0,0 UV-I 0 W/m -4,5 C -6,6 C 8,0 km/h (2 Bft) 95,65 %
11.12.2019 03:25 -3,8 C 95 % 1024,9 hPa 0,0 l/m 9,7 km/h (2 Bft) O-SO 112 0 min 0,000 mm 0,0 UV-I 0 W/m -4,5 C -7,8 C 12,9 km/h (3 Bft) 100,00 %
11.12.2019 03:24 -3,8 C 95 % 1024,9 hPa 0,0 l/m 11,3 km/h (2 Bft) O-SO 112 0 min 0,000 mm 0,0 UV-I 0 W/m -4,5 C -8,2 C 12,9 km/h (3 Bft) 100,00 %
11.12.2019 03:23 -3,8 C 95 % 1025,0 hPa 0,0 l/m 11,3 km/h (2 Bft) SO 135 0 min 0,000 mm 0,0 UV-I 0 W/m -4,5 C -8,2 C 12,9 km/h (3 Bft) 100,00 %
11.12.2019 03:22 -3,8 C 95 % 1025,0 hPa 0,0 l/m 9,7 km/h (2 Bft) O-SO 112 0 min 0,000 mm 0,0 UV-I 0 W/m -4,5 C -7,8 C 11,3 km/h (2 Bft) 95,65 %
11.12.2019 03:21 -3,8 C 95 % 1025,0 hPa 0,0 l/m 9,7 km/h (2 Bft) O-SO 112 0 min 0,000 mm 0,0 UV-I 0 W/m -4,5 C -7,8 C 11,3 km/h (2 Bft) 100,00 %
11.12.2019 03:20 -3,8 C 95 % 1025,1 hPa 0,0 l/m 8,0 km/h (2 Bft) O-SO 112 0 min 0,000 mm 0,0 UV-I 0 W/m -4,5 C -7,2 C 12,9 km/h (3 Bft) 100,00 %
11.12.2019 03:19 -3,8 C 95 % 1025,0 hPa 0,0 l/m 11,3 km/h (2 Bft) O-SO 112 0 min 0,000 mm 0,0 UV-I 0 W/m -4,5 C -8,2 C 12,9 km/h (3 Bft) 95,65 %
11.12.2019 03:18 -3,8 C 95 % 1025,0 hPa 0,0 l/m 9,7 km/h (2 Bft) O-SO 112 0 min 0,000 mm 0,0 UV-I 0 W/m -4,5 C -7,8 C 12,9 km/h (3 Bft) 91,30 %
11.12.2019 03:17 -3,8 C 95 % 1025,1 hPa 0,0 l/m 9,7 km/h (2 Bft) O-SO 112 0 min 0,000 mm 0,0 UV-I 0 W/m -4,5 C -7,8 C 11,3 km/h (2 Bft) 100,00 %
11.12.2019 03:16 -3,8 C 94 % 1025,2 hPa 0,0 l/m 9,7 km/h (2 Bft) O-SO 112 0 min 0,000 mm 0,0 UV-I 0 W/m -4,6 C -7,8 C 11,3 km/h (2 Bft) 100,00 %
11.12.2019 03:15 -3,7 C 94 % 1025,1 hPa 0,0 l/m 8,0 km/h (2 Bft) O-SO 112 0 min 0,000 mm 0,0 UV-I 0 W/m -4,5 C -7,1 C 11,3 km/h (2 Bft) 100,00 %
11.12.2019 03:14 -3,7 C 94 % 1025,1 hPa 0,0 l/m 6,4 km/h (2 Bft) O-SO 112 0 min 0,000 mm 0,0 UV-I 0 W/m -4,5 C -6,5 C 8,0 km/h (2 Bft) 100,00 %
11.12.2019 03:13 -3,7 C 94 % 1025,3 hPa 0,0 l/m 4,8 km/h (1 Bft) O-SO 112 0 min 0,000 mm 0,0 UV-I 0 W/m -4,5 C -5,7 C 6,4 km/h (2 Bft) 100,00 %
11.12.2019 03:12 -3,7 C 94 % 1025,2 hPa 0,0 l/m 4,8 km/h (1 Bft) O-SO 112 0 min 0,000 mm 0,0 UV-I 0 W/m -4,5 C -5,7 C 6,4 km/h (2 Bft) 95,65 %
11.12.2019 03:11 -3,7 C 94 % 1025,1 hPa 0,0 l/m 6,4 km/h (2 Bft) O-SO 112 0 min 0,000 mm 0,0 UV-I 0 W/m -4,5 C -6,5 C 6,4 km/h (2 Bft) 100,00 %
11.12.2019 03:10 -3,7 C 94 % 1025,2 hPa 0,0 l/m 6,4 km/h (2 Bft) O-SO 112 0 min 0,000 mm 0,0 UV-I 0 W/m -4,5 C -6,5 C 8,0 km/h (2 Bft) 100,00 %
11.12.2019 03:09 -3,7 C 94 % 1025,1 hPa 0,0 l/m 8,0 km/h (2 Bft) O-SO 112 0 min 0,000 mm 0,0 UV-I 0 W/m -4,5 C -7,1 C 8,0 km/h (2 Bft) 91,30 %
11.12.2019 03:08 -3,7 C 94 % 1025,2 hPa 0,0 l/m 9,7 km/h (2 Bft) O-SO 112 0 min 0,000 mm 0,0 UV-I 0 W/m -4,5 C -7,6 C 11,3 km/h (2 Bft) 100,00 %
11.12.2019 03:07 -3,7 C 95 % 1025,3 hPa 0,0 l/m 9,7 km/h (2 Bft) O-SO 112 0 min 0,000 mm 0,0 UV-I 0 W/m -4,4 C -7,6 C 11,3 km/h (2 Bft) 100,00 %
11.12.2019 03:06 -3,7 C 94 % 1025,3 hPa 0,0 l/m 11,3 km/h (2 Bft) O-SO 112 0 min 0,000 mm 0,0 UV-I 0 W/m -4,5 C -8,1 C 11,3 km/h (2 Bft) 100,00 %
11.12.2019 03:05 -3,7 C 94 % 1025,3 hPa 0,0 l/m 11,3 km/h (2 Bft) O-SO 112 0 min 0,000 mm 0,0 UV-I 0 W/m -4,5 C -8,1 C 11,3 km/h (2 Bft) 100,00 %
11.12.2019 03:04 -3,7 C 94 % 1025,4 hPa 0,0 l/m 11,3 km/h (2 Bft) O-SO 112 0 min 0,000 mm 0,0 UV-I 0 W/m -4,5 C -8,1 C 11,3 km/h (2 Bft) 100,00 %
11.12.2019 03:03 -3,7 C 94 % 1025,4 hPa 0,0 l/m 11,3 km/h (2 Bft) O-SO 112 0 min 0,000 mm 0,0 UV-I 0 W/m -4,5 C -8,1 C 12,9 km/h (3 Bft) 100,00 %
11.12.2019 03:02 -3,7 C 94 % 1025,5 hPa 0,0 l/m 11,3 km/h (2 Bft) O-SO 112 0 min 0,000 mm 0,0 UV-I 0 W/m -4,5 C -8,1 C 12,9 km/h (3 Bft) 100,00 %
11.12.2019 03:01 -3,6 C 94 % 1025,5 hPa 0,0 l/m 11,3 km/h (2 Bft) O-SO 112 0 min 0,000 mm 0,0 UV-I 0 W/m -4,4 C -8,0 C 11,3 km/h (2 Bft) 100,00 %
11.12.2019 03:00 -3,7 C 94 % 1025,5 hPa 0,0 l/m 9,7 km/h (2 Bft) O-SO 112 0 min 0,000 mm 0,0 UV-I 0 W/m -4,5 C -7,6 C 11,3 km/h (2 Bft) 100,00 %
11.12.2019 02:59 -3,6 C 94 % 1025,6 hPa 0,0 l/m 9,7 km/h (2 Bft) O-SO 112 0 min 0,000 mm 0,0 UV-I 0 W/m -4,4 C -7,5 C 11,3 km/h (2 Bft) 100,00 %
11.12.2019 02:58 -3,7 C 94 % 1025,6 hPa 0,0 l/m 9,7 km/h (2 Bft) O-SO 112 0 min 0,000 mm 0,0 UV-I 0 W/m -4,5 C -7,6 C 11,3 km/h (2 Bft) 100,00 %
11.12.2019 02:57 -3,7 C 94 % 1025,6 hPa 0,0 l/m 9,7 km/h (2 Bft) O-SO 112 0 min 0,000 mm 0,0 UV-I 0 W/m -4,5 C -7,6 C 9,7 km/h (2 Bft) 100,00 %
11.12.2019 02:56 -3,6 C 94 % 1025,7 hPa 0,0 l/m 9,7 km/h (2 Bft) O-SO 112 0 min 0,000 mm 0,0 UV-I 0 W/m -4,4 C -7,5 C 11,3 km/h (2 Bft) 100,00 %
11.12.2019 02:55 -3,6 C 94 % 1025,7 hPa 0,0 l/m 11,3 km/h (2 Bft) O-SO 112 0 min 0,000 mm 0,0 UV-I 0 W/m -4,4 C -8,0 C 11,3 km/h (2 Bft) 100,00 %
11.12.2019 02:54 -3,7 C 94 % 1025,6 hPa 0,0 l/m 11,3 km/h (2 Bft) O-SO 112 0 min 0,000 mm 0,0 UV-I 0 W/m -4,5 C -8,1 C 12,9 km/h (3 Bft) 91,30 %
11.12.2019 02:53 -3,7 C 94 % 1025,7 hPa 0,0 l/m 11,3 km/h (2 Bft) O-SO 112 0 min 0,000 mm 0,0 UV-I 0 W/m -4,5 C -8,1 C 12,9 km/h (3 Bft) 100,00 %
11.12.2019 02:52 -3,7 C 94 % 1025,6 hPa 0,0 l/m 11,3 km/h (2 Bft) O-SO 112 0 min 0,000 mm 0,0 UV-I 0 W/m -4,5 C -8,1 C 12,9 km/h (3 Bft) 95,65 %
11.12.2019 02:51 -3,7 C 94 % 1025,7 hPa 0,0 l/m 11,3 km/h (2 Bft) O-SO 112 0 min 0,000 mm 0,0 UV-I 0 W/m -4,5 C -8,1 C 12,9 km/h (3 Bft) 95,65 %
11.12.2019 02:50 -3,7 C 94 % 1025,7 hPa 0,0 l/m 11,3 km/h (2 Bft) O-SO 112 0 min 0,000 mm 0,0 UV-I 0 W/m -4,5 C -8,1 C 11,3 km/h (2 Bft) 91,30 %
11.12.2019 02:49 -3,7 C 94 % 1025,7 hPa 0,0 l/m 9,7 km/h (2 Bft) O-SO 112 0 min 0,000 mm 0,0 UV-I 0 W/m -4,5 C -7,6 C 11,3 km/h (2 Bft) 100,00 %
11.12.2019 02:48 -3,7 C 94 % 1025,7 hPa 0,0 l/m 8,0 km/h (2 Bft) O-SO 112 0 min 0,000 mm 0,0 UV-I 0 W/m -4,5 C -7,1 C 9,7 km/h (2 Bft) 100,00 %
11.12.2019 02:47 -3,7 C 94 % 1025,8 hPa 0,0 l/m 8,0 km/h (2 Bft) O-SO 112 0 min 0,000 mm 0,0 UV-I 0 W/m -4,5 C -7,1 C 9,7 km/h (2 Bft) 100,00 %
11.12.2019 02:46 -3,7 C 94 % 1025,8 hPa 0,0 l/m 8,0 km/h (2 Bft) O-SO 112 0 min 0,000 mm 0,0 UV-I 0 W/m -4,5 C -7,1 C 9,7 km/h (2 Bft) 100,00 %
11.12.2019 02:45 -3,7 C 94 % 1025,8 hPa 0,0 l/m 9,7 km/h (2 Bft) O-SO 112 0 min 0,000 mm 0,0 UV-I 0 W/m -4,5 C -7,6 C 11,3 km/h (2 Bft) 100,00 %
11.12.2019 02:44 -3,7 C 94 % 1025,8 hPa 0,0 l/m 9,7 km/h (2 Bft) O-SO 112 0 min 0,000 mm 0,0 UV-I 0 W/m -4,5 C -7,6 C 11,3 km/h (2 Bft) 91,30 %
11.12.2019 02:43 -3,7 C 94 % 1025,8 hPa 0,0 l/m 9,7 km/h (2 Bft) O-SO 112 0 min 0,000 mm 0,0 UV-I 0 W/m -4,5 C -7,6 C 11,3 km/h (2 Bft) 100,00 %
11.12.2019 02:42 -3,7 C 94 % 1025,9 hPa 0,0 l/m 8,0 km/h (2 Bft) O-SO 112 0 min 0,000 mm 0,0 UV-I 0 W/m -4,5 C -7,1 C 9,7 km/h (2 Bft) 100,00 %
11.12.2019 02:41 -3,7 C 94 % 1026,0 hPa 0,0 l/m 4,8 km/h (1 Bft) O-SO 112 0 min 0,000 mm 0,0 UV-I 0 W/m -4,5 C -5,7 C 6,4 km/h (2 Bft) 91,30 %
11.12.2019 02:40 -3,7 C 94 % 1025,9 hPa 0,0 l/m 4,8 km/h (1 Bft) O-SO 112 0 min 0,000 mm 0,0 UV-I 0 W/m -4,5 C -5,7 C 6,4 km/h (2 Bft) 95,65 %
11.12.2019 02:39 -3,7 C 94 % 1026,0 hPa 0,0 l/m 4,8 km/h (1 Bft) O-SO 112 0 min 0,000 mm 0,0 UV-I 0 W/m -4,5 C -5,7 C 4,8 km/h (1 Bft) 100,00 %
11.12.2019 02:38 -3,7 C 93 % 1026,0 hPa 0,0 l/m 3,2 km/h (1 Bft) O-SO 112 0 min 0,000 mm 0,0 UV-I 0 W/m -4,7 C -3,7 C 4,8 km/h (1 Bft) 91,30 %
11.12.2019 02:37 -3,7 C 93 % 1026,1 hPa 0,0 l/m 3,2 km/h (1 Bft) O-SO 112 0 min 0,000 mm 0,0 UV-I 0 W/m -4,7 C -3,7 C 4,8 km/h (1 Bft) 91,30 %
11.12.2019 02:36 -3,7 C 93 % 1026,1 hPa 0,0 l/m 3,2 km/h (1 Bft) O-SO 112 0 min 0,000 mm 0,0 UV-I 0 W/m -4,7 C -3,7 C 4,8 km/h (1 Bft) 100,00 %
11.12.2019 02:35 -3,7 C 93 % 1026,0 hPa 0,0 l/m 4,8 km/h (1 Bft) O-SO 112 0 min 0,000 mm 0,0 UV-I 0 W/m -4,7 C -5,7 C 4,8 km/h (1 Bft) 91,30 %
11.12.2019 02:34 -3,7 C 93 % 1026,1 hPa 0,0 l/m 4,8 km/h (1 Bft) O-SO 112 0 min 0,000 mm 0,0 UV-I 0 W/m -4,7 C -5,7 C 4,8 km/h (1 Bft) 95,65 %
11.12.2019 02:33 -3,7 C 93 % 1026,1 hPa 0,0 l/m 4,8 km/h (1 Bft) O-SO 112 0 min 0,000 mm 0,0 UV-I 0 W/m -4,7 C -5,7 C 4,8 km/h (1 Bft) 91,30 %
11.12.2019 02:32 -3,7 C 93 % 1026,1 hPa 0,0 l/m 4,8 km/h (1 Bft) O-SO 112 0 min 0,000 mm 0,0 UV-I 0 W/m -4,7 C -5,7 C 6,4 km/h (2 Bft) 86,96 %
11.12.2019 02:31 -3,7 C 93 % 1026,1 hPa 0,0 l/m 4,8 km/h (1 Bft) O-SO 112 0 min 0,000 mm 0,0 UV-I 0 W/m -4,7 C -5,7 C 6,4 km/h (2 Bft) 91,30 %
11.12.2019 02:30 -3,6 C 93 % 1026,2 hPa 0,0 l/m 4,8 km/h (1 Bft) O-SO 112 0 min 0,000 mm 0,0 UV-I 0 W/m -4,6 C -5,6 C 6,4 km/h (2 Bft) 95,65 %
11.12.2019 02:29 -3,6 C 93 % 1026,2 hPa 0,0 l/m 3,2 km/h (1 Bft) O-SO 112 0 min 0,000 mm 0,0 UV-I 0 W/m -4,6 C -3,6 C 4,8 km/h (1 Bft) 100,00 %
11.12.2019 02:28 -3,6 C 93 % 1026,1 hPa 0,0 l/m 3,2 km/h (1 Bft) O-SO 112 0 min 0,000 mm 0,0 UV-I 0 W/m -4,6 C -3,6 C 4,8 km/h (1 Bft) 91,30 %
11.12.2019 02:27 -3,6 C 93 % 1026,2 hPa 0,0 l/m 3,2 km/h (1 Bft) O-SO 112 0 min 0,000 mm 0,0 UV-I 0 W/m -4,6 C -3,6 C 4,8 km/h (1 Bft) 95,65 %
11.12.2019 02:26 -3,6 C 93 % 1026,2 hPa 0,0 l/m 3,2 km/h (1 Bft) O-SO 112 0 min 0,000 mm 0,0 UV-I 0 W/m -4,6 C -3,6 C 4,8 km/h (1 Bft) 91,30 %
11.12.2019 02:25 -3,6 C 93 % 1026,2 hPa 0,0 l/m 3,2 km/h (1 Bft) O-SO 112 0 min 0,000 mm 0,0 UV-I 0 W/m -4,6 C -3,6 C 4,8 km/h (1 Bft) 86,96 %
11.12.2019 02:24 -3,6 C 93 % 1026,3 hPa 0,0 l/m 3,2 km/h (1 Bft) O-SO 112 0 min 0,000 mm 0,0 UV-I 0 W/m -4,6 C -3,6 C 4,8 km/h (1 Bft) 82,61 %
11.12.2019 02:23 -3,6 C 93 % 1026,3 hPa 0,0 l/m 3,2 km/h (1 Bft) O-SO 112 0 min 0,000 mm 0,0 UV-I 0 W/m -4,6 C -3,6 C 4,8 km/h (1 Bft) 86,96 %
11.12.2019 02:22 -3,5 C 93 % 1026,3 hPa 0,0 l/m 3,2 km/h (1 Bft) O-SO 112 0 min 0,000 mm 0,0 UV-I 0 W/m -4,5 C -3,5 C 3,2 km/h (1 Bft) 91,30 %
11.12.2019 02:21 -3,5 C 93 % 1026,3 hPa 0,0 l/m 3,2 km/h (1 Bft) O-SO 112 0 min 0,000 mm 0,0 UV-I 0 W/m -4,5 C -3,5 C 3,2 km/h (1 Bft) 95,65 %
11.12.2019 02:20 -3,5 C 93 % 1026,3 hPa 0,0 l/m 3,2 km/h (1 Bft) O-SO 112 0 min 0,000 mm 0,0 UV-I 0 W/m -4,5 C -3,5 C 4,8 km/h (1 Bft) 95,65 %
11.12.2019 02:19 -3,5 C 93 % 1026,4 hPa 0,0 l/m 3,2 km/h (1 Bft) O-SO 112 0 min 0,000 mm 0,0 UV-I 0 W/m -4,5 C -3,5 C 4,8 km/h (1 Bft) 91,30 %
11.12.2019 02:18 -3,5 C 93 % 1026,3 hPa 0,0 l/m 4,8 km/h (1 Bft) O-SO 112 0 min 0,000 mm 0,0 UV-I 0 W/m -4,5 C -5,5 C 4,8 km/h (1 Bft) 95,65 %
11.12.2019 02:17 -3,5 C 93 % 1026,4 hPa 0,0 l/m 4,8 km/h (1 Bft) O-SO 112 0 min 0,000 mm 0,0 UV-I 0 W/m -4,5 C -5,5 C 6,4 km/h (2 Bft) 100,00 %
11.12.2019 02:16 -3,5 C 93 % 1026,4 hPa 0,0 l/m 4,8 km/h (1 Bft) O-SO 112 0 min 0,000 mm 0,0 UV-I 0 W/m -4,5 C -5,5 C 4,8 km/h (1 Bft) 95,65 %
11.12.2019 02:15 -3,4 C 93 % 1026,4 hPa 0,0 l/m 4,8 km/h (1 Bft) O-SO 112 0 min 0,000 mm 0,0 UV-I 0 W/m -4,4 C -5,3 C 6,4 km/h (2 Bft) 100,00 %
11.12.2019 02:14 -3,4 C 93 % 1026,4 hPa 0,0 l/m 4,8 km/h (1 Bft) O-SO 112 0 min 0,000 mm 0,0 UV-I 0 W/m -4,4 C -5,3 C 4,8 km/h (1 Bft) 91,30 %
11.12.2019 02:13 -3,4 C 93 % 1026,4 hPa 0,0 l/m 3,2 km/h (1 Bft) O-SO 112 0 min 0,000 mm 0,0 UV-I 0 W/m -4,4 C -3,4 C 4,8 km/h (1 Bft) 100,00 %
11.12.2019 02:12 -3,4 C 93 % 1026,5 hPa 0,0 l/m 3,2 km/h (1 Bft) O-SO 112 0 min 0,000 mm 0,0 UV-I 0 W/m -4,4 C -3,4 C 3,2 km/h (1 Bft) 100,00 %
11.12.2019 02:11 -3,4 C 93 % 1026,5 hPa 0,0 l/m 1,6 km/h (1 Bft) O-SO 112 0 min 0,000 mm 0,0 UV-I 0 W/m -4,4 C -3,4 C 3,2 km/h (1 Bft) 82,61 %
11.12.2019 02:10 -3,4 C 93 % 1026,5 hPa 0,0 l/m 1,6 km/h (1 Bft) O-SO 112 0 min 0,000 mm 0,0 UV-I 0 W/m -4,4 C -3,4 C 1,6 km/h (1 Bft) 100,00 %
11.12.2019 02:09 -3,4 C 93 % 1026,5 hPa 0,0 l/m 1,6 km/h (1 Bft) O-SO 112 0 min 0,000 mm 0,0 UV-I 0 W/m -4,4 C -3,4 C 3,2 km/h (1 Bft) 91,30 %
11.12.2019 02:08 -3,4 C 93 % 1026,5 hPa 0,0 l/m 1,6 km/h (1 Bft) O-SO 112 0 min 0,000 mm 0,0 UV-I 0 W/m -4,4 C -3,4 C 3,2 km/h (1 Bft) 86,96 %
11.12.2019 02:07 -3,4 C 93 % 1026,5 hPa 0,0 l/m 3,2 km/h (1 Bft) O-SO 112 0 min 0,000 mm 0,0 UV-I 0 W/m -4,4 C -3,4 C 3,2 km/h (1 Bft) 91,30 %
11.12.2019 02:06 -3,4 C 92 % 1026,6 hPa 0,0 l/m 4,8 km/h (1 Bft) O-SO 112 0 min 0,000 mm 0,0 UV-I 0 W/m -4,5 C -5,3 C 4,8 km/h (1 Bft) 91,30 %
11.12.2019 02:05 -3,4 C 92 % 1026,5 hPa 0,0 l/m 4,8 km/h (1 Bft) O-SO 112 0 min 0,000 mm 0,0 UV-I 0 W/m -4,5 C -5,3 C 6,4 km/h (2 Bft) 100,00 %
11.12.2019 02:04 -3,4 C 93 % 1026,5 hPa 0,0 l/m 4,8 km/h (1 Bft) O-SO 112 0 min 0,000 mm 0,0 UV-I 0 W/m -4,4 C -5,3 C 6,4 km/h (2 Bft) 86,96 %
11.12.2019 02:03 -3,4 C 92 % 1026,5 hPa 0,0 l/m 4,8 km/h (1 Bft) O-SO 112 0 min 0,000 mm 0,0 UV-I 0 W/m -4,5 C -5,3 C 6,4 km/h (2 Bft) 95,65 %
11.12.2019 02:02 -3,4 C 92 % 1026,5 hPa 0,0 l/m 4,8 km/h (1 Bft) O-SO 112 0 min 0,000 mm 0,0 UV-I 0 W/m -4,5 C -5,3 C 6,4 km/h (2 Bft) 100,00 %
11.12.2019 02:01 -3,4 C 92 % 1026,6 hPa 0,0 l/m 6,4 km/h (2 Bft) O-SO 112 0 min 0,000 mm 0,0 UV-I 0 W/m -4,5 C -6,1 C 6,4 km/h (2 Bft) 95,65 %
11.12.2019 02:00 -3,4 C 92 % 1026,6 hPa 0,0 l/m 4,8 km/h (1 Bft) O-SO 112 0 min 0,000 mm 0,0 UV-I 0 W/m -4,5 C -5,3 C 9,7 km/h (2 Bft) 100,00 %
11.12.2019 01:59 -3,3 C 92 % 1026,6 hPa 0,0 l/m 4,8 km/h (1 Bft) O-SO 112 0 min 0,000 mm 0,0 UV-I 0 W/m -4,4 C -5,2 C 4,8 km/h (1 Bft) 91,30 %
11.12.2019 01:58 -3,3 C 92 % 1026,6 hPa 0,0 l/m 4,8 km/h (1 Bft) O-SO 112 0 min 0,000 mm 0,0 UV-I 0 W/m -4,4 C -5,2 C 6,4 km/h (2 Bft) 100,00 %
11.12.2019 01:57 -3,3 C 92 % 1026,5 hPa 0,0 l/m 4,8 km/h (1 Bft) O-SO 112 0 min 0,000 mm 0,0 UV-I 0 W/m -4,4 C -5,2 C 6,4 km/h (2 Bft) 95,65 %
11.12.2019 01:56 -3,3 C 92 % 1026,5 hPa 0,0 l/m 4,8 km/h (1 Bft) O-SO 112 0 min 0,000 mm 0,0 UV-I 0 W/m -4,4 C -5,2 C 6,4 km/h (2 Bft) 100,00 %
11.12.2019 01:55 -3,3 C 92 % 1026,6 hPa 0,0 l/m 6,4 km/h (2 Bft) O-SO 112 0 min 0,000 mm 0,0 UV-I 0 W/m -4,4 C -6,0 C 9,7 km/h (2 Bft) 91,30 %
11.12.2019 01:54 -3,3 C 91 % 1026,6 hPa 0,0 l/m 4,8 km/h (1 Bft) O-SO 112 0 min 0,000 mm 0,0 UV-I 0 W/m -4,6 C -5,2 C 6,4 km/h (2 Bft) 91,30 %
11.12.2019 01:53 -3,3 C 91 % 1026,7 hPa 0,0 l/m 4,8 km/h (1 Bft) O-SO 112 0 min 0,000 mm 0,0 UV-I 0 W/m -4,6 C -5,2 C 6,4 km/h (2 Bft) 95,65 %
11.12.2019 01:52 -3,2 C 91 % 1026,6 hPa 0,0 l/m 4,8 km/h (1 Bft) O-SO 112 0 min 0,000 mm 0,0 UV-I 0 W/m -4,5 C -5,1 C 6,4 km/h (2 Bft) 100,00 %
11.12.2019 01:51 -3,2 C 91 % 1026,6 hPa 0,0 l/m 4,8 km/h (1 Bft) O-SO 112 0 min 0,000 mm 0,0 UV-I 0 W/m -4,5 C -5,1 C 6,4 km/h (2 Bft) 100,00 %
11.12.2019 01:50 -3,2 C 91 % 1026,7 hPa 0,0 l/m 4,8 km/h (1 Bft) O-SO 112 0 min 0,000 mm 0,0 UV-I 0 W/m -4,5 C -5,1 C 4,8 km/h (1 Bft) 100,00 %
11.12.2019 01:49 -3,2 C 91 % 1026,8 hPa 0,0 l/m 3,2 km/h (1 Bft) O-SO 112 0 min 0,000 mm 0,0 UV-I 0 W/m -4,5 C -3,2 C 4,8 km/h (1 Bft) 82,61 %
11.12.2019 01:48 -3,2 C 91 % 1026,9 hPa 0,0 l/m 3,2 km/h (1 Bft) O-SO 112 0 min 0,000 mm 0,0 UV-I 0 W/m -4,5 C -3,2 C 4,8 km/h (1 Bft) 95,65 %
11.12.2019 01:47 -3,2 C 91 % 1026,8 hPa 0,0 l/m 3,2 km/h (1 Bft) O-SO 112 0 min 0,000 mm 0,0 UV-I 0 W/m -4,5 C -3,2 C 4,8 km/h (1 Bft) 91,30 %
11.12.2019 01:46 -3,2 C 91 % 1026,8 hPa 0,0 l/m 3,2 km/h (1 Bft) O-SO 112 0 min 0,000 mm 0,0 UV-I 0 W/m -4,5 C -3,2 C 4,8 km/h (1 Bft) 91,30 %
11.12.2019 01:45 -3,1 C 91 % 1026,8 hPa 0,0 l/m 3,2 km/h (1 Bft) O-SO 112 0 min 0,000 mm 0,0 UV-I 0 W/m -4,4 C -3,1 C 4,8 km/h (1 Bft) 91,30 %
11.12.2019 01:44 -3,2 C 91 % 1026,8 hPa 0,0 l/m 3,2 km/h (1 Bft) O-SO 112 0 min 0,000 mm 0,0 UV-I 0 W/m -4,5 C -3,2 C 6,4 km/h (2 Bft) 100,00 %
11.12.2019 01:43 -3,1 C 91 % 1026,9 hPa 0,0 l/m 3,2 km/h (1 Bft) O-SO 112 0 min 0,000 mm 0,0 UV-I 0 W/m -4,4 C -3,1 C 4,8 km/h (1 Bft) 95,65 %
11.12.2019 01:42 -3,1 C 91 % 1026,8 hPa 0,0 l/m 3,2 km/h (1 Bft) O-SO 112 0 min 0,000 mm 0,0 UV-I 0 W/m -4,4 C -3,1 C 3,2 km/h (1 Bft) 78,26 %
11.12.2019 01:41 -3,1 C 91 % 1026,8 hPa 0,0 l/m 0,0 km/h (0 Bft) O-SO 112 0 min 0,000 mm 0,0 UV-I 0 W/m -4,4 C -3,1 C 1,6 km/h (1 Bft) 100,00 %
11.12.2019 01:40 -3,1 C 91 % 1026,8 hPa 0,0 l/m 1,6 km/h (1 Bft) O-SO 112 0 min 0,000 mm 0,0 UV-I 0 W/m -4,4 C -3,1 C 1,6 km/h (1 Bft) 91,30 %
11.12.2019 01:39 -3,1 C 91 % 1026,9 hPa 0,0 l/m 1,6 km/h (1 Bft) O-SO 112 0 min 0,000 mm 0,0 UV-I 0 W/m -4,4 C -3,1 C 3,2 km/h (1 Bft) 100,00 %
11.12.2019 01:38 -3,1 C 91 % 1026,9 hPa 0,0 l/m 3,2 km/h (1 Bft) O-SO 112 0 min 0,000 mm 0,0 UV-I 0 W/m -4,4 C -3,1 C 4,8 km/h (1 Bft) 86,96 %
11.12.2019 01:37 -3,1 C 91 % 1026,8 hPa 0,0 l/m 4,8 km/h (1 Bft) O-SO 112 0 min 0,000 mm 0,0 UV-I 0 W/m -4,4 C -5,0 C 4,8 km/h (1 Bft) 91,30 %
11.12.2019 01:36 -3,1 C 91 % 1026,9 hPa 0,0 l/m 4,8 km/h (1 Bft) O-SO 112 0 min 0,000 mm 0,0 UV-I 0 W/m -4,4 C -5,0 C 4,8 km/h (1 Bft) 100,00 %
11.12.2019 01:35 -3,1 C 91 % 1026,8 hPa 0,0 l/m 4,8 km/h (1 Bft) O-SO 112 0 min 0,000 mm 0,0 UV-I 0 W/m -4,4 C -5,0 C 4,8 km/h (1 Bft) 95,65 %
11.12.2019 01:34 -3,0 C 90 % 1026,9 hPa 0,0 l/m 4,8 km/h (1 Bft) O-SO 112 0 min 0,000 mm 0,0 UV-I 0 W/m -4,4 C -4,9 C 6,4 km/h (2 Bft) 95,65 %
11.12.2019 01:33 -3,0 C 90 % 1027,0 hPa 0,0 l/m 4,8 km/h (1 Bft) O-SO 112 0 min 0,000 mm 0,0 UV-I 0 W/m -4,4 C -4,9 C 6,4 km/h (2 Bft) 95,65 %
11.12.2019 01:32 -3,0 C 90 % 1026,9 hPa 0,0 l/m 4,8 km/h (1 Bft) O-SO 112 0 min 0,000 mm 0,0 UV-I 0 W/m -4,4 C -4,9 C 6,4 km/h (2 Bft) 91,30 %
11.12.2019 01:31 -3,0 C 90 % 1027,0 hPa 0,0 l/m 4,8 km/h (1 Bft) O-SO 112 0 min 0,000 mm 0,0 UV-I 0 W/m -4,4 C -4,9 C 4,8 km/h (1 Bft) 100,00 %
11.12.2019 01:30 -2,9 C 90 % 1027,0 hPa 0,0 l/m 4,8 km/h (1 Bft) O-SO 112 0 min 0,000 mm 0,0 UV-I 0 W/m -4,3 C -4,8 C 4,8 km/h (1 Bft) 91,30 %
11.12.2019 01:29 -3,0 C 90 % 1026,9 hPa 0,0 l/m 3,2 km/h (1 Bft) O-SO 112 0 min 0,000 mm 0,0 UV-I 0 W/m -4,4 C -3,0 C 4,8 km/h (1 Bft) 91,30 %
11.12.2019 01:28 -3,0 C 90 % 1026,9 hPa 0,0 l/m 3,2 km/h (1 Bft) O-SO 112 0 min 0,000 mm 0,0 UV-I 0 W/m -4,4 C -3,0 C 4,8 km/h (1 Bft) 95,65 %
11.12.2019 01:27 -2,9 C 90 % 1026,9 hPa 0,0 l/m 3,2 km/h (1 Bft) O-SO 112 0 min 0,000 mm 0,0 UV-I 0 W/m -4,3 C -2,9 C 4,8 km/h (1 Bft) 100,00 %
11.12.2019 01:26 -2,9 C 90 % 1027,0 hPa 0,0 l/m 3,2 km/h (1 Bft) O-SO 112 0 min 0,000 mm 0,0 UV-I 0 W/m -4,3 C -2,9 C 4,8 km/h (1 Bft) 91,30 %
11.12.2019 01:25 -2,9 C 90 % 1027,0 hPa 0,0 l/m 3,2 km/h (1 Bft) O-SO 112 0 min 0,000 mm 0,0 UV-I 0 W/m -4,3 C -2,9 C 4,8 km/h (1 Bft) 91,30 %
11.12.2019 01:24 -3,0 C 90 % 1027,0 hPa 0,0 l/m 3,2 km/h (1 Bft) O-SO 112 0 min 0,000 mm 0,0 UV-I 0 W/m -4,4 C -3,0 C 4,8 km/h (1 Bft) 100,00 %
11.12.2019 01:23 -2,9 C 90 % 1027,0 hPa 0,0 l/m 4,8 km/h (1 Bft) O-SO 112 0 min 0,000 mm 0,0 UV-I 0 W/m -4,3 C -4,8 C 4,8 km/h (1 Bft) 78,26 %
11.12.2019 01:22 -2,9 C 90 % 1027,1 hPa 0,0 l/m 4,8 km/h (1 Bft) O-SO 112 0 min 0,000 mm 0,0 UV-I 0 W/m -4,3 C -4,8 C 6,4 km/h (2 Bft) 95,65 %
11.12.2019 01:21 -2,9 C 90 % 1027,1 hPa 0,0 l/m 4,8 km/h (1 Bft) O-SO 112 0 min 0,000 mm 0,0 UV-I 0 W/m -4,3 C -4,8 C 4,8 km/h (1 Bft) 86,96 %
11.12.2019 01:20 -2,9 C 90 % 1027,0 hPa 0,0 l/m 3,2 km/h (1 Bft) O-SO 112 0 min 0,000 mm 0,0 UV-I 0 W/m -4,3 C -2,9 C 3,2 km/h (1 Bft) 82,61 %
11.12.2019 01:19 -2,8 C 90 % 1027,1 hPa 0,0 l/m 1,6 km/h (1 Bft) O-SO 112 0 min 0,000 mm 0,0 UV-I 0 W/m -4,2 C -2,8 C 4,8 km/h (1 Bft) 91,30 %
11.12.2019 01:18 -2,9 C 90 % 1027,1 hPa 0,0 l/m 1,6 km/h (1 Bft) O-SO 112 0 min 0,000 mm 0,0 UV-I 0 W/m -4,3 C -2,9 C 1,6 km/h (1 Bft) 95,65 %
11.12.2019 01:17 -2,9 C 90 % 1027,2 hPa 0,0 l/m 1,6 km/h (1 Bft) O-SO 112 0 min 0,000 mm 0,0 UV-I 0 W/m -4,3 C -2,9 C 3,2 km/h (1 Bft) 86,96 %
11.12.2019 01:16 -2,8 C 90 % 1027,2 hPa 0,0 l/m 3,2 km/h (1 Bft) O-SO 112 0 min 0,000 mm 0,0 UV-I 0 W/m -4,2 C -2,8 C 4,8 km/h (1 Bft) 91,30 %
11.12.2019 01:15 -2,9 C 90 % 1027,2 hPa 0,0 l/m 3,2 km/h (1 Bft) O-SO 112 0 min 0,000 mm 0,0 UV-I 0 W/m -4,3 C -2,9 C 4,8 km/h (1 Bft) 86,96 %
11.12.2019 01:14 -2,8 C 90 % 1027,3 hPa 0,0 l/m 3,2 km/h (1 Bft) O-SO 112 0 min 0,000 mm 0,0 UV-I 0 W/m -4,2 C -2,8 C 3,2 km/h (1 Bft) 95,65 %
11.12.2019 01:13 -2,8 C 90 % 1027,2 hPa 0,0 l/m 3,2 km/h (1 Bft) O-SO 112 0 min 0,000 mm 0,0 UV-I 0 W/m -4,2 C -2,8 C 3,2 km/h (1 Bft) 91,30 %
11.12.2019 01:12 -2,8 C 90 % 1027,1 hPa 0,0 l/m 3,2 km/h (1 Bft) O-SO 112 0 min 0,000 mm 0,0 UV-I 0 W/m -4,2 C -2,8 C 4,8 km/h (1 Bft) 91,30 %
11.12.2019 01:11 -2,8 C 90 % 1027,3 hPa 0,0 l/m 3,2 km/h (1 Bft) O-SO 112 0 min 0,000 mm 0,0 UV-I 0 W/m -4,2 C -2,8 C 3,2 km/h (1 Bft) 82,61 %
11.12.2019 01:10 -2,8 C 90 % 1027,2 hPa 0,0 l/m 1,6 km/h (1 Bft) O-SO 112 0 min 0,000 mm 0,0 UV-I 0 W/m -4,2 C -2,8 C 3,2 km/h (1 Bft) 95,65 %
11.12.2019 01:09 -2,8 C 90 % 1027,3 hPa 0,0 l/m 3,2 km/h (1 Bft) O-SO 112 0 min 0,000 mm 0,0 UV-I 0 W/m -4,2 C -2,8 C 4,8 km/h (1 Bft) 78,26 %
11.12.2019 01:08 -2,8 C 90 % 1027,2 hPa 0,0 l/m 4,8 km/h (1 Bft) O-SO 112 0 min 0,000 mm 0,0 UV-I 0 W/m -4,2 C -4,7 C 4,8 km/h (1 Bft) 86,96 %
11.12.2019 01:07 -2,8 C 90 % 1027,2 hPa 0,0 l/m 4,8 km/h (1 Bft) O-SO 112 0 min 0,000 mm 0,0 UV-I 0 W/m -4,2 C -4,7 C 6,4 km/h (2 Bft) 100,00 %
11.12.2019 01:06 -2,8 C 90 % 1027,3 hPa 0,0 l/m 4,8 km/h (1 Bft) O-SO 112 0 min 0,000 mm 0,0 UV-I 0 W/m -4,2 C -4,7 C 6,4 km/h (2 Bft) 86,96 %
11.12.2019 01:05 -2,8 C 90 % 1027,2 hPa 0,0 l/m 3,2 km/h (1 Bft) O-SO 112 0 min 0,000 mm 0,0 UV-I 0 W/m -4,2 C -2,8 C 4,8 km/h (1 Bft) 91,30 %
11.12.2019 01:04 -2,8 C 90 % 1027,2 hPa 0,0 l/m 4,8 km/h (1 Bft) O-SO 112 0 min 0,000 mm 0,0 UV-I 0 W/m -4,2 C -4,7 C 4,8 km/h (1 Bft) 86,96 %
11.12.2019 01:03 -2,8 C 90 % 1027,3 hPa 0,0 l/m 3,2 km/h (1 Bft) O-SO 112 0 min 0,000 mm 0,0 UV-I 0 W/m -4,2 C -2,8 C 4,8 km/h (1 Bft) 91,30 %
11.12.2019 01:02 -2,8 C 91 % 1027,3 hPa 0,0 l/m 3,2 km/h (1 Bft) O-SO 112 0 min 0,000 mm 0,0 UV-I 0 W/m -4,1 C -2,8 C 4,8 km/h (1 Bft) 100,00 %
11.12.2019 01:01 -2,8 C 91 % 1027,2 hPa 0,0 l/m 3,2 km/h (1 Bft) O-SO 112 0 min 0,000 mm 0,0 UV-I 0 W/m -4,1 C -2,8 C 4,8 km/h (1 Bft) 91,30 %
11.12.2019 01:00 -2,8 C 91 % 1027,3 hPa 0,0 l/m 4,8 km/h (1 Bft) O-SO 112 0 min 0,000 mm 0,0 UV-I 0 W/m -4,1 C -4,7 C 4,8 km/h (1 Bft) 95,65 %
11.12.2019 00:59 -2,8 C 91 % 1027,3 hPa 0,0 l/m 4,8 km/h (1 Bft) O-SO 112 0 min 0,000 mm 0,0 UV-I 0 W/m -4,1 C -4,7 C 6,4 km/h (2 Bft) 91,30 %
11.12.2019 00:58 -2,8 C 91 % 1027,3 hPa 0,0 l/m 4,8 km/h (1 Bft) O-SO 112 0 min 0,000 mm 0,0 UV-I 0 W/m -4,1 C -4,7 C 6,4 km/h (2 Bft) 95,65 %
11.12.2019 00:57 -2,8 C 91 % 1027,3 hPa 0,0 l/m 6,4 km/h (2 Bft) O-SO 112 0 min 0,000 mm 0,0 UV-I 0 W/m -4,1 C -5,4 C 9,7 km/h (2 Bft) 86,96 %
11.12.2019 00:56 -2,8 C 91 % 1027,3 hPa 0,0 l/m 6,4 km/h (2 Bft) O-SO 112 0 min 0,000 mm 0,0 UV-I 0 W/m -4,1 C -5,4 C 9,7 km/h (2 Bft) 95,65 %
11.12.2019 00:55 -2,8 C 91 % 1027,3 hPa 0,0 l/m 6,4 km/h (2 Bft) O-SO 112 0 min 0,000 mm 0,0 UV-I 0 W/m -4,1 C -5,4 C 6,4 km/h (2 Bft) 95,65 %
11.12.2019 00:54 -2,8 C 91 % 1027,3 hPa 0,0 l/m 6,4 km/h (2 Bft) O-SO 112 0 min 0,000 mm 0,0 UV-I 0 W/m -4,1 C -5,4 C 6,4 km/h (2 Bft) 91,30 %
11.12.2019 00:53 -2,8 C 91 % 1027,4 hPa 0,0 l/m 3,2 km/h (1 Bft) O-SO 112 0 min 0,000 mm 0,0 UV-I 0 W/m -4,1 C -2,8 C 4,8 km/h (1 Bft) 86,96 %
11.12.2019 00:52 -2,8 C 91 % 1027,4 hPa 0,0 l/m 3,2 km/h (1 Bft) O-SO 112 0 min 0,000 mm 0,0 UV-I 0 W/m -4,1 C -2,8 C 4,8 km/h (1 Bft) 91,30 %
11.12.2019 00:51 -2,8 C 91 % 1027,4 hPa 0,0 l/m 3,2 km/h (1 Bft) O-SO 112 0 min 0,000 mm 0,0 UV-I 0 W/m -4,1 C -2,8 C 4,8 km/h (1 Bft) 91,30 %
11.12.2019 00:50 -2,8 C 91 % 1027,5 hPa 0,0 l/m 4,8 km/h (1 Bft) O-SO 112 0 min 0,000 mm 0,0 UV-I 0 W/m -4,1 C -4,7 C 6,4 km/h (2 Bft) 100,00 %
11.12.2019 00:49 -2,8 C 91 % 1027,5 hPa 0,0 l/m 6,4 km/h (2 Bft) O-SO 112 0 min 0,000 mm 0,0 UV-I 0 W/m -4,1 C -5,4 C 9,7 km/h (2 Bft) 95,65 %
11.12.2019 00:48 -2,8 C 91 % 1027,4 hPa 0,0 l/m 6,4 km/h (2 Bft) O-SO 112 0 min 0,000 mm 0,0 UV-I 0 W/m -4,1 C -5,4 C 9,7 km/h (2 Bft) 100,00 %
11.12.2019 00:47 -2,8 C 91 % 1027,4 hPa 0,0 l/m 6,4 km/h (2 Bft) O-SO 112 0 min 0,000 mm 0,0 UV-I 0 W/m -4,1 C -5,4 C 9,7 km/h (2 Bft) 95,65 %
11.12.2019 00:46 -2,8 C 91 % 1027,4 hPa 0,0 l/m 4,8 km/h (1 Bft) O-SO 112 0 min 0,000 mm 0,0 UV-I 0 W/m -4,1 C -4,7 C 6,4 km/h (2 Bft) 95,65 %
11.12.2019 00:45 -2,8 C 90 % 1027,4 hPa 0,0 l/m 4,8 km/h (1 Bft) O-SO 112 0 min 0,000 mm 0,0 UV-I 0 W/m -4,2 C -4,7 C 6,4 km/h (2 Bft) 86,96 %
11.12.2019 00:44 -2,8 C 90 % 1027,4 hPa 0,0 l/m 4,8 km/h (1 Bft) O-SO 112 0 min 0,000 mm 0,0 UV-I 0 W/m -4,2 C -4,7 C 4,8 km/h (1 Bft) 91,30 %
11.12.2019 00:43 -2,8 C 91 % 1027,5 hPa 0,0 l/m 4,8 km/h (1 Bft) O-SO 112 0 min 0,000 mm 0,0 UV-I 0 W/m -4,1 C -4,7 C 6,4 km/h (2 Bft) 91,30 %
11.12.2019 00:42 -2,8 C 91 % 1027,5 hPa 0,0 l/m 4,8 km/h (1 Bft) O-SO 112 0 min 0,000 mm 0,0 UV-I 0 W/m -4,1 C -4,7 C 6,4 km/h (2 Bft) 73,91 %
11.12.2019 00:41 -2,8 C 91 % 1027,5 hPa 0,0 l/m 4,8 km/h (1 Bft) O-SO 112 0 min 0,000 mm 0,0 UV-I 0 W/m -4,1 C -4,7 C 6,4 km/h (2 Bft) 95,65 %
11.12.2019 00:40 -2,8 C 91 % 1027,5 hPa 0,0 l/m 4,8 km/h (1 Bft) O-SO 112 0 min 0,000 mm 0,0 UV-I 0 W/m -4,1 C -4,7 C 6,4 km/h (2 Bft) 95,65 %
11.12.2019 00:39 -2,8 C 91 % 1027,5 hPa 0,0 l/m 4,8 km/h (1 Bft) O-SO 112 0 min 0,000 mm 0,0 UV-I 0 W/m -4,1 C -4,7 C 6,4 km/h (2 Bft) 86,96 %
11.12.2019 00:38 -2,8 C 91 % 1027,5 hPa 0,0 l/m 3,2 km/h (1 Bft) O-SO 112 0 min 0,000 mm 0,0 UV-I 0 W/m -4,1 C -2,8 C 4,8 km/h (1 Bft) 100,00 %
11.12.2019 00:37 -2,8 C 90 % 1027,5 hPa 0,0 l/m 3,2 km/h (1 Bft) O-SO 112 0 min 0,000 mm 0,0 UV-I 0 W/m -4,2 C -2,8 C 4,8 km/h (1 Bft) 91,30 %
11.12.2019 00:36 -2,8 C 90 % 1027,6 hPa 0,0 l/m 4,8 km/h (1 Bft) O-SO 112 0 min 0,000 mm 0,0 UV-I 0 W/m -4,2 C -4,7 C 4,8 km/h (1 Bft) 91,30 %
11.12.2019 00:35 -2,7 C 90 % 1027,6 hPa 0,0 l/m 4,8 km/h (1 Bft) O-SO 112 0 min 0,000 mm 0,0 UV-I 0 W/m -4,1 C -4,5 C 4,8 km/h (1 Bft) 95,65 %
11.12.2019 00:34 -2,7 C 90 % 1027,6 hPa 0,0 l/m 6,4 km/h (2 Bft) O-SO 112 0 min 0,000 mm 0,0 UV-I 0 W/m -4,1 C -5,3 C 6,4 km/h (2 Bft) 82,61 %
11.12.2019 00:33 -2,7 C 90 % 1027,6 hPa 0,0 l/m 6,4 km/h (2 Bft) O-SO 112 0 min 0,000 mm 0,0 UV-I 0 W/m -4,1 C -5,3 C 9,7 km/h (2 Bft) 86,96 %
11.12.2019 00:32 -2,8 C 90 % 1027,6 hPa 0,0 l/m 4,8 km/h (1 Bft) O-SO 112 0 min 0,000 mm 0,0 UV-I 0 W/m -4,2 C -4,7 C 6,4 km/h (2 Bft) 86,96 %
11.12.2019 00:31 -2,7 C 90 % 1027,6 hPa 0,0 l/m 6,4 km/h (2 Bft) O-SO 112 0 min 0,000 mm 0,0 UV-I 0 W/m -4,1 C -5,3 C 6,4 km/h (2 Bft) 95,65 %
11.12.2019 00:30 -2,7 C 90 % 1027,6 hPa 0,0 l/m 4,8 km/h (1 Bft) O-SO 112 0 min 0,000 mm 0,0 UV-I 0 W/m -4,1 C -4,5 C 6,4 km/h (2 Bft) 86,96 %
11.12.2019 00:29 -2,7 C 90 % 1027,8 hPa 0,0 l/m 4,8 km/h (1 Bft) O-SO 112 0 min 0,000 mm 0,0 UV-I 0 W/m -4,1 C -4,5 C 6,4 km/h (2 Bft) 95,65 %
11.12.2019 00:28 -2,7 C 90 % 1027,7 hPa 0,0 l/m 6,4 km/h (2 Bft) O-SO 112 0 min 0,000 mm 0,0 UV-I 0 W/m -4,1 C -5,3 C 6,4 km/h (2 Bft) 95,65 %
11.12.2019 00:27 -2,7 C 90 % 1027,7 hPa 0,0 l/m 4,8 km/h (1 Bft) O-SO 112 0 min 0,000 mm 0,0 UV-I 0 W/m -4,1 C -4,5 C 6,4 km/h (2 Bft) 91,30 %
11.12.2019 00:26 -2,7 C 90 % 1027,7 hPa 0,0 l/m 4,8 km/h (1 Bft) O-SO 112 0 min 0,000 mm 0,0 UV-I 0 W/m -4,1 C -4,5 C 6,4 km/h (2 Bft) 86,96 %
11.12.2019 00:25 -2,7 C 90 % 1027,7 hPa 0,0 l/m 6,4 km/h (2 Bft) O-SO 112 0 min 0,000 mm 0,0 UV-I 0 W/m -4,1 C -5,3 C 6,4 km/h (2 Bft) 86,96 %
11.12.2019 00:24 -2,7 C 90 % 1027,7 hPa 0,0 l/m 4,8 km/h (1 Bft) O-SO 112 0 min 0,000 mm 0,0 UV-I 0 W/m -4,1 C -4,5 C 6,4 km/h (2 Bft) 95,65 %
11.12.2019 00:23 -2,7 C 90 % 1027,7 hPa 0,0 l/m 4,8 km/h (1 Bft) O-SO 112 0 min 0,000 mm 0,0 UV-I 0 W/m -4,1 C -4,5 C 6,4 km/h (2 Bft) 73,91 %
11.12.2019 00:22 -2,7 C 90 % 1027,7 hPa 0,0 l/m 6,4 km/h (2 Bft) O-SO 112 0 min 0,000 mm 0,0 UV-I 0 W/m -4,1 C -5,3 C 6,4 km/h (2 Bft) 91,30 %
11.12.2019 00:21 -2,7 C 89 % 1027,6 hPa 0,0 l/m 4,8 km/h (1 Bft) O-SO 112 0 min 0,000 mm 0,0 UV-I 0 W/m -4,3 C -4,5 C 6,4 km/h (2 Bft) 91,30 %
11.12.2019 00:20 -2,7 C 89 % 1027,7 hPa 0,0 l/m 4,8 km/h (1 Bft) O-SO 112 0 min 0,000 mm 0,0 UV-I 0 W/m -4,3 C -4,5 C 4,8 km/h (1 Bft) 86,96 %
11.12.2019 00:19 -2,7 C 89 % 1027,7 hPa 0,0 l/m 4,8 km/h (1 Bft) O-SO 112 0 min 0,000 mm 0,0 UV-I 0 W/m -4,3 C -4,5 C 4,8 km/h (1 Bft) 100,00 %
11.12.2019 00:18 -2,6 C 89 % 1027,7 hPa 0,0 l/m 6,4 km/h (2 Bft) O-SO 112 0 min 0,000 mm 0,0 UV-I 0 W/m -4,2 C -5,2 C 6,4 km/h (2 Bft) 95,65 %
11.12.2019 00:17 -2,6 C 89 % 1027,6 hPa 0,0 l/m 6,4 km/h (2 Bft) O-SO 112 0 min 0,000 mm 0,0 UV-I 0 W/m -4,2 C -5,2 C 6,4 km/h (2 Bft) 82,61 %
11.12.2019 00:16 -2,6 C 89 % 1027,7 hPa 0,0 l/m 6,4 km/h (2 Bft) O-SO 112 0 min 0,000 mm 0,0 UV-I 0 W/m -4,2 C -5,2 C 9,7 km/h (2 Bft) 91,30 %
11.12.2019 00:15 -2,6 C 89 % 1027,7 hPa 0,0 l/m 6,4 km/h (2 Bft) O-SO 112 0 min 0,000 mm 0,0 UV-I 0 W/m -4,2 C -5,2 C 9,7 km/h (2 Bft) 82,61 %
11.12.2019 00:14 -2,6 C 89 % 1027,8 hPa 0,0 l/m 6,4 km/h (2 Bft) O-SO 112 0 min 0,000 mm 0,0 UV-I 0 W/m -4,2 C -5,2 C 6,4 km/h (2 Bft) 91,30 %
11.12.2019 00:13 -2,6 C 89 % 1027,7 hPa 0,0 l/m 6,4 km/h (2 Bft) O-SO 112 0 min 0,000 mm 0,0 UV-I 0 W/m -4,2 C -5,2 C 6,4 km/h (2 Bft) 95,65 %
11.12.2019 00:12 -2,6 C 89 % 1027,8 hPa 0,0 l/m 4,8 km/h (1 Bft) O-SO 112 0 min 0,000 mm 0,0 UV-I 0 W/m -4,2 C -4,4 C 6,4 km/h (2 Bft) 100,00 %
11.12.2019 00:11 -2,5 C 89 % 1027,9 hPa 0,0 l/m 4,8 km/h (1 Bft) O-SO 112 0 min 0,000 mm 0,0 UV-I 0 W/m -4,1 C -4,3 C 6,4 km/h (2 Bft) 91,30 %
11.12.2019 00:10 -2,5 C 89 % 1028,0 hPa 0,0 l/m 4,8 km/h (1 Bft) O-SO 112 0 min 0,000 mm 0,0 UV-I 0 W/m -4,1 C -4,3 C 6,4 km/h (2 Bft) 86,96 %
11.12.2019 00:09 -2,5 C 89 % 1027,8 hPa 0,0 l/m 4,8 km/h (1 Bft) O-SO 112 0 min 0,000 mm 0,0 UV-I 0 W/m -4,1 C -4,3 C 6,4 km/h (2 Bft) 78,26 %
11.12.2019 00:08 -2,5 C 89 % 1027,9 hPa 0,0 l/m 4,8 km/h (1 Bft) O-SO 112 0 min 0,000 mm 0,0 UV-I 0 W/m -4,1 C -4,3 C 6,4 km/h (2 Bft) 95,65 %
11.12.2019 00:07 -2,5 C 89 % 1027,9 hPa 0,0 l/m 4,8 km/h (1 Bft) O-SO 112 0 min 0,000 mm 0,0 UV-I 0 W/m -4,1 C -4,3 C 6,4 km/h (2 Bft) 100,00 %
11.12.2019 00:06 -2,4 C 89 % 1027,8 hPa 0,0 l/m 6,4 km/h (2 Bft) O-SO 112 0 min 0,000 mm 0,0 UV-I 0 W/m -4,0 C -5,0 C 9,7 km/h (2 Bft) 91,30 %
11.12.2019 00:05 -2,5 C 89 % 1027,9 hPa 0,0 l/m 4,8 km/h (1 Bft) O-SO 112 0 min 0,000 mm 0,0 UV-I 0 W/m -4,1 C -4,3 C 6,4 km/h (2 Bft) 95,65 %
11.12.2019 00:04 -2,4 C 89 % 1027,9 hPa 0,0 l/m 4,8 km/h (1 Bft) O-SO 112 0 min 0,000 mm 0,0 UV-I 0 W/m -4,0 C -4,2 C 6,4 km/h (2 Bft) 78,26 %
11.12.2019 00:03 -2,4 C 89 % 1027,9 hPa 0,0 l/m 4,8 km/h (1 Bft) O-SO 112 0 min 0,000 mm 0,0 UV-I 0 W/m -4,0 C -4,2 C 6,4 km/h (2 Bft) 95,65 %
11.12.2019 00:02 -2,4 C 89 % 1028,1 hPa 0,0 l/m 4,8 km/h (1 Bft) O-SO 112 0 min 0,000 mm 0,0 UV-I 0 W/m -4,0 C -4,2 C 6,4 km/h (2 Bft) 91,30 %
11.12.2019 00:01 -2,4 C 89 % 1028,0 hPa 0,0 l/m 6,4 km/h (2 Bft) O-SO 112 0 min 0,000 mm 0,0 UV-I 0 W/m -4,0 C -5,0 C 9,7 km/h (2 Bft) 73,91 %
11.12.2019 00:00 -2,4 C 88 % 1028,1 hPa 0,0 l/m 4,8 km/h (1 Bft) O-SO 112 0 min 0,000 mm 0,0 UV-I 0 W/m -4,1 C -4,2 C 6,4 km/h (2 Bft) 95,65 %
_ Min-Zeit 07:05 13:22 19:35 - 01:41 - - - - - - 07:05 08:04 17:54 12:49
Minimum _ -5,1 C 77 % 1012,8 hPa - 0,0 km/h (0 Bft) - - - - - - -5,8 C -10,1 C 0,0 km/h (0 Bft) 8,70 %
_ Max-Zeit 13:09 03:07 00:00 00:00 10:46 - - 09:40 12:00 11:29 12:16 12:23 15:21 10:46 00:07
Maximum _ -0,1 C 95 % 1028,1 hPa 0,0 l/m 24,1 km/h
O-SO (4 Bft)
- - 1 min 0,102 mm 0,7 UV-I 288 W/m -3,1 C -1,7 C 29,0 km/h
SO (5 Bft)
100,00 %
Durchschnitt _ -2,9 C 90 % 1019,6 hPa #0,0 l/m 8,9 km/h (2 Bft) O-SO - #4:40 h #0,483 mm 0,6 UV-I 155 W/m -4,4 C -6,1 C 10,7 km/h (2 Bft) 93,37 %